Time,TemperatureF,DewpointF,PressureIn,WindDirection,WindDirectionDegrees,WindSpeedMPH,WindSpeedGustMPH,Humidity,HourlyPrecipIn,Conditions,Clouds,dailyrainin,SolarRadiationWatts/m^2,SoftwareType,DateUTC
2013-01-10 00:00:00,45.9,44.8,30.46,NNE,21,0.0,0.0,96,0.00,,---,0.03,0.00,VWS V14.01,2013-01-10 05:00:00,
2013-01-10 00:10:00,46.0,44.9,30.45,NNE,21,0.0,0.0,96,0.00,,---,0.00,0.00,VWS V14.01,2013-01-10 05:10:00,
2013-01-10 00:20:00,46.1,45.0,30.45,NNE,21,0.0,0.0,96,0.00,,---,0.00,0.00,VWS V14.01,2013-01-10 05:20:00,
2013-01-10 00:30:00,46.2,45.1,30.45,NNE,21,0.0,0.0,96,0.00,,---,0.00,0.00,VWS V14.01,2013-01-10 05:30:00,
2013-01-10 00:40:00,46.3,45.2,30.46,NNE,21,0.0,1.0,96,0.00,,---,0.00,0.00,VWS V14.01,2013-01-10 05:40:00,
2013-01-10 00:50:00,46.6,45.8,30.46,NNE,21,0.0,0.0,97,0.00,,---,0.00,0.00,VWS V14.01,2013-01-10 05:50:00,
2013-01-10 01:00:00,46.8,46.0,30.46,NNE,21,0.0,0.0,97,0.00,,---,0.00,0.00,VWS V14.01,2013-01-10 06:00:00,
2013-01-10 01:10:00,46.9,46.1,30.46,NNE,21,0.0,0.0,97,0.00,,---,0.00,0.00,VWS V14.01,2013-01-10 06:10:00,
2013-01-10 01:13:00,46.8,46.0,30.47,NNE,21,0.0,0.0,97,0.00,,---,0.00,0.00,VWS V14.01,2013-01-10 06:13:00,
2013-01-10 01:14:00,46.8,46.0,30.46,NNE,21,0.0,0.0,97,0.00,,---,0.00,0.00,VWS V14.01,2013-01-10 06:14:00,
2013-01-10 01:15:00,46.8,46.0,30.47,NNE,21,0.0,0.0,97,0.00,,---,0.00,0.00,VWS V14.01,2013-01-10 06:15:00,
2013-01-10 01:16:00,46.7,45.9,30.46,NNE,21,0.0,0.0,97,0.00,,---,0.00,0.00,VWS V14.01,2013-01-10 06:16:00,
2013-01-10 01:17:00,46.7,45.9,30.47,NNE,21,0.0,0.0,97,0.00,,---,0.00,0.00,VWS V14.01,2013-01-10 06:17:00,
2013-01-10 01:18:00,46.7,45.9,30.46,NNE,21,0.0,0.0,97,0.00,,---,0.00,0.00,VWS V14.01,2013-01-10 06:18:00,
2013-01-10 01:19:00,46.7,45.9,30.47,NNE,21,0.0,1.0,97,0.00,,---,0.00,0.00,VWS V14.01,2013-01-10 06:19:00,
2013-01-10 01:20:00,46.7,45.9,30.47,NNE,21,0.0,0.0,97,0.00,,---,0.00,0.00,VWS V14.01,2013-01-10 06:20:00,
2013-01-10 01:21:00,46.7,45.9,30.47,NNE,22,0.0,0.0,97,0.00,,---,0.00,0.00,VWS V14.01,2013-01-10 06:21:00,
2013-01-10 01:22:00,46.7,45.9,30.47,NNE,21,0.0,0.0,97,0.00,,---,0.00,0.00,VWS V14.01,2013-01-10 06:22:00,
2013-01-10 01:23:00,46.7,45.9,30.47,NNE,21,0.0,0.0,97,0.00,,---,0.00,0.00,VWS V14.01,2013-01-10 06:23:00,
2013-01-10 01:24:00,46.7,45.9,30.47,NNE,21,0.0,0.0,97,0.00,,---,0.00,0.00,VWS V14.01,2013-01-10 06:24:00,
2013-01-10 01:25:00,46.7,45.9,30.47,NNE,21,0.0,0.0,97,0.00,,---,0.00,0.00,VWS V14.01,2013-01-10 06:25:00,
2013-01-10 01:26:00,46.7,45.9,30.46,NNE,21,0.0,0.0,97,0.00,,---,0.00,0.00,VWS V14.01,2013-01-10 06:26:00,
2013-01-10 01:27:00,46.7,45.9,30.47,NNE,21,0.0,0.0,97,0.00,,---,0.00,0.00,VWS V14.01,2013-01-10 06:27:00,
2013-01-10 01:28:00,46.7,45.9,30.46,NNE,21,0.0,1.0,97,0.00,,---,0.00,0.00,VWS V14.01,2013-01-10 06:28:00,
2013-01-10 01:29:00,46.7,45.9,30.46,NNE,21,0.0,0.0,97,0.00,,---,0.00,0.00,VWS V14.01,2013-01-10 06:29:00,
2013-01-10 01:30:00,46.7,45.9,30.46,NNE,21,0.0,0.0,97,0.00,,---,0.00,0.00,VWS V14.01,2013-01-10 06:30:00,
2013-01-10 01:31:00,46.7,45.9,30.46,NNE,21,0.0,0.0,97,0.00,,---,0.00,0.00,VWS V14.01,2013-01-10 06:31:00,
2013-01-10 01:32:00,46.7,45.9,30.46,NNE,21,0.0,0.0,97,0.00,,---,0.00,0.00,VWS V14.01,2013-01-10 06:32:00,
2013-01-10 01:33:00,46.7,45.9,30.47,NNE,21,0.0,0.0,97,0.00,,---,0.00,0.00,VWS V14.01,2013-01-10 06:33:00,
2013-01-10 01:34:00,46.7,45.9,30.46,NNE,21,0.0,0.0,97,0.00,,---,0.00,0.00,VWS V14.01,2013-01-10 06:34:00,
2013-01-10 01:35:00,46.7,45.9,30.46,NNE,21,0.0,0.0,97,0.00,,---,0.00,0.00,VWS V14.01,2013-01-10 06:35:00,
2013-01-10 01:36:00,46.7,45.9,30.46,NNE,21,0.0,0.0,97,0.00,,---,0.00,0.00,VWS V14.01,2013-01-10 06:36:00,
2013-01-10 01:37:00,46.7,45.9,30.46,NNE,21,0.0,0.0,97,0.00,,---,0.00,0.00,VWS V14.01,2013-01-10 06:37:00,
2013-01-10 01:38:00,46.7,45.9,30.46,NNE,21,0.0,0.0,97,0.00,,---,0.00,0.00,VWS V14.01,2013-01-10 06:38:00,
2013-01-10 01:39:00,46.7,45.9,30.46,NNE,21,0.0,0.0,97,0.00,,---,0.00,0.00,VWS V14.01,2013-01-10 06:39:00,
2013-01-10 01:40:00,46.7,45.9,30.46,NNE,21,0.0,0.0,97,0.00,,---,0.00,0.00,VWS V14.01,2013-01-10 06:40:00,
2013-01-10 01:41:00,46.8,46.0,30.46,NNE,21,2.0,2.0,97,0.00,,---,0.00,0.00,VWS V14.01,2013-01-10 06:41:00,
2013-01-10 01:42:00,46.9,46.1,30.46,NNE,21,0.0,2.0,97,0.00,,---,0.00,0.00,VWS V14.01,2013-01-10 06:42:00,
2013-01-10 01:43:00,47.0,46.2,30.46,NNE,21,0.0,2.0,97,0.00,,---,0.00,0.00,VWS V14.01,2013-01-10 06:43:00,
2013-01-10 01:44:00,47.0,46.2,30.46,NNE,21,0.0,2.0,97,0.00,,---,0.00,0.00,VWS V14.01,2013-01-10 06:44:00,
2013-01-10 01:45:00,46.7,45.9,30.46,NNE,21,0.0,0.0,97,0.00,,---,0.00,0.00,VWS V14.01,2013-01-10 06:45:00,
2013-01-10 01:46:00,47.1,46.3,30.46,NNE,21,0.0,2.0,97,0.00,,---,0.00,0.00,VWS V14.01,2013-01-10 06:46:00,
2013-01-10 01:47:00,47.1,46.3,30.46,NNE,21,0.0,2.0,97,0.00,,---,0.00,0.00,VWS V14.01,2013-01-10 06:47:00,
2013-01-10 01:48:00,47.2,46.4,30.45,NNE,21,0.0,2.0,97,0.00,,---,0.00,0.00,VWS V14.01,2013-01-10 06:48:00,
2013-01-10 01:49:00,47.2,46.4,30.45,NNE,21,0.0,2.0,97,0.00,,---,0.00,0.00,VWS V14.01,2013-01-10 06:49:00,
2013-01-10 01:50:00,47.2,46.4,30.45,NNE,21,0.0,0.0,97,0.00,,---,0.00,0.00,VWS V14.01,2013-01-10 06:50:00,
2013-01-10 01:51:00,47.2,46.4,30.45,NNE,21,0.0,0.0,97,0.00,,---,0.00,0.00,VWS V14.01,2013-01-10 06:51:00,
2013-01-10 01:52:00,47.3,46.5,30.45,NNE,21,0.0,0.0,97,0.00,,---,0.00,0.00,VWS V14.01,2013-01-10 06:52:00,
2013-01-10 01:53:00,47.0,46.2,30.46,NNE,21,0.0,2.0,97,0.00,,---,0.00,0.00,VWS V14.01,2013-01-10 06:53:00,
2013-01-10 01:54:00,47.4,46.6,30.44,NNE,21,0.0,1.0,97,0.00,,---,0.00,0.00,VWS V14.01,2013-01-10 06:54:00,
2013-01-10 01:55:00,47.4,46.6,30.44,NNE,21,0.0,1.0,97,0.00,,---,0.00,0.00,VWS V14.01,2013-01-10 06:55:00,
2013-01-10 01:56:00,47.4,46.6,30.44,NNE,22,0.0,1.0,97,0.00,,---,0.00,0.00,VWS V14.01,2013-01-10 06:56:00,
2013-01-10 01:57:00,47.4,46.6,30.45,NNE,22,0.0,1.0,97,0.00,,---,0.00,0.00,VWS V14.01,2013-01-10 06:57:00,
2013-01-10 01:58:00,47.2,46.4,30.45,NNE,21,0.0,2.0,97,0.00,,---,0.00,0.00,VWS V14.01,2013-01-10 06:58:00,
2013-01-10 01:59:00,47.5,46.7,30.45,NNE,21,0.0,1.0,97,0.00,,---,0.00,0.00,VWS V14.01,2013-01-10 06:59:00,
2013-01-10 02:00:00,47.6,46.8,30.45,NNE,22,0.0,0.0,97,0.00,,---,0.00,0.00,VWS V14.01,2013-01-10 07:00:00,
2013-01-10 02:01:00,47.6,46.8,30.44,NNE,21,0.0,0.0,97,0.00,,---,0.00,0.00,VWS V14.01,2013-01-10 07:01:00,
2013-01-10 02:02:00,47.6,46.8,30.45,NNE,21,0.0,1.0,97,0.00,,---,0.00,0.00,VWS V14.01,2013-01-10 07:02:00,
2013-01-10 02:03:00,47.7,46.9,30.45,NNE,21,0.0,1.0,97,0.00,,---,0.00,0.00,VWS V14.01,2013-01-10 07:03:00,
2013-01-10 02:04:00,47.7,46.9,30.45,NNE,21,0.0,1.0,97,0.00,,---,0.00,0.00,VWS V14.01,2013-01-10 07:04:00,
2013-01-10 02:05:00,47.7,46.9,30.45,NNE,21,0.0,1.0,97,0.00,,---,0.00,0.00,VWS V14.01,2013-01-10 07:05:00,
2013-01-10 02:06:00,47.4,46.6,30.44,NNE,21,0.0,1.0,97,0.00,,---,0.00,0.00,VWS V14.01,2013-01-10 07:06:00,
2013-01-10 02:07:00,47.8,47.0,30.44,NNE,21,0.0,1.0,97,0.00,,---,0.00,0.00,VWS V14.01,2013-01-10 07:07:00,
2013-01-10 02:08:00,47.8,47.0,30.44,NNE,21,0.0,1.0,97,0.00,,---,0.00,0.00,VWS V14.01,2013-01-10 07:08:00,
2013-01-10 02:09:00,47.8,47.0,30.44,NNE,21,0.0,1.0,97,0.00,,---,0.00,0.00,VWS V14.01,2013-01-10 07:09:00,
2013-01-10 02:10:00,47.9,47.1,30.44,NNE,21,0.0,0.0,97,0.00,,---,0.00,0.00,VWS V14.01,2013-01-10 07:10:00,
2013-01-10 02:11:00,47.9,47.1,30.44,NNE,21,0.0,0.0,97,0.00,,---,0.00,0.00,VWS V14.01,2013-01-10 07:11:00,
2013-01-10 02:12:00,47.6,46.8,30.45,NNE,21,0.0,1.0,97,0.00,,---,0.00,0.00,VWS V14.01,2013-01-10 07:12:00,
2013-01-10 02:13:00,47.9,47.1,30.44,NNE,21,0.0,0.0,97,0.00,,---,0.00,0.00,VWS V14.01,2013-01-10 07:13:00,
2013-01-10 02:14:00,47.9,47.1,30.44,NNE,21,0.0,1.0,97,0.00,,---,0.00,0.00,VWS V14.01,2013-01-10 07:14:00,
2013-01-10 02:15:00,47.9,47.1,30.44,NNE,21,0.0,1.0,97,0.00,,---,0.00,0.00,VWS V14.01,2013-01-10 07:15:00,
2013-01-10 02:16:00,47.9,47.1,30.44,NNE,21,0.0,1.0,97,0.00,,---,0.00,0.00,VWS V14.01,2013-01-10 07:16:00,
2013-01-10 02:17:00,48.0,47.2,30.44,NNE,21,0.0,1.0,97,0.00,,---,0.00,0.00,VWS V14.01,2013-01-10 07:17:00,
2013-01-10 02:18:00,48.0,47.2,30.44,NNE,21,0.0,1.0,97,0.00,,---,0.00,0.00,VWS V14.01,2013-01-10 07:18:00,
2013-01-10 02:19:00,47.9,47.1,30.44,NNE,21,0.0,1.0,97,0.00,,---,0.00,0.00,VWS V14.01,2013-01-10 07:19:00,
2013-01-10 02:20:00,48.1,47.3,30.44,NNE,21,0.0,0.0,97,0.00,,---,0.00,0.00,VWS V14.01,2013-01-10 07:20:00,
2013-01-10 02:21:00,48.1,47.3,30.43,NNE,21,0.0,0.0,97,0.00,,---,0.00,0.00,VWS V14.01,2013-01-10 07:21:00,
2013-01-10 02:22:00,48.2,47.4,30.43,NNE,21,0.0,0.0,97,0.00,,---,0.00,0.00,VWS V14.01,2013-01-10 07:22:00,
2013-01-10 02:23:00,48.2,47.4,30.44,NNE,21,0.0,0.0,97,0.00,,---,0.00,0.00,VWS V14.01,2013-01-10 07:23:00,
2013-01-10 02:24:00,48.2,47.4,30.44,NNE,21,0.0,0.0,97,0.00,,---,0.00,0.00,VWS V14.01,2013-01-10 07:24:00,
2013-01-10 02:25:00,47.9,47.1,30.44,NNE,21,0.0,1.0,97,0.00,,---,0.00,0.00,VWS V14.01,2013-01-10 07:25:00,
2013-01-10 02:26:00,48.3,47.5,30.43,NNE,21,0.0,0.0,97,0.00,,---,0.00,0.00,VWS V14.01,2013-01-10 07:26:00,
2013-01-10 02:27:00,48.3,47.5,30.43,NNE,21,0.0,0.0,97,0.00,,---,0.00,0.00,VWS V14.01,2013-01-10 07:27:00,
2013-01-10 02:28:00,48.3,47.5,30.44,NNE,21,0.0,0.0,97,0.00,,---,0.00,0.00,VWS V14.01,2013-01-10 07:28:00,
2013-01-10 02:29:00,48.3,47.5,30.43,NNE,21,0.0,0.0,97,0.00,,---,0.00,0.00,VWS V14.01,2013-01-10 07:29:00,
2013-01-10 02:30:00,48.3,47.5,30.43,NNE,21,0.0,0.0,97,0.00,,---,0.00,0.00,VWS V14.01,2013-01-10 07:30:00,
2013-01-10 02:31:00,48.1,47.3,30.43,NNE,21,0.0,0.0,97,0.00,,---,0.00,0.00,VWS V14.01,2013-01-10 07:31:00,
2013-01-10 02:32:00,48.3,47.5,30.43,NNE,21,0.0,0.0,97,0.00,,---,0.00,0.00,VWS V14.01,2013-01-10 07:32:00,
2013-01-10 02:33:00,48.3,47.5,30.44,NNE,21,0.0,0.0,97,0.00,,---,0.00,0.00,VWS V14.01,2013-01-10 07:33:00,
2013-01-10 02:34:00,48.3,47.5,30.44,NNE,21,0.0,0.0,97,0.00,,---,0.00,0.00,VWS V14.01,2013-01-10 07:34:00,
2013-01-10 02:35:00,48.3,47.5,30.44,NNE,21,0.0,0.0,97,0.00,,---,0.00,0.00,VWS V14.01,2013-01-10 07:35:00,
2013-01-10 02:36:00,48.3,47.5,30.43,NNE,21,0.0,0.0,97,0.00,,---,0.00,0.00,VWS V14.01,2013-01-10 07:36:00,
2013-01-10 02:37:00,48.3,47.5,30.43,NNE,21,0.0,0.0,97,0.00,,---,0.00,0.00,VWS V14.01,2013-01-10 07:37:00,
2013-01-10 02:38:00,48.3,47.5,30.43,NNE,21,0.0,0.0,97,0.00,,---,0.00,0.00,VWS V14.01,2013-01-10 07:38:00,
2013-01-10 02:39:00,48.3,47.5,30.44,NNE,21,0.0,0.0,97,0.00,,---,0.00,0.00,VWS V14.01,2013-01-10 07:39:00,
2013-01-10 02:40:00,48.3,47.5,30.44,NNE,21,0.0,0.0,97,0.00,,---,0.00,0.00,VWS V14.01,2013-01-10 07:40:00,
2013-01-10 02:41:00,48.3,47.5,30.44,NNE,21,0.0,0.0,97,0.00,,---,0.00,0.00,VWS V14.01,2013-01-10 07:41:00,
2013-01-10 02:42:00,48.3,47.5,30.43,NNE,21,0.0,0.0,97,0.00,,---,0.00,0.00,VWS V14.01,2013-01-10 07:42:00,
2013-01-10 02:43:00,48.3,47.5,30.44,NNE,21,0.0,0.0,97,0.00,,---,0.00,0.00,VWS V14.01,2013-01-10 07:43:00,
2013-01-10 02:44:00,48.3,47.5,30.44,NNE,21,0.0,0.0,97,0.00,,---,0.00,0.00,VWS V14.01,2013-01-10 07:44:00,
2013-01-10 02:45:00,48.3,47.5,30.44,NNE,21,0.0,0.0,97,0.00,,---,0.00,0.00,VWS V14.01,2013-01-10 07:45:00,
2013-01-10 02:46:00,48.3,47.5,30.44,NNE,21,0.0,0.0,97,0.00,,---,0.00,0.00,VWS V14.01,2013-01-10 07:46:00,
2013-01-10 02:47:00,48.3,47.5,30.43,NNE,21,0.0,0.0,97,0.00,,---,0.00,0.00,VWS V14.01,2013-01-10 07:47:00,
2013-01-10 02:48:00,48.3,47.5,30.44,NNE,21,0.0,0.0,97,0.00,,---,0.00,0.00,VWS V14.01,2013-01-10 07:48:00,
2013-01-10 02:49:00,48.3,47.5,30.44,NNE,21,0.0,0.0,97,0.00,,---,0.00,0.00,VWS V14.01,2013-01-10 07:49:00,
2013-01-10 02:50:00,48.2,47.4,30.44,NNE,21,0.0,0.0,97,0.00,,---,0.00,0.00,VWS V14.01,2013-01-10 07:50:00,
2013-01-10 02:51:00,48.2,47.4,30.44,NNE,21,0.0,0.0,97,0.00,,---,0.00,0.00,VWS V14.01,2013-01-10 07:51:00,
2013-01-10 02:52:00,48.2,47.4,30.44,NNE,21,0.0,0.0,97,0.00,,---,0.00,0.00,VWS V14.01,2013-01-10 07:52:00,
2013-01-10 02:53:00,48.2,47.4,30.44,NNE,21,0.0,0.0,97,0.00,,---,0.00,0.00,VWS V14.01,2013-01-10 07:53:00,
2013-01-10 02:54:00,48.3,47.5,30.44,NNE,21,0.0,0.0,97,0.00,,---,0.00,0.00,VWS V14.01,2013-01-10 07:54:00,
2013-01-10 02:55:00,48.3,47.5,30.44,NNE,21,0.0,0.0,97,0.00,,---,0.00,0.00,VWS V14.01,2013-01-10 07:55:00,
2013-01-10 02:56:00,48.3,47.5,30.44,NNE,21,0.0,0.0,97,0.00,,---,0.00,0.00,VWS V14.01,2013-01-10 07:56:00,
2013-01-10 02:57:00,48.3,47.5,30.44,NNE,21,0.0,0.0,97,0.00,,---,0.00,0.00,VWS V14.01,2013-01-10 07:57:00,
2013-01-10 02:58:00,48.3,47.5,30.44,NNE,21,0.0,0.0,97,0.00,,---,0.00,0.00,VWS V14.01,2013-01-10 07:58:00,
2013-01-10 02:59:00,48.4,47.6,30.44,NNE,21,0.0,0.0,97,0.00,,---,0.00,0.00,VWS V14.01,2013-01-10 07:59:00,
2013-01-10 03:00:00,48.4,47.6,30.44,NNE,21,0.0,0.0,97,0.00,,---,0.00,0.00,VWS V14.01,2013-01-10 08:00:00,
2013-01-10 03:01:00,48.2,47.4,30.44,NNE,21,0.0,0.0,97,0.00,,---,0.00,0.00,VWS V14.01,2013-01-10 08:01:00,
2013-01-10 03:02:00,48.5,47.7,30.44,NNE,21,0.0,0.0,97,0.00,,---,0.00,0.00,VWS V14.01,2013-01-10 08:02:00,
2013-01-10 03:03:00,48.5,47.7,30.44,NNE,21,0.0,0.0,97,0.00,,---,0.00,0.00,VWS V14.01,2013-01-10 08:03:00,
2013-01-10 03:04:00,48.5,47.7,30.43,NNE,21,0.0,0.0,97,0.00,,---,0.00,0.00,VWS V14.01,2013-01-10 08:04:00,
2013-01-10 03:05:00,48.5,47.7,30.43,NNE,21,1.0,2.0,97,0.00,,---,0.00,0.00,VWS V14.01,2013-01-10 08:05:00,
2013-01-10 03:06:00,48.5,47.7,30.43,NNE,21,0.0,2.0,97,0.00,,---,0.00,0.00,VWS V14.01,2013-01-10 08:06:00,
2013-01-10 03:07:00,48.4,47.6,30.44,NNE,21,0.0,0.0,97,0.00,,---,0.00,0.00,VWS V14.01,2013-01-10 08:07:00,
2013-01-10 03:08:00,48.5,47.7,30.44,NNE,21,0.0,2.0,97,0.00,,---,0.00,0.00,VWS V14.01,2013-01-10 08:08:00,
2013-01-10 03:09:00,48.5,47.7,30.44,NNE,21,0.0,2.0,97,0.00,,---,0.00,0.00,VWS V14.01,2013-01-10 08:09:00,
2013-01-10 03:10:00,48.4,47.6,30.43,NNE,21,0.0,0.0,97,0.00,,---,0.00,0.00,VWS V14.01,2013-01-10 08:10:00,
2013-01-10 03:11:00,48.3,47.5,30.44,NNE,21,0.0,0.0,97,0.00,,---,0.00,0.00,VWS V14.01,2013-01-10 08:11:00,
2013-01-10 03:12:00,48.5,47.7,30.44,NNE,21,0.0,0.0,97,0.00,,---,0.00,0.00,VWS V14.01,2013-01-10 08:12:00,
2013-01-10 03:19:00,48.4,47.6,30.44,NNE,21,0.0,2.0,97,0.00,,---,0.00,0.00,VWS V14.01,2013-01-10 08:19:00,
2013-01-10 03:29:00,47.5,46.4,30.43,NNE,21,0.0,0.0,96,0.00,,---,0.00,0.00,VWS V14.01,2013-01-10 08:29:00,
2013-01-10 03:30:00,47.5,46.4,30.43,NNE,21,0.0,0.0,96,0.00,,---,0.00,0.00,VWS V14.01,2013-01-10 08:30:00,
2013-01-10 03:31:00,47.4,46.3,30.43,NNE,21,0.0,0.0,96,0.00,,---,0.00,0.00,VWS V14.01,2013-01-10 08:31:00,
2013-01-10 03:32:00,47.4,46.3,30.43,NNE,21,0.0,0.0,96,0.00,,---,0.00,0.00,VWS V14.01,2013-01-10 08:32:00,
2013-01-10 03:33:00,47.4,46.3,30.42,NNE,21,0.0,0.0,96,0.00,,---,0.00,0.00,VWS V14.01,2013-01-10 08:33:00,
2013-01-10 03:34:00,47.4,46.3,30.43,NNE,21,0.0,0.0,96,0.00,,---,0.00,0.00,VWS V14.01,2013-01-10 08:34:00,
2013-01-10 03:35:00,47.3,46.2,30.43,NNE,21,0.0,0.0,96,0.00,,---,0.00,0.00,VWS V14.01,2013-01-10 08:35:00,
2013-01-10 03:36:00,47.3,46.2,30.42,NNE,21,0.0,0.0,96,0.00,,---,0.00,0.00,VWS V14.01,2013-01-10 08:36:00,
2013-01-10 03:37:00,47.3,46.2,30.42,NNE,21,0.0,0.0,96,0.00,,---,0.00,0.00,VWS V14.01,2013-01-10 08:37:00,
2013-01-10 03:38:00,47.3,46.2,30.42,NNE,21,0.0,0.0,96,0.00,,---,0.00,0.00,VWS V14.01,2013-01-10 08:38:00,
2013-01-10 03:39:00,47.5,46.4,30.43,NNE,21,0.0,0.0,96,0.00,,---,0.00,0.00,VWS V14.01,2013-01-10 08:39:00,
2013-01-10 03:40:00,47.3,46.2,30.42,NNE,21,0.0,0.0,96,0.00,,---,0.00,0.00,VWS V14.01,2013-01-10 08:40:00,
2013-01-10 03:41:00,47.3,46.2,30.43,NNE,21,0.0,0.0,96,0.00,,---,0.00,0.00,VWS V14.01,2013-01-10 08:41:00,
2013-01-10 03:42:00,47.3,46.2,30.43,NNE,21,0.0,0.0,96,0.00,,---,0.00,0.00,VWS V14.01,2013-01-10 08:42:00,
2013-01-10 03:43:00,47.2,46.1,30.43,NNE,21,0.0,0.0,96,0.00,,---,0.00,0.00,VWS V14.01,2013-01-10 08:43:00,
2013-01-10 03:44:00,47.2,46.1,30.42,NNE,21,0.0,0.0,96,0.00,,---,0.00,0.00,VWS V14.01,2013-01-10 08:44:00,
2013-01-10 03:45:00,47.3,46.2,30.43,NNE,21,0.0,0.0,96,0.00,,---,0.00,0.00,VWS V14.01,2013-01-10 08:45:00,
2013-01-10 03:46:00,47.2,46.1,30.42,NNE,21,0.0,0.0,96,0.00,,---,0.00,0.00,VWS V14.01,2013-01-10 08:46:00,
2013-01-10 03:47:00,47.2,46.1,30.42,NNE,21,0.0,0.0,96,0.00,,---,0.00,0.00,VWS V14.01,2013-01-10 08:47:00,
2013-01-10 03:48:00,47.2,46.1,30.42,NNE,21,0.0,0.0,96,0.00,,---,0.00,0.00,VWS V14.01,2013-01-10 08:48:00,
2013-01-10 03:49:00,47.2,46.1,30.42,NNE,21,0.0,0.0,96,0.00,,---,0.00,0.00,VWS V14.01,2013-01-10 08:49:00,
2013-01-10 03:50:00,47.2,46.1,30.42,NNE,21,0.0,0.0,96,0.00,,---,0.00,0.00,VWS V14.01,2013-01-10 08:50:00,
2013-01-10 03:51:00,47.1,46.0,30.42,NNE,21,0.0,0.0,96,0.00,,---,0.00,0.00,VWS V14.01,2013-01-10 08:51:00,
2013-01-10 03:52:00,47.1,46.0,30.42,NNE,21,0.0,0.0,96,0.00,,---,0.00,0.00,VWS V14.01,2013-01-10 08:52:00,
2013-01-10 03:53:00,47.2,46.1,30.43,NNE,21,0.0,0.0,96,0.00,,---,0.00,0.00,VWS V14.01,2013-01-10 08:53:00,
2013-01-10 03:54:00,47.0,45.9,30.42,NNE,21,0.0,0.0,96,0.00,,---,0.00,0.00,VWS V14.01,2013-01-10 08:54:00,
2013-01-10 03:55:00,47.0,45.9,30.42,NNE,21,0.0,0.0,96,0.00,,---,0.00,0.00,VWS V14.01,2013-01-10 08:55:00,
2013-01-10 03:56:00,47.0,45.9,30.42,NNE,21,0.0,0.0,96,0.00,,---,0.00,0.00,VWS V14.01,2013-01-10 08:56:00,
2013-01-10 03:57:00,46.9,45.8,30.42,NNE,21,0.0,0.0,96,0.00,,---,0.00,0.00,VWS V14.01,2013-01-10 08:57:00,
2013-01-10 03:58:00,47.0,45.9,30.42,NNE,21,0.0,0.0,96,0.00,,---,0.00,0.00,VWS V14.01,2013-01-10 08:58:00,
2013-01-10 03:59:00,47.2,46.1,30.42,NNE,21,0.0,0.0,96,0.00,,---,0.00,0.00,VWS V14.01,2013-01-10 08:59:00,
2013-01-10 04:00:00,46.9,45.8,30.42,NNE,21,0.0,0.0,96,0.00,,---,0.00,0.00,VWS V14.01,2013-01-10 09:00:00,
2013-01-10 04:01:00,46.8,45.7,30.42,NNE,21,0.0,0.0,96,0.00,,---,0.00,0.00,VWS V14.01,2013-01-10 09:01:00,
2013-01-10 04:02:00,46.7,45.6,30.42,NNE,21,0.0,0.0,96,0.00,,---,0.00,0.00,VWS V14.01,2013-01-10 09:02:00,
2013-01-10 04:03:00,46.7,45.6,30.42,NNE,21,0.0,0.0,96,0.00,,---,0.00,0.00,VWS V14.01,2013-01-10 09:03:00,
2013-01-10 04:04:00,46.7,45.6,30.42,NNE,21,0.0,0.0,96,0.00,,---,0.00,0.00,VWS V14.01,2013-01-10 09:04:00,
2013-01-10 04:05:00,46.6,45.5,30.42,NNE,21,0.0,0.0,96,0.00,,---,0.00,0.00,VWS V14.01,2013-01-10 09:05:00,
2013-01-10 04:06:00,46.7,45.6,30.42,NNE,21,0.0,0.0,96,0.00,,---,0.00,0.00,VWS V14.01,2013-01-10 09:06:00,
2013-01-10 04:07:00,46.6,45.5,30.42,NNE,21,0.0,0.0,96,0.00,,---,0.00,0.00,VWS V14.01,2013-01-10 09:07:00,
2013-01-10 04:08:00,46.9,45.8,30.42,NNE,21,0.0,0.0,96,0.00,,---,0.00,0.00,VWS V14.01,2013-01-10 09:08:00,
2013-01-10 04:09:00,46.6,45.5,30.42,NNE,21,0.0,0.0,96,0.00,,---,0.00,0.00,VWS V14.01,2013-01-10 09:09:00,
2013-01-10 04:10:00,46.6,45.5,30.42,NNE,21,0.0,0.0,96,0.00,,---,0.00,0.00,VWS V14.01,2013-01-10 09:10:00,
2013-01-10 04:11:00,46.6,45.5,30.42,NNE,21,0.0,0.0,96,0.00,,---,0.00,0.00,VWS V14.01,2013-01-10 09:11:00,
2013-01-10 04:12:00,46.5,45.4,30.42,NNE,21,0.0,0.0,96,0.00,,---,0.00,0.00,VWS V14.01,2013-01-10 09:12:00,
2013-01-10 04:13:00,46.5,45.4,30.42,NNE,21,0.0,0.0,96,0.00,,---,0.00,0.00,VWS V14.01,2013-01-10 09:13:00,
2013-01-10 04:14:00,46.5,45.4,30.42,NNE,21,0.0,0.0,96,0.00,,---,0.00,0.00,VWS V14.01,2013-01-10 09:14:00,
2013-01-10 04:15:00,46.5,45.4,30.43,NNE,21,0.0,0.0,96,0.00,,---,0.00,0.00,VWS V14.01,2013-01-10 09:15:00,
2013-01-10 04:16:00,46.5,45.4,30.43,NNE,21,0.0,0.0,96,0.00,,---,0.00,0.00,VWS V14.01,2013-01-10 09:16:00,
2013-01-10 04:17:00,46.5,45.4,30.43,NNE,21,0.0,0.0,96,0.00,,---,0.00,0.00,VWS V14.01,2013-01-10 09:17:00,
2013-01-10 04:18:00,46.6,45.5,30.42,NNE,21,0.0,0.0,96,0.00,,---,0.00,0.00,VWS V14.01,2013-01-10 09:18:00,
2013-01-10 04:19:00,46.6,45.5,30.43,NNE,21,0.0,0.0,96,0.00,,---,0.00,0.00,VWS V14.01,2013-01-10 09:19:00,
2013-01-10 04:20:00,46.6,45.5,30.42,NNE,21,0.0,0.0,96,0.00,,---,0.00,0.00,VWS V14.01,2013-01-10 09:20:00,
2013-01-10 04:21:00,46.7,45.6,30.43,NNE,21,0.0,0.0,96,0.00,,---,0.00,0.00,VWS V14.01,2013-01-10 09:21:00,
2013-01-10 04:22:00,46.7,45.6,30.42,NNE,21,0.0,0.0,96,0.00,,---,0.00,0.00,VWS V14.01,2013-01-10 09:22:00,
2013-01-10 04:23:00,46.5,45.4,30.42,NNE,21,0.0,0.0,96,0.00,,---,0.00,0.00,VWS V14.01,2013-01-10 09:23:00,
2013-01-10 04:24:00,46.8,45.7,30.42,NNE,21,0.0,0.0,96,0.00,,---,0.00,0.00,VWS V14.01,2013-01-10 09:24:00,
2013-01-10 04:25:00,46.8,45.7,30.43,NNE,21,0.0,0.0,96,0.00,,---,0.00,0.00,VWS V14.01,2013-01-10 09:25:00,
2013-01-10 04:26:00,46.7,45.6,30.42,NNE,21,0.0,0.0,96,0.00,,---,0.00,0.00,VWS V14.01,2013-01-10 09:26:00,
2013-01-10 04:27:00,46.7,45.6,30.42,NNE,21,0.0,0.0,96,0.00,,---,0.00,0.00,VWS V14.01,2013-01-10 09:27:00,
2013-01-10 04:28:00,46.5,45.4,30.43,NNE,21,0.0,0.0,96,0.00,,---,0.00,0.00,VWS V14.01,2013-01-10 09:28:00,
2013-01-10 04:29:00,46.6,45.5,30.42,NNE,21,0.0,0.0,96,0.00,,---,0.00,0.00,VWS V14.01,2013-01-10 09:29:00,
2013-01-10 04:30:00,46.6,45.5,30.43,NNE,21,0.0,0.0,96,0.00,,---,0.00,0.00,VWS V14.01,2013-01-10 09:30:00,
2013-01-10 04:31:00,46.7,45.6,30.43,NNE,21,0.0,0.0,96,0.00,,---,0.00,0.00,VWS V14.01,2013-01-10 09:31:00,
2013-01-10 04:32:00,46.7,45.6,30.43,NNE,21,0.0,0.0,96,0.00,,---,0.00,0.00,VWS V14.01,2013-01-10 09:32:00,
2013-01-10 04:33:00,46.8,45.7,30.43,NNE,21,0.0,0.0,96,0.00,,---,0.00,0.00,VWS V14.01,2013-01-10 09:33:00,
2013-01-10 04:34:00,46.8,45.7,30.42,NNE,21,0.0,0.0,96,0.00,,---,0.00,0.00,VWS V14.01,2013-01-10 09:34:00,
2013-01-10 04:35:00,46.8,46.0,30.42,NNE,21,0.0,0.0,97,0.00,,---,0.00,0.00,VWS V14.01,2013-01-10 09:35:00,
2013-01-10 04:36:00,46.8,46.0,30.42,NNE,21,0.0,0.0,97,0.00,,---,0.00,0.00,VWS V14.01,2013-01-10 09:36:00,
2013-01-10 04:37:00,46.8,46.0,30.42,NNE,21,0.0,0.0,97,0.00,,---,0.00,0.00,VWS V14.01,2013-01-10 09:37:00,
2013-01-10 04:38:00,46.8,45.7,30.42,NNE,21,0.0,0.0,96,0.00,,---,0.00,0.00,VWS V14.01,2013-01-10 09:38:00,
2013-01-10 04:39:00,46.6,45.5,30.42,NNE,21,0.0,0.0,96,0.00,,---,0.00,0.00,VWS V14.01,2013-01-10 09:39:00,
2013-01-10 04:40:00,46.7,45.6,30.42,NNE,21,0.0,0.0,96,0.00,,---,0.00,0.00,VWS V14.01,2013-01-10 09:40:00,
2013-01-10 04:41:00,46.7,45.6,30.43,NNE,21,0.0,0.0,96,0.00,,---,0.00,0.00,VWS V14.01,2013-01-10 09:41:00,
2013-01-10 04:42:00,46.7,45.6,30.42,NNE,21,0.0,0.0,96,0.00,,---,0.00,0.00,VWS V14.01,2013-01-10 09:42:00,
2013-01-10 04:43:00,46.6,45.5,30.42,NNE,21,0.0,0.0,96,0.00,,---,0.00,0.00,VWS V14.01,2013-01-10 09:43:00,
2013-01-10 04:44:00,46.6,45.5,30.42,NNE,21,0.0,0.0,96,0.00,,---,0.00,0.00,VWS V14.01,2013-01-10 09:44:00,
2013-01-10 04:45:00,46.5,45.4,30.42,NNE,21,0.0,0.0,96,0.00,,---,0.00,0.00,VWS V14.01,2013-01-10 09:45:00,
2013-01-10 04:46:00,46.5,45.4,30.42,NNE,21,0.0,0.0,96,0.00,,---,0.00,0.00,VWS V14.01,2013-01-10 09:46:00,
2013-01-10 04:47:00,46.5,45.4,30.42,NNE,21,0.0,0.0,96,0.00,,---,0.00,0.00,VWS V14.01,2013-01-10 09:47:00,
2013-01-10 04:48:00,46.8,45.7,30.42,NNE,21,0.0,0.0,96,0.00,,---,0.00,0.00,VWS V14.01,2013-01-10 09:48:00,
2013-01-10 04:49:00,46.4,45.3,30.42,NNE,21,0.0,0.0,96,0.00,,---,0.00,0.00,VWS V14.01,2013-01-10 09:49:00,
2013-01-10 04:50:00,46.5,45.4,30.42,NNE,21,0.0,0.0,96,0.00,,---,0.00,0.00,VWS V14.01,2013-01-10 09:50:00,
2013-01-10 04:51:00,46.6,45.5,30.42,NNE,21,0.0,0.0,96,0.00,,---,0.00,0.00,VWS V14.01,2013-01-10 09:51:00,
2013-01-10 04:52:00,46.7,45.9,30.42,NNE,21,0.0,0.0,97,0.00,,---,0.00,0.00,VWS V14.01,2013-01-10 09:52:00,
2013-01-10 04:53:00,46.6,45.5,30.42,NNE,21,0.0,0.0,96,0.00,,---,0.00,0.00,VWS V14.01,2013-01-10 09:53:00,
2013-01-10 04:54:00,46.7,45.9,30.42,NNE,21,0.0,0.0,97,0.00,,---,0.00,0.00,VWS V14.01,2013-01-10 09:54:00,
2013-01-10 04:55:00,46.7,45.9,30.42,NNE,22,0.0,1.0,97,0.00,,---,0.00,0.00,VWS V14.01,2013-01-10 09:55:00,
2013-01-10 04:56:00,46.7,45.9,30.42,NNE,21,0.0,1.0,97,0.00,,---,0.00,0.00,VWS V14.01,2013-01-10 09:56:00,
2013-01-10 04:57:00,46.8,46.0,30.42,NNE,21,0.0,1.0,97,0.00,,---,0.00,0.00,VWS V14.01,2013-01-10 09:57:00,
2013-01-10 04:58:00,46.9,46.1,30.42,NNE,21,0.0,1.0,97,0.00,,---,0.00,0.00,VWS V14.01,2013-01-10 09:58:00,
2013-01-10 04:59:00,46.5,45.4,30.42,NNE,21,0.0,0.0,96,0.00,,---,0.00,0.00,VWS V14.01,2013-01-10 09:59:00,
2013-01-10 05:00:00,47.0,46.2,30.41,NNE,21,1.0,1.0,97,0.00,,---,0.00,0.00,VWS V14.01,2013-01-10 10:00:00,
2013-01-10 05:01:00,47.1,46.3,30.42,NNE,21,0.0,2.0,97,0.00,,---,0.00,0.00,VWS V14.01,2013-01-10 10:01:00,
2013-01-10 05:02:00,47.2,46.4,30.42,NNE,21,0.0,2.0,97,0.00,,---,0.00,0.00,VWS V14.01,2013-01-10 10:02:00,
2013-01-10 05:03:00,47.2,46.4,30.41,NNE,21,0.0,2.0,97,0.00,,---,0.00,0.00,VWS V14.01,2013-01-10 10:03:00,
2013-01-10 05:04:00,47.2,46.4,30.41,NNE,21,0.0,2.0,97,0.00,,---,0.00,0.00,VWS V14.01,2013-01-10 10:04:00,
2013-01-10 05:05:00,47.2,46.4,30.42,NNE,22,0.0,2.0,97,0.00,,---,0.00,0.00,VWS V14.01,2013-01-10 10:05:00,
2013-01-10 05:06:00,47.3,46.5,30.41,NNE,21,0.0,2.0,97,0.00,,---,0.00,0.00,VWS V14.01,2013-01-10 10:06:00,
2013-01-10 05:07:00,47.3,46.5,30.41,NNE,21,0.0,2.0,97,0.00,,---,0.00,0.00,VWS V14.01,2013-01-10 10:07:00,
2013-01-10 05:08:00,47.2,46.4,30.41,NNE,21,0.0,2.0,97,0.00,,---,0.00,0.00,VWS V14.01,2013-01-10 10:08:00,
2013-01-10 05:09:00,47.0,46.2,30.42,NNE,21,0.0,1.0,97,0.00,,---,0.00,0.00,VWS V14.01,2013-01-10 10:09:00,
2013-01-10 05:10:00,47.2,46.4,30.41,NNE,21,0.0,0.0,97,0.00,,---,0.00,0.00,VWS V14.01,2013-01-10 10:10:00,
2013-01-10 05:11:00,47.0,46.2,30.41,NNE,21,0.0,0.0,97,0.00,,---,0.00,0.00,VWS V14.01,2013-01-10 10:11:00,
2013-01-10 05:12:00,47.0,46.2,30.41,NNE,21,0.0,0.0,97,0.00,,---,0.00,0.00,VWS V14.01,2013-01-10 10:12:00,
2013-01-10 05:13:00,46.9,46.1,30.41,NNE,21,0.0,1.0,97,0.00,,---,0.00,0.00,VWS V14.01,2013-01-10 10:13:00,
2013-01-10 05:14:00,46.9,46.1,30.40,NNE,21,1.0,1.0,97,0.00,,---,0.00,0.00,VWS V14.01,2013-01-10 10:14:00,
2013-01-10 05:15:00,47.2,46.4,30.42,NNE,21,0.0,2.0,97,0.00,,---,0.00,0.00,VWS V14.01,2013-01-10 10:15:00,
2013-01-10 05:16:00,47.0,46.2,30.41,NNE,21,0.0,1.0,97,0.00,,---,0.00,0.00,VWS V14.01,2013-01-10 10:16:00,
2013-01-10 05:17:00,47.0,46.2,30.40,NNE,22,0.0,1.0,97,0.00,,---,0.00,0.00,VWS V14.01,2013-01-10 10:17:00,
2013-01-10 05:18:00,47.0,46.2,30.40,NNE,21,0.0,1.0,97,0.00,,---,0.00,0.00,VWS V14.01,2013-01-10 10:18:00,
2013-01-10 05:19:00,47.2,46.4,30.41,NNE,21,0.0,2.0,97,0.00,,---,0.00,0.00,VWS V14.01,2013-01-10 10:19:00,
2013-01-10 05:20:00,47.0,46.2,30.40,NNE,21,0.0,0.0,97,0.00,,---,0.00,0.00,VWS V14.01,2013-01-10 10:20:00,
2013-01-10 05:21:00,47.0,46.2,30.40,NNE,21,0.0,0.0,97,0.00,,---,0.00,0.00,VWS V14.01,2013-01-10 10:21:00,
2013-01-10 05:22:00,46.9,46.1,30.41,NNE,21,0.0,0.0,97,0.00,,---,0.00,0.00,VWS V14.01,2013-01-10 10:22:00,
2013-01-10 05:23:00,46.9,45.8,30.40,NNE,21,0.0,0.0,96,0.00,,---,0.00,0.00,VWS V14.01,2013-01-10 10:23:00,
2013-01-10 05:24:00,46.8,45.7,30.40,NNE,22,0.0,0.0,96,0.00,,---,0.00,0.00,VWS V14.01,2013-01-10 10:24:00,
2013-01-10 05:25:00,46.7,45.6,30.41,NNE,21,0.0,0.0,96,0.00,,---,0.00,0.00,VWS V14.01,2013-01-10 10:25:00,
2013-01-10 05:26:00,46.7,45.6,30.41,NNE,21,0.0,0.0,96,0.00,,---,0.00,0.00,VWS V14.01,2013-01-10 10:26:00,
2013-01-10 05:27:00,46.7,45.6,30.41,NNE,21,0.0,0.0,96,0.00,,---,0.00,0.00,VWS V14.01,2013-01-10 10:27:00,
2013-01-10 05:28:00,46.7,45.6,30.41,NNE,21,0.0,0.0,96,0.00,,---,0.00,0.00,VWS V14.01,2013-01-10 10:28:00,
2013-01-10 05:29:00,47.0,46.2,30.40,NNE,21,0.0,1.0,97,0.00,,---,0.00,0.00,VWS V14.01,2013-01-10 10:29:00,
2013-01-10 05:30:00,46.5,45.4,30.41,NNE,22,0.0,0.0,96,0.00,,---,0.00,0.00,VWS V14.01,2013-01-10 10:30:00,
2013-01-10 05:31:00,46.4,45.3,30.41,NNE,21,0.0,0.0,96,0.00,,---,0.00,0.00,VWS V14.01,2013-01-10 10:31:00,
2013-01-10 05:32:00,46.3,45.2,30.41,NNE,21,0.0,0.0,96,0.00,,---,0.00,0.00,VWS V14.01,2013-01-10 10:32:00,
2013-01-10 05:33:00,46.2,45.1,30.41,NNE,21,0.0,0.0,96,0.00,,---,0.00,0.00,VWS V14.01,2013-01-10 10:33:00,
2013-01-10 05:34:00,46.2,45.1,30.41,NNE,21,0.0,0.0,96,0.00,,---,0.00,0.00,VWS V14.01,2013-01-10 10:34:00,
2013-01-10 05:35:00,46.2,45.1,30.41,NNE,21,0.0,0.0,96,0.00,,---,0.00,0.00,VWS V14.01,2013-01-10 10:35:00,
2013-01-10 05:36:00,46.7,45.6,30.41,NNE,22,0.0,0.0,96,0.00,,---,0.00,0.00,VWS V14.01,2013-01-10 10:36:00,
2013-01-10 05:37:00,46.2,45.1,30.41,NNE,21,0.0,0.0,96,0.00,,---,0.00,0.00,VWS V14.01,2013-01-10 10:37:00,
2013-01-10 05:38:00,46.2,45.1,30.41,NNE,21,0.0,0.0,96,0.00,,---,0.00,0.00,VWS V14.01,2013-01-10 10:38:00,
2013-01-10 05:39:00,46.2,45.1,30.41,NNE,21,0.0,0.0,96,0.00,,---,0.00,0.00,VWS V14.01,2013-01-10 10:39:00,
2013-01-10 05:40:00,46.1,45.0,30.41,NNE,21,0.0,0.0,96,0.00,,---,0.00,0.00,VWS V14.01,2013-01-10 10:40:00,
2013-01-10 05:41:00,46.4,45.3,30.41,NNE,21,0.0,0.0,96,0.00,,---,0.00,0.00,VWS V14.01,2013-01-10 10:41:00,
2013-01-10 05:42:00,46.0,44.9,30.41,NNE,21,0.0,0.0,96,0.00,,---,0.00,0.00,VWS V14.01,2013-01-10 10:42:00,
2013-01-10 05:43:00,46.0,44.9,30.41,NNE,21,0.0,0.0,96,0.00,,---,0.00,0.00,VWS V14.01,2013-01-10 10:43:00,
2013-01-10 05:44:00,46.0,44.9,30.41,NNE,21,0.0,0.0,96,0.00,,---,0.00,0.00,VWS V14.01,2013-01-10 10:44:00,
2013-01-10 05:45:00,46.1,45.0,30.41,NNE,21,0.0,0.0,96,0.00,,---,0.00,0.00,VWS V14.01,2013-01-10 10:45:00,
2013-01-10 05:46:00,46.1,45.0,30.41,NNE,21,0.0,0.0,96,0.00,,---,0.00,0.00,VWS V14.01,2013-01-10 10:46:00,
2013-01-10 05:47:00,46.1,45.0,30.40,NNE,21,0.0,0.0,96,0.00,,---,0.00,0.00,VWS V14.01,2013-01-10 10:47:00,
2013-01-10 05:48:00,46.1,45.0,30.41,NNE,21,0.0,0.0,96,0.00,,---,0.00,0.00,VWS V14.01,2013-01-10 10:48:00,
2013-01-10 05:49:00,46.1,45.0,30.41,NNE,21,0.0,0.0,96,0.00,,---,0.00,0.00,VWS V14.01,2013-01-10 10:49:00,
2013-01-10 05:50:00,46.3,45.2,30.41,NNE,21,0.0,0.0,96,0.00,,---,0.00,0.00,VWS V14.01,2013-01-10 10:50:00,
2013-01-10 05:51:00,46.3,45.5,30.41,NNE,21,0.0,1.0,97,0.00,,---,0.00,0.00,VWS V14.01,2013-01-10 10:51:00,
2013-01-10 05:52:00,46.4,45.6,30.41,NNE,21,0.0,1.0,97,0.00,,---,0.00,0.00,VWS V14.01,2013-01-10 10:52:00,
2013-01-10 05:53:00,46.5,45.7,30.41,NNE,21,0.0,1.0,97,0.00,,---,0.00,0.00,VWS V14.01,2013-01-10 10:53:00,
2013-01-10 05:54:00,46.1,45.0,30.41,NNE,21,0.0,0.0,96,0.00,,---,0.00,0.00,VWS V14.01,2013-01-10 10:54:00,
2013-01-10 05:55:00,46.6,45.8,30.41,NNE,21,0.0,1.0,97,0.00,,---,0.00,0.00,VWS V14.01,2013-01-10 10:55:00,
2013-01-10 05:56:00,46.5,45.7,30.41,NNE,21,0.0,1.0,97,0.00,,---,0.00,0.00,VWS V14.01,2013-01-10 10:56:00,
2013-01-10 05:57:00,46.5,45.7,30.41,NNE,21,0.0,1.0,97,0.00,,---,0.00,0.00,VWS V14.01,2013-01-10 10:57:00,
2013-01-10 05:58:00,46.4,45.6,30.41,NNE,21,0.0,1.0,97,0.00,,---,0.00,0.00,VWS V14.01,2013-01-10 10:58:00,
2013-01-10 05:59:00,46.2,45.1,30.41,NNE,21,0.0,0.0,96,0.00,,---,0.00,0.00,VWS V14.01,2013-01-10 10:59:00,
2013-01-10 06:00:00,46.4,45.6,30.41,NNE,21,0.0,0.0,97,0.00,,---,0.00,0.00,VWS V14.01,2013-01-10 11:00:00,
2013-01-10 06:01:00,46.4,45.3,30.41,NNE,21,0.0,0.0,96,0.00,,---,0.00,0.00,VWS V14.01,2013-01-10 11:01:00,
2013-01-10 06:02:00,46.4,45.3,30.41,NNE,21,0.0,1.0,96,0.00,,---,0.00,0.00,VWS V14.01,2013-01-10 11:02:00,
2013-01-10 06:03:00,46.4,45.3,30.41,NNE,21,0.0,1.0,96,0.00,,---,0.00,0.00,VWS V14.01,2013-01-10 11:03:00,
2013-01-10 06:04:00,46.4,45.3,30.41,NNE,21,0.0,1.0,96,0.00,,---,0.00,0.00,VWS V14.01,2013-01-10 11:04:00,
2013-01-10 06:05:00,46.4,45.6,30.41,NNE,21,0.0,1.0,97,0.00,,---,0.00,0.00,VWS V14.01,2013-01-10 11:05:00,
2013-01-10 06:06:00,46.4,45.6,30.41,NNE,21,1.0,1.0,97,0.00,,---,0.00,0.00,VWS V14.01,2013-01-10 11:06:00,
2013-01-10 06:07:00,46.5,45.7,30.41,NNE,22,0.0,1.0,97,0.00,,---,0.00,0.00,VWS V14.01,2013-01-10 11:07:00,
2013-01-10 06:08:00,46.5,45.7,30.41,NNE,22,0.0,1.0,97,0.00,,---,0.00,0.00,VWS V14.01,2013-01-10 11:08:00,
2013-01-10 06:09:00,46.5,45.7,30.41,NNE,21,0.0,1.0,97,0.00,,---,0.00,0.00,VWS V14.01,2013-01-10 11:09:00,
2013-01-10 06:10:00,46.5,45.7,30.41,NNE,21,0.0,0.0,97,0.00,,---,0.00,0.00,VWS V14.01,2013-01-10 11:10:00,
2013-01-10 06:11:00,46.5,45.7,30.41,NNE,21,0.0,1.0,97,0.00,,---,0.00,0.00,VWS V14.01,2013-01-10 11:11:00,
2013-01-10 06:12:00,46.4,45.6,30.41,NNE,21,0.0,1.0,97,0.00,,---,0.00,0.00,VWS V14.01,2013-01-10 11:12:00,
2013-01-10 06:13:00,46.4,45.6,30.41,NNE,21,0.0,1.0,97,0.00,,---,0.00,0.00,VWS V14.01,2013-01-10 11:13:00,
2013-01-10 06:14:00,46.4,45.6,30.41,NNE,21,0.0,1.0,97,0.00,,---,0.00,0.00,VWS V14.01,2013-01-10 11:14:00,
2013-01-10 06:15:00,46.4,45.6,30.41,NNE,21,0.0,1.0,97,0.00,,---,0.00,0.00,VWS V14.01,2013-01-10 11:15:00,
2013-01-10 06:16:00,46.4,45.6,30.41,NNE,21,0.0,1.0,97,0.00,,---,0.00,0.00,VWS V14.01,2013-01-10 11:16:00,
2013-01-10 06:17:00,46.4,45.6,30.41,NNE,21,0.0,1.0,97,0.00,,---,0.00,0.00,VWS V14.01,2013-01-10 11:17:00,
2013-01-10 06:18:00,46.4,45.6,30.41,NNE,21,0.0,1.0,97,0.00,,---,0.00,0.00,VWS V14.01,2013-01-10 11:18:00,
2013-01-10 06:19:00,46.4,45.6,30.41,NNE,21,0.0,1.0,97,0.00,,---,0.00,0.00,VWS V14.01,2013-01-10 11:19:00,
2013-01-10 06:20:00,46.5,45.7,30.41,NNE,21,0.0,0.0,97,0.00,,---,0.00,0.00,VWS V14.01,2013-01-10 11:20:00,
2013-01-10 06:21:00,46.5,45.7,30.41,NNE,21,0.0,1.0,97,0.00,,---,0.00,0.00,VWS V14.01,2013-01-10 11:21:00,
2013-01-10 06:22:00,46.5,45.7,30.41,NNE,21,0.0,0.0,97,0.00,,---,0.00,0.00,VWS V14.01,2013-01-10 11:22:00,
2013-01-10 06:23:00,46.5,45.7,30.41,NNE,21,0.0,0.0,97,0.00,,---,0.00,0.00,VWS V14.01,2013-01-10 11:23:00,
2013-01-10 06:24:00,46.5,45.7,30.41,NNE,21,0.0,0.0,97,0.00,,---,0.00,0.00,VWS V14.01,2013-01-10 11:24:00,
2013-01-10 06:25:00,46.5,45.7,30.41,NNE,21,0.0,0.0,97,0.00,,---,0.00,0.00,VWS V14.01,2013-01-10 11:25:00,
2013-01-10 06:26:00,46.4,45.6,30.41,NNE,21,0.0,1.0,97,0.00,,---,0.00,0.00,VWS V14.01,2013-01-10 11:26:00,
2013-01-10 06:27:00,46.5,45.7,30.41,NNE,21,0.0,0.0,97,0.00,,---,0.00,0.00,VWS V14.01,2013-01-10 11:27:00,
2013-01-10 06:28:00,46.5,45.7,30.42,NNE,21,0.0,0.0,97,0.00,,---,0.00,0.00,VWS V14.01,2013-01-10 11:28:00,
2013-01-10 06:29:00,46.5,45.7,30.42,NNE,21,0.0,0.0,97,0.00,,---,0.00,0.00,VWS V14.01,2013-01-10 11:29:00,
2013-01-10 06:30:00,46.6,45.8,30.42,NNE,22,0.0,0.0,97,0.00,,---,0.00,0.00,VWS V14.01,2013-01-10 11:30:00,
2013-01-10 06:31:00,46.5,45.7,30.41,NNE,21,0.0,0.0,97,0.00,,---,0.00,0.00,VWS V14.01,2013-01-10 11:31:00,
2013-01-10 06:32:00,46.6,45.8,30.42,NNE,21,0.0,0.0,97,0.00,,---,0.00,0.00,VWS V14.01,2013-01-10 11:32:00,
2013-01-10 06:33:00,46.6,45.8,30.42,NNE,21,0.0,0.0,97,0.00,,---,0.00,0.00,VWS V14.01,2013-01-10 11:33:00,
2013-01-10 06:34:00,46.6,45.8,30.42,NNE,21,0.0,0.0,97,0.00,,---,0.00,0.00,VWS V14.01,2013-01-10 11:34:00,
2013-01-10 06:35:00,46.5,45.7,30.42,NNE,21,0.0,0.0,97,0.00,,---,0.00,0.00,VWS V14.01,2013-01-10 11:35:00,
2013-01-10 06:36:00,46.5,45.7,30.42,NNE,22,0.0,0.0,97,0.00,,---,0.00,0.00,VWS V14.01,2013-01-10 11:36:00,
2013-01-10 06:37:00,46.5,45.7,30.41,NNE,21,0.0,0.0,97,0.00,,---,0.00,0.00,VWS V14.01,2013-01-10 11:37:00,
2013-01-10 06:38:00,46.4,45.6,30.42,NNE,21,0.0,0.0,97,0.00,,---,0.00,0.00,VWS V14.01,2013-01-10 11:38:00,
2013-01-10 06:39:00,46.4,45.6,30.42,NNE,21,0.0,0.0,97,0.00,,---,0.00,0.00,VWS V14.01,2013-01-10 11:39:00,
2013-01-10 06:40:00,46.4,45.6,30.43,NNE,22,0.0,0.0,97,0.00,,---,0.00,0.00,VWS V14.01,2013-01-10 11:40:00,
2013-01-10 06:41:00,46.4,45.6,30.42,NNE,21,0.0,0.0,97,0.00,,---,0.00,0.00,VWS V14.01,2013-01-10 11:41:00,
2013-01-10 06:42:00,46.6,45.8,30.42,NNE,22,0.0,0.0,97,0.00,,---,0.00,0.00,VWS V14.01,2013-01-10 11:42:00,
2013-01-10 06:43:00,46.3,45.5,30.42,NNE,21,0.0,0.0,97,0.00,,---,0.00,0.00,VWS V14.01,2013-01-10 11:43:00,
2013-01-10 06:44:00,46.3,45.5,30.42,NNE,22,0.0,0.0,97,0.00,,---,0.00,0.00,VWS V14.01,2013-01-10 11:44:00,
2013-01-10 06:45:00,46.3,45.5,30.42,NNE,21,0.0,0.0,97,0.00,,---,0.00,0.00,VWS V14.01,2013-01-10 11:45:00,
2013-01-10 06:46:00,46.3,45.2,30.42,NNE,21,0.0,0.0,96,0.00,,---,0.00,0.00,VWS V14.01,2013-01-10 11:46:00,
2013-01-10 06:47:00,46.3,45.2,30.42,NNE,21,0.0,0.0,96,0.00,,---,0.00,0.00,VWS V14.01,2013-01-10 11:47:00,
2013-01-10 06:48:00,46.5,45.7,30.42,NNE,22,0.0,0.0,97,0.00,,---,0.00,0.00,VWS V14.01,2013-01-10 11:48:00,
2013-01-10 06:49:00,46.1,45.0,30.42,NNE,21,0.0,0.0,96,0.00,,---,0.00,0.00,VWS V14.01,2013-01-10 11:49:00,
2013-01-10 06:50:00,46.1,45.0,30.42,NNE,22,0.0,0.0,96,0.00,,---,0.00,0.00,VWS V14.01,2013-01-10 11:50:00,
2013-01-10 06:51:00,46.1,45.0,30.42,NNE,21,0.0,0.0,96,0.00,,---,0.00,0.00,VWS V14.01,2013-01-10 11:51:00,
2013-01-10 06:52:00,46.1,45.0,30.42,NNE,21,0.0,0.0,96,0.00,,---,0.00,0.00,VWS V14.01,2013-01-10 11:52:00,
2013-01-10 06:53:00,46.3,45.5,30.42,NNE,21,0.0,0.0,97,0.00,,---,0.00,0.00,VWS V14.01,2013-01-10 11:53:00,
2013-01-10 06:54:00,46.0,44.9,30.42,NNE,21,0.0,0.0,96,0.00,,---,0.00,0.00,VWS V14.01,2013-01-10 11:54:00,
2013-01-10 06:55:00,45.9,44.8,30.42,NNE,21,0.0,0.0,96,0.00,,---,0.00,0.00,VWS V14.01,2013-01-10 11:55:00,
2013-01-10 06:56:00,45.8,44.7,30.42,NNE,22,0.0,0.0,96,0.00,,---,0.00,0.00,VWS V14.01,2013-01-10 11:56:00,
2013-01-10 06:57:00,45.8,44.7,30.42,NNE,21,0.0,0.0,96,0.00,,---,0.00,0.00,VWS V14.01,2013-01-10 11:57:00,
2013-01-10 06:58:00,46.2,45.1,30.42,NNE,21,0.0,0.0,96,0.00,,---,0.00,0.00,VWS V14.01,2013-01-10 11:58:00,
2013-01-10 06:59:00,45.6,44.5,30.42,NNE,21,0.0,0.0,96,0.00,,---,0.00,0.00,VWS V14.01,2013-01-10 11:59:00,
2013-01-10 07:00:00,45.6,44.5,30.42,NNE,21,0.0,0.0,96,0.00,,---,0.00,0.00,VWS V14.01,2013-01-10 12:00:00,
2013-01-10 07:01:00,45.6,44.5,30.42,NNE,21,0.0,0.0,96,0.00,,---,0.00,0.00,VWS V14.01,2013-01-10 12:01:00,
2013-01-10 07:02:00,45.6,44.5,30.42,NNE,21,0.0,0.0,96,0.00,,---,0.00,0.00,VWS V14.01,2013-01-10 12:02:00,
2013-01-10 07:03:00,45.6,44.5,30.42,NNE,21,0.0,0.0,96,0.00,,---,0.00,0.00,VWS V14.01,2013-01-10 12:03:00,
2013-01-10 07:04:00,45.6,44.5,30.42,NNE,21,0.0,0.0,96,0.00,,---,0.00,0.00,VWS V14.01,2013-01-10 12:04:00,
2013-01-10 07:05:00,45.6,44.5,30.42,NNE,21,0.0,2.0,96,0.00,,---,0.00,0.00,VWS V14.01,2013-01-10 12:05:00,
2013-01-10 07:06:00,45.8,44.7,30.42,NNE,21,0.0,0.0,96,0.00,,---,0.00,0.00,VWS V14.01,2013-01-10 12:06:00,
2013-01-10 07:07:00,45.6,44.5,30.42,NNE,21,0.0,2.0,96,0.00,,---,0.00,0.00,VWS V14.01,2013-01-10 12:07:00,
2013-01-10 07:08:00,45.6,44.5,30.42,NNE,21,0.0,2.0,96,0.00,,---,0.00,0.00,VWS V14.01,2013-01-10 12:08:00,
2013-01-10 07:09:00,45.6,44.5,30.42,NNE,21,0.0,2.0,96,0.00,,---,0.00,0.00,VWS V14.01,2013-01-10 12:09:00,
2013-01-10 07:10:00,45.5,44.4,30.42,NNE,21,0.0,0.0,96,0.00,,---,0.00,0.00,VWS V14.01,2013-01-10 12:10:00,
2013-01-10 07:11:00,45.5,44.4,30.42,NNE,21,0.0,0.0,96,0.00,,---,0.00,0.00,VWS V14.01,2013-01-10 12:11:00,
2013-01-10 07:12:00,45.6,44.5,30.42,NNE,21,0.0,0.0,96,0.00,,---,0.00,0.00,VWS V14.01,2013-01-10 12:12:00,
2013-01-10 07:13:00,45.3,44.2,30.42,NNE,21,0.0,0.0,96,0.00,,---,0.00,0.00,VWS V14.01,2013-01-10 12:13:00,
2013-01-10 07:14:00,45.2,44.1,30.42,NNE,21,0.0,0.0,96,0.00,,---,0.00,0.00,VWS V14.01,2013-01-10 12:14:00,
2013-01-10 07:15:00,45.2,44.1,30.42,NNE,21,0.0,0.0,96,0.00,,---,0.00,0.00,VWS V14.01,2013-01-10 12:15:00,
2013-01-10 07:16:00,45.2,44.1,30.42,NNE,21,0.0,0.0,96,0.00,,---,0.00,0.00,VWS V14.01,2013-01-10 12:16:00,
2013-01-10 07:17:00,45.2,44.1,30.42,NNE,21,0.0,0.0,96,0.00,,---,0.00,0.00,VWS V14.01,2013-01-10 12:17:00,
2013-01-10 07:18:00,45.1,44.0,30.42,NNE,21,0.0,0.0,96,0.00,,---,0.00,0.00,VWS V14.01,2013-01-10 12:18:00,
2013-01-10 07:19:00,45.6,44.5,30.42,NNE,21,0.0,2.0,96,0.00,,---,0.00,0.00,VWS V14.01,2013-01-10 12:19:00,
2013-01-10 07:20:00,45.1,44.0,30.42,NNE,21,0.0,0.0,96,0.00,,---,0.00,0.00,VWS V14.01,2013-01-10 12:20:00,
2013-01-10 07:21:00,45.1,44.0,30.42,NNE,21,0.0,1.0,96,0.00,,---,0.00,0.00,VWS V14.01,2013-01-10 12:21:00,
2013-01-10 07:22:00,45.1,44.0,30.42,NNE,21,0.0,1.0,96,0.00,,---,0.00,0.00,VWS V14.01,2013-01-10 12:22:00,
2013-01-10 07:23:00,45.1,44.0,30.42,NNE,21,0.0,1.0,96,0.00,,---,0.00,0.00,VWS V14.01,2013-01-10 12:23:00,
2013-01-10 07:24:00,45.1,44.0,30.42,NNE,21,0.0,1.0,96,0.00,,---,0.00,0.00,VWS V14.01,2013-01-10 12:24:00,
2013-01-10 07:25:00,45.2,44.1,30.42,NNE,21,0.0,0.0,96,0.00,,---,0.00,0.00,VWS V14.01,2013-01-10 12:25:00,
2013-01-10 07:26:00,45.2,44.4,30.42,NNE,21,0.0,1.0,97,0.00,,---,0.00,0.00,VWS V14.01,2013-01-10 12:26:00,
2013-01-10 07:27:00,45.3,44.5,30.42,NNE,21,0.0,1.0,97,0.00,,---,0.00,0.00,VWS V14.01,2013-01-10 12:27:00,
2013-01-10 07:28:00,45.3,44.5,30.42,NNE,21,0.0,1.0,97,0.00,,---,0.00,0.00,VWS V14.01,2013-01-10 12:28:00,
2013-01-10 07:29:00,45.4,44.6,30.42,NNE,21,0.0,1.0,97,0.00,,---,0.00,0.00,VWS V14.01,2013-01-10 12:29:00,
2013-01-10 07:30:00,45.1,44.0,30.42,NNE,21,0.0,1.0,96,0.00,,---,0.00,0.00,VWS V14.01,2013-01-10 12:30:00,
2013-01-10 07:31:00,45.5,44.7,30.42,NNE,21,0.0,0.0,97,0.00,,---,0.00,0.00,VWS V14.01,2013-01-10 12:31:00,
2013-01-10 07:32:00,45.5,44.7,30.42,NNE,21,0.0,0.0,97,0.00,,---,0.00,0.00,VWS V14.01,2013-01-10 12:32:00,
2013-01-10 07:33:00,45.5,44.7,30.42,NNE,21,0.0,0.0,97,0.00,,---,0.00,0.00,VWS V14.01,2013-01-10 12:33:00,
2013-01-10 07:34:00,45.6,44.8,30.42,NNE,21,0.0,0.0,97,0.00,,---,0.00,0.00,VWS V14.01,2013-01-10 12:34:00,
2013-01-10 07:35:00,45.7,44.9,30.42,NNE,21,0.0,0.0,97,0.00,,---,0.00,0.00,VWS V14.01,2013-01-10 12:35:00,
2013-01-10 07:36:00,45.7,44.9,30.42,NNE,21,0.0,0.0,97,0.00,,---,0.00,5.00,VWS V14.01,2013-01-10 12:36:00,
2013-01-10 07:37:00,45.7,44.9,30.42,NNE,21,0.0,0.0,97,0.00,,---,0.00,5.00,VWS V14.01,2013-01-10 12:37:00,
2013-01-10 07:38:00,45.8,45.0,30.42,NNE,21,0.0,1.0,97,0.00,,---,0.00,7.00,VWS V14.01,2013-01-10 12:38:00,
2013-01-10 07:39:00,45.4,44.6,30.42,NNE,21,0.0,1.0,97,0.00,,---,0.00,0.00,VWS V14.01,2013-01-10 12:39:00,
2013-01-10 07:40:00,45.8,45.0,30.42,NNE,21,0.0,0.0,97,0.00,,---,0.00,7.00,VWS V14.01,2013-01-10 12:40:00,
2013-01-10 07:41:00,45.8,45.0,30.42,NNE,21,0.0,0.0,97,0.00,,---,0.00,7.00,VWS V14.01,2013-01-10 12:41:00,
2013-01-10 07:42:00,45.9,45.1,30.42,NNE,21,0.0,0.0,97,0.00,,---,0.00,9.00,VWS V14.01,2013-01-10 12:42:00,
2013-01-10 07:43:00,45.9,45.1,30.42,NNE,21,0.0,0.0,97,0.00,,---,0.00,9.00,VWS V14.01,2013-01-10 12:43:00,
2013-01-10 07:44:00,45.9,45.1,30.42,NNE,21,0.0,0.0,97,0.00,,---,0.00,9.00,VWS V14.01,2013-01-10 12:44:00,
2013-01-10 07:45:00,45.7,44.9,30.42,NNE,21,0.0,0.0,97,0.00,,---,0.00,5.00,VWS V14.01,2013-01-10 12:45:00,
2013-01-10 07:46:00,46.0,45.2,30.42,NNE,21,0.0,1.0,97,0.00,,---,0.00,9.00,VWS V14.01,2013-01-10 12:46:00,
2013-01-10 07:47:00,46.1,45.3,30.42,NNE,21,0.0,1.0,97,0.00,,---,0.00,9.00,VWS V14.01,2013-01-10 12:47:00,
2013-01-10 07:48:00,46.1,45.3,30.42,NNE,21,0.0,1.0,97,0.00,,---,0.00,9.00,VWS V14.01,2013-01-10 12:48:00,
2013-01-10 07:49:00,46.1,45.3,30.43,NNE,22,0.0,2.0,97,0.00,,---,0.00,9.00,VWS V14.01,2013-01-10 12:49:00,
2013-01-10 07:50:00,46.2,45.4,30.42,NNE,22,0.0,0.0,97,0.00,,---,0.00,7.00,VWS V14.01,2013-01-10 12:50:00,
2013-01-10 07:51:00,46.3,45.5,30.42,NE,50,4.0,4.0,97,0.00,,---,0.00,9.00,VWS V14.01,2013-01-10 12:51:00,
2013-01-10 07:52:00,45.9,45.1,30.42,NNE,21,0.0,0.0,97,0.00,,---,0.00,9.00,VWS V14.01,2013-01-10 12:52:00,
2013-01-10 07:53:00,46.4,45.6,30.42,NE,47,0.0,4.0,97,0.00,,---,0.00,9.00,VWS V14.01,2013-01-10 12:53:00,
2013-01-10 07:54:00,46.5,45.7,30.42,NE,47,0.0,4.0,97,0.00,,---,0.00,9.00,VWS V14.01,2013-01-10 12:54:00,
2013-01-10 07:55:00,46.5,45.7,30.42,NE,47,0.0,4.0,97,0.00,,---,0.00,9.00,VWS V14.01,2013-01-10 12:55:00,
2013-01-10 07:56:00,46.5,45.7,30.43,NE,47,0.0,4.0,97,0.00,,---,0.00,11.00,VWS V14.01,2013-01-10 12:56:00,
2013-01-10 07:57:00,46.1,45.3,30.42,NNE,21,0.0,1.0,97,0.00,,---,0.00,9.00,VWS V14.01,2013-01-10 12:57:00,
2013-01-10 07:58:00,46.6,45.8,30.43,NE,47,0.0,4.0,97,0.00,,---,0.00,11.00,VWS V14.01,2013-01-10 12:58:00,
2013-01-10 07:59:00,46.6,45.8,30.43,NE,47,0.0,4.0,97,0.00,,---,0.00,11.00,VWS V14.01,2013-01-10 12:59:00,
2013-01-10 08:00:00,46.7,45.9,30.43,NE,47,0.0,1.0,97,0.00,,---,0.00,12.00,VWS V14.01,2013-01-10 13:00:00,
2013-01-10 08:01:00,46.7,45.9,30.43,NE,47,0.0,1.0,97,0.00,,---,0.00,12.00,VWS V14.01,2013-01-10 13:01:00,
2013-01-10 08:02:00,46.7,45.9,30.43,NE,47,0.0,1.0,97,0.00,,---,0.00,12.00,VWS V14.01,2013-01-10 13:02:00,
2013-01-10 08:03:00,46.8,46.0,30.43,NE,47,0.0,1.0,97,0.00,,---,0.00,14.00,VWS V14.01,2013-01-10 13:03:00,
2013-01-10 08:04:00,46.5,45.7,30.42,NE,47,0.0,4.0,97,0.00,,---,0.00,9.00,VWS V14.01,2013-01-10 13:04:00,
2013-01-10 08:05:00,46.8,46.0,30.43,NE,47,0.0,1.0,97,0.00,,---,0.00,14.00,VWS V14.01,2013-01-10 13:05:00,
2013-01-10 08:06:00,46.8,46.0,30.43,NE,47,1.0,1.0,97,0.00,,---,0.00,16.00,VWS V14.01,2013-01-10 13:06:00,
2013-01-10 08:07:00,46.8,46.0,30.43,NE,47,0.0,2.0,97,0.00,,---,0.00,18.00,VWS V14.01,2013-01-10 13:07:00,
2013-01-10 08:08:00,46.8,46.0,30.43,NE,47,0.0,2.0,97,0.00,,---,0.00,18.00,VWS V14.01,2013-01-10 13:08:00,
2013-01-10 08:09:00,46.7,45.9,30.43,NE,47,2.0,4.0,97,0.00,,---,0.00,12.00,VWS V14.01,2013-01-10 13:09:00,
2013-01-10 08:10:00,46.8,46.0,30.43,NE,47,0.0,0.0,97,0.00,,---,0.00,18.00,VWS V14.01,2013-01-10 13:10:00,
2013-01-10 08:11:00,46.8,46.0,30.43,NE,47,0.0,1.0,97,0.00,,---,0.00,19.00,VWS V14.01,2013-01-10 13:11:00,
2013-01-10 08:12:00,46.9,46.1,30.42,NE,49,2.0,2.0,97,0.00,,---,0.00,18.00,VWS V14.01,2013-01-10 13:12:00,
2013-01-10 08:13:00,46.9,46.1,30.43,NE,49,0.0,2.0,97,0.00,,---,0.00,18.00,VWS V14.01,2013-01-10 13:13:00,
2013-01-10 08:14:00,46.9,46.1,30.43,NE,49,0.0,2.0,97,0.00,,---,0.00,18.00,VWS V14.01,2013-01-10 13:14:00,
2013-01-10 08:15:00,46.9,46.1,30.43,NE,49,0.0,2.0,97,0.00,,---,0.00,18.00,VWS V14.01,2013-01-10 13:15:00,
2013-01-10 08:16:00,46.9,46.1,30.43,NE,49,0.0,2.0,97,0.00,,---,0.00,16.00,VWS V14.01,2013-01-10 13:16:00,
2013-01-10 08:17:00,46.8,46.0,30.43,NE,47,0.0,2.0,97,0.00,,---,0.00,18.00,VWS V14.01,2013-01-10 13:17:00,
2013-01-10 08:18:00,47.0,46.2,30.43,NE,49,0.0,2.0,97,0.00,,---,0.00,16.00,VWS V14.01,2013-01-10 13:18:00,
2013-01-10 08:19:00,47.0,46.2,30.43,NE,49,0.0,2.0,97,0.00,,---,0.00,18.00,VWS V14.01,2013-01-10 13:19:00,
2013-01-10 08:20:00,47.0,46.2,30.43,NE,49,0.0,0.0,97,0.00,,---,0.00,18.00,VWS V14.01,2013-01-10 13:20:00,
2013-01-10 08:21:00,47.0,46.2,30.43,NE,49,0.0,0.0,97,0.00,,---,0.00,19.00,VWS V14.01,2013-01-10 13:21:00,
2013-01-10 08:22:00,47.0,46.2,30.43,NE,49,0.0,0.0,97,0.00,,---,0.00,19.00,VWS V14.01,2013-01-10 13:22:00,
2013-01-10 08:23:00,47.0,46.2,30.43,NE,49,1.0,1.0,97,0.00,,---,0.00,21.00,VWS V14.01,2013-01-10 13:23:00,
2013-01-10 08:24:00,47.0,46.2,30.44,NE,49,0.0,3.0,97,0.00,,---,0.00,23.00,VWS V14.01,2013-01-10 13:24:00,
2013-01-10 08:25:00,47.0,46.2,30.43,NE,49,0.0,3.0,97,0.00,,---,0.00,25.00,VWS V14.01,2013-01-10 13:25:00,
2013-01-10 08:26:00,47.1,46.3,30.43,NE,49,0.0,3.0,97,0.00,,---,0.00,26.00,VWS V14.01,2013-01-10 13:26:00,
2013-01-10 08:27:00,46.9,46.1,30.43,NE,49,0.0,2.0,97,0.00,,---,0.00,16.00,VWS V14.01,2013-01-10 13:27:00,
2013-01-10 08:28:00,47.1,46.3,30.43,NE,49,0.0,3.0,97,0.00,,---,0.00,28.00,VWS V14.01,2013-01-10 13:28:00,
2013-01-10 08:29:00,47.1,46.3,30.43,NE,49,2.0,3.0,97,0.00,,---,0.00,30.00,VWS V14.01,2013-01-10 13:29:00,
2013-01-10 08:30:00,47.2,46.4,30.43,NE,49,0.0,1.0,97,0.00,,---,0.00,30.00,VWS V14.01,2013-01-10 13:30:00,
2013-01-10 08:31:00,47.1,46.3,30.43,ENE,59,0.0,4.0,97,0.00,,---,0.00,32.00,VWS V14.01,2013-01-10 13:31:00,
2013-01-10 08:32:00,47.1,46.3,30.43,ENE,57,0.0,4.0,97,0.00,,---,0.00,33.00,VWS V14.01,2013-01-10 13:32:00,
2013-01-10 08:33:00,47.1,46.3,30.43,ENE,59,0.0,5.0,97,0.00,,---,0.00,35.00,VWS V14.01,2013-01-10 13:33:00,
2013-01-10 08:34:00,47.1,46.3,30.43,NE,56,0.0,5.0,97,0.00,,---,0.00,37.00,VWS V14.01,2013-01-10 13:34:00,
2013-01-10 08:35:00,47.1,46.3,30.43,NE,49,0.0,3.0,97,0.00,,---,0.00,26.00,VWS V14.01,2013-01-10 13:35:00,
2013-01-10 08:36:00,47.1,46.0,30.43,NE,56,0.0,5.0,96,0.00,,---,0.00,40.00,VWS V14.01,2013-01-10 13:36:00,
2013-01-10 08:37:00,47.1,46.0,30.43,NE,56,0.0,5.0,96,0.00,,---,0.00,40.00,VWS V14.01,2013-01-10 13:37:00,
2013-01-10 08:38:00,47.1,46.0,30.43,NE,56,0.0,5.0,96,0.00,,---,0.00,40.00,VWS V14.01,2013-01-10 13:38:00,
2013-01-10 08:39:00,47.1,46.0,30.43,NE,56,0.0,5.0,96,0.00,,---,0.00,42.00,VWS V14.01,2013-01-10 13:39:00,
2013-01-10 08:40:00,47.1,46.0,30.44,NE,56,1.0,1.0,96,0.00,,---,0.00,42.00,VWS V14.01,2013-01-10 13:40:00,
2013-01-10 08:41:00,47.1,46.0,30.43,ENE,58,0.0,3.0,96,0.00,,---,0.00,42.00,VWS V14.01,2013-01-10 13:41:00,
2013-01-10 08:42:00,47.1,46.3,30.43,ENE,59,1.0,5.0,97,0.00,,---,0.00,35.00,VWS V14.01,2013-01-10 13:42:00,
2013-01-10 08:43:00,47.2,45.8,30.44,ENE,59,2.0,3.0,95,0.00,,---,0.00,44.00,VWS V14.01,2013-01-10 13:43:00,
2013-01-10 08:44:00,47.2,45.8,30.44,ENE,59,0.0,3.0,95,0.00,,---,0.00,44.00,VWS V14.01,2013-01-10 13:44:00,
2013-01-10 08:45:00,47.2,45.8,30.44,ENE,59,0.0,3.0,95,0.00,,---,0.00,44.00,VWS V14.01,2013-01-10 13:45:00,
2013-01-10 08:46:00,47.2,45.8,30.44,ENE,59,2.0,3.0,95,0.00,,---,0.00,44.00,VWS V14.01,2013-01-10 13:46:00,
2013-01-10 08:47:00,47.3,45.9,30.44,ENE,59,0.0,3.0,95,0.00,,---,0.00,46.00,VWS V14.01,2013-01-10 13:47:00,
2013-01-10 08:48:00,47.3,45.9,30.44,ENE,59,2.0,3.0,95,0.00,,---,0.00,46.00,VWS V14.01,2013-01-10 13:48:00,
2013-01-10 08:49:00,47.1,46.0,30.43,NE,56,1.0,5.0,96,0.00,,---,0.00,42.00,VWS V14.01,2013-01-10 13:49:00,
2013-01-10 08:50:00,47.3,45.9,30.44,ENE,59,2.0,3.0,95,0.00,,---,0.00,47.00,VWS V14.01,2013-01-10 13:50:00,
2013-01-10 08:51:00,47.4,46.0,30.44,ENE,57,2.0,4.0,95,0.00,,---,0.00,49.00,VWS V14.01,2013-01-10 13:51:00,
2013-01-10 08:52:00,47.4,46.0,30.44,ENE,57,0.0,4.0,95,0.00,,---,0.00,49.00,VWS V14.01,2013-01-10 13:52:00,
2013-01-10 08:53:00,47.4,46.0,30.44,ENE,57,1.0,4.0,95,0.00,,---,0.00,49.00,VWS V14.01,2013-01-10 13:53:00,
2013-01-10 08:54:00,47.2,46.1,30.44,ENE,59,1.0,3.0,96,0.00,,---,0.00,44.00,VWS V14.01,2013-01-10 13:54:00,
2013-01-10 08:55:00,47.5,46.1,30.44,ENE,57,2.0,4.0,95,0.00,,---,0.00,49.00,VWS V14.01,2013-01-10 13:55:00,
2013-01-10 08:56:00,47.6,46.2,30.44,ENE,57,0.0,4.0,95,0.00,,---,0.00,49.00,VWS V14.01,2013-01-10 13:56:00,
2013-01-10 08:57:00,47.6,46.2,30.43,ENE,57,0.0,4.0,95,0.00,,---,0.00,51.00,VWS V14.01,2013-01-10 13:57:00,
2013-01-10 08:58:00,47.6,46.2,30.44,ENE,57,0.0,4.0,95,0.00,,---,0.00,51.00,VWS V14.01,2013-01-10 13:58:00,
2013-01-10 08:59:00,47.3,45.9,30.44,ENE,59,2.0,3.0,95,0.00,,---,0.00,47.00,VWS V14.01,2013-01-10 13:59:00,
2013-01-10 09:00:00,47.7,46.3,30.43,ENE,57,1.0,1.0,95,0.00,,---,0.00,49.00,VWS V14.01,2013-01-10 14:00:00,
2013-01-10 09:01:00,47.7,46.3,30.43,ENE,57,2.0,2.0,95,0.00,,---,0.00,49.00,VWS V14.01,2013-01-10 14:01:00,
2013-01-10 09:02:00,47.8,46.4,30.43,ENE,57,0.0,2.0,95,0.00,,---,0.00,49.00,VWS V14.01,2013-01-10 14:02:00,
2013-01-10 09:03:00,47.8,46.2,30.43,ENE,57,2.0,2.0,94,0.00,,---,0.00,49.00,VWS V14.01,2013-01-10 14:03:00,
2013-01-10 09:04:00,47.8,46.2,30.43,ENE,57,1.0,2.0,94,0.00,,---,0.00,49.00,VWS V14.01,2013-01-10 14:04:00,
2013-01-10 09:05:00,47.6,46.2,30.44,ENE,57,0.0,4.0,95,0.00,,---,0.00,49.00,VWS V14.01,2013-01-10 14:05:00,
2013-01-10 09:06:00,47.9,46.3,30.43,ENE,57,1.0,2.0,94,0.00,,---,0.00,53.00,VWS V14.01,2013-01-10 14:06:00,
2013-01-10 09:07:00,47.9,46.3,30.43,ENE,57,0.0,2.0,94,0.00,,---,0.00,54.00,VWS V14.01,2013-01-10 14:07:00,
2013-01-10 09:08:00,47.9,46.3,30.43,ENE,57,0.0,2.0,94,0.00,,---,0.00,54.00,VWS V14.01,2013-01-10 14:08:00,
2013-01-10 09:09:00,47.9,46.3,30.43,ENE,57,1.0,2.0,94,0.00,,---,0.00,56.00,VWS V14.01,2013-01-10 14:09:00,
2013-01-10 09:10:00,47.9,46.3,30.43,ENE,57,4.0,4.0,94,0.00,,---,0.00,62.00,VWS V14.01,2013-01-10 14:10:00,
2013-01-10 09:11:00,47.9,46.3,30.43,NE,56,0.0,4.0,94,0.00,,---,0.00,62.00,VWS V14.01,2013-01-10 14:11:00,
2013-01-10 09:12:00,47.9,46.3,30.43,NE,56,1.0,4.0,94,0.00,,---,0.00,67.00,VWS V14.01,2013-01-10 14:12:00,
2013-01-10 09:13:00,47.9,46.3,30.43,NE,56,0.0,4.0,94,0.00,,---,0.00,70.00,VWS V14.01,2013-01-10 14:13:00,
2013-01-10 09:14:00,47.8,46.2,30.43,ENE,57,0.0,2.0,94,0.00,,---,0.00,51.00,VWS V14.01,2013-01-10 14:14:00,
2013-01-10 09:15:00,47.9,46.3,30.43,ENE,57,3.0,4.0,94,0.00,,---,0.00,76.00,VWS V14.01,2013-01-10 14:15:00,
2013-01-10 09:16:00,48.0,46.4,30.43,ENE,57,0.0,4.0,94,0.00,,---,0.00,77.00,VWS V14.01,2013-01-10 14:16:00,
2013-01-10 09:17:00,48.0,46.4,30.43,ENE,57,0.0,4.0,94,0.00,,---,0.00,86.00,VWS V14.01,2013-01-10 14:17:00,
2013-01-10 09:18:00,48.0,46.1,30.43,ENE,57,1.0,4.0,93,0.00,,---,0.00,91.00,VWS V14.01,2013-01-10 14:18:00,
2013-01-10 09:19:00,47.9,46.3,30.43,ENE,57,0.0,2.0,94,0.00,,---,0.00,58.00,VWS V14.01,2013-01-10 14:19:00,
2013-01-10 09:20:00,48.0,46.1,30.43,ENE,57,1.0,1.0,93,0.00,,---,0.00,105.00,VWS V14.01,2013-01-10 14:20:00,
2013-01-10 09:21:00,48.0,46.1,30.43,ENE,57,2.0,3.0,93,0.00,,---,0.00,113.00,VWS V14.01,2013-01-10 14:21:00,
2013-01-10 09:22:00,48.1,46.2,30.43,ENE,57,0.0,3.0,93,0.00,,---,0.00,120.00,VWS V14.01,2013-01-10 14:22:00,
2013-01-10 09:23:00,48.1,46.2,30.43,ENE,57,2.0,3.0,93,0.00,,---,0.00,127.00,VWS V14.01,2013-01-10 14:23:00,
2013-01-10 09:24:00,48.1,46.2,30.43,ENE,57,0.0,3.0,93,0.00,,---,0.00,130.00,VWS V14.01,2013-01-10 14:24:00,
2013-01-10 09:25:00,48.2,46.3,30.43,ENE,57,2.0,3.0,93,0.00,,---,0.00,128.00,VWS V14.01,2013-01-10 14:25:00,
2013-01-10 09:26:00,48.0,46.4,30.43,ENE,57,2.0,4.0,94,0.00,,---,0.00,81.00,VWS V14.01,2013-01-10 14:26:00,
2013-01-10 09:27:00,48.3,46.4,30.43,ENE,69,1.0,3.0,93,0.00,,---,0.00,114.00,VWS V14.01,2013-01-10 14:27:00,
2013-01-10 09:28:00,48.3,46.4,30.43,ENE,60,0.0,3.0,93,0.00,,---,0.00,109.00,VWS V14.01,2013-01-10 14:28:00,
2013-01-10 09:29:00,48.3,46.4,30.43,ENE,61,2.0,3.0,93,0.00,,---,0.00,107.00,VWS V14.01,2013-01-10 14:29:00,
2013-01-10 09:30:00,48.4,46.5,30.43,ENE,61,1.0,3.0,93,0.00,,---,0.00,111.00,VWS V14.01,2013-01-10 14:30:00,
2013-01-10 09:31:00,48.4,46.5,30.43,ENE,61,2.0,3.0,93,0.00,,---,0.00,113.00,VWS V14.01,2013-01-10 14:31:00,
2013-01-10 09:32:00,48.5,46.3,30.43,ENE,62,3.0,3.0,92,0.00,,---,0.00,114.00,VWS V14.01,2013-01-10 14:32:00,
2013-01-10 09:33:00,48.5,46.3,30.43,ENE,62,0.0,3.0,92,0.00,,---,0.00,114.00,VWS V14.01,2013-01-10 14:33:00,
2013-01-10 09:34:00,48.6,46.4,30.43,ENE,62,0.0,3.0,92,0.00,,---,0.00,113.00,VWS V14.01,2013-01-10 14:34:00,
2013-01-10 09:35:00,48.6,46.4,30.43,ENE,62,0.0,3.0,92,0.00,,---,0.00,113.00,VWS V14.01,2013-01-10 14:35:00,
2013-01-10 09:36:00,48.3,46.4,30.43,ENE,69,0.0,3.0,93,0.00,,---,0.00,114.00,VWS V14.01,2013-01-10 14:36:00,
2013-01-10 09:37:00,48.8,46.9,30.43,ENE,62,0.0,3.0,93,0.00,,---,0.00,121.00,VWS V14.01,2013-01-10 14:37:00,
2013-01-10 09:38:00,48.8,46.9,30.43,ENE,62,0.0,3.0,93,0.00,,---,0.00,130.00,VWS V14.01,2013-01-10 14:38:00,
2013-01-10 09:39:00,48.9,47.0,30.43,ENE,62,0.0,3.0,93,0.00,,---,0.00,141.00,VWS V14.01,2013-01-10 14:39:00,
2013-01-10 09:40:00,49.0,47.1,30.43,ENE,62,1.0,1.0,93,0.00,,---,0.00,153.00,VWS V14.01,2013-01-10 14:40:00,
2013-01-10 09:41:00,49.1,47.2,30.43,ENE,63,1.0,4.0,93,0.00,,---,0.00,156.00,VWS V14.01,2013-01-10 14:41:00,
2013-01-10 09:42:00,49.1,47.2,30.43,ENE,63,4.0,4.0,93,0.00,,---,0.00,158.00,VWS V14.01,2013-01-10 14:42:00,
2013-01-10 09:43:00,49.2,47.0,30.43,ENE,57,2.0,5.0,92,0.00,,---,0.00,160.00,VWS V14.01,2013-01-10 14:43:00,
2013-01-10 09:44:00,48.6,46.4,30.43,ENE,62,0.0,3.0,92,0.00,,---,0.00,111.00,VWS V14.01,2013-01-10 14:44:00,
2013-01-10 09:45:00,49.4,47.2,30.43,ENE,57,2.0,5.0,92,0.00,,---,0.00,165.00,VWS V14.01,2013-01-10 14:45:00,
2013-01-10 09:46:00,49.5,47.3,30.43,ENE,64,1.0,5.0,92,0.00,,---,0.00,169.00,VWS V14.01,2013-01-10 14:46:00,
2013-01-10 09:47:00,49.5,47.3,30.43,ENE,64,1.0,5.0,92,0.00,,---,0.00,179.00,VWS V14.01,2013-01-10 14:47:00,
2013-01-10 09:48:00,49.6,47.4,30.43,ENE,68,0.0,5.0,92,0.00,,---,0.00,183.00,VWS V14.01,2013-01-10 14:48:00,
2013-01-10 09:49:00,48.9,47.0,30.43,ENE,62,1.0,3.0,93,0.00,,---,0.00,148.00,VWS V14.01,2013-01-10 14:49:00,
2013-01-10 09:50:00,49.8,47.6,30.43,ENE,65,2.0,2.0,92,0.00,,---,0.00,186.00,VWS V14.01,2013-01-10 14:50:00,
2013-01-10 09:51:00,49.9,47.7,30.43,ENE,65,2.0,3.0,92,0.00,,---,0.00,185.00,VWS V14.01,2013-01-10 14:51:00,
2013-01-10 09:52:00,50.0,47.8,30.43,ENE,63,2.0,3.0,92,0.00,,---,0.00,179.00,VWS V14.01,2013-01-10 14:52:00,
2013-01-10 09:53:00,50.1,47.9,30.43,ENE,59,1.0,4.0,92,0.00,,---,0.00,176.00,VWS V14.01,2013-01-10 14:53:00,
2013-01-10 09:54:00,50.2,48.0,30.43,ENE,57,4.0,4.0,92,0.00,,---,0.00,171.00,VWS V14.01,2013-01-10 14:54:00,
2013-01-10 09:55:00,50.2,47.7,30.43,ENE,63,2.0,5.0,91,0.00,,---,0.00,162.00,VWS V14.01,2013-01-10 14:55:00,
2013-01-10 09:56:00,50.3,47.8,30.43,ENE,61,3.0,5.0,91,0.00,,---,0.00,151.00,VWS V14.01,2013-01-10 14:56:00,
2013-01-10 09:57:00,50.3,47.8,30.43,ENE,59,4.0,5.0,91,0.00,,---,0.00,141.00,VWS V14.01,2013-01-10 14:57:00,
2013-01-10 09:58:00,50.4,47.6,30.43,ENE,58,4.0,5.0,90,0.00,,---,0.00,128.00,VWS V14.01,2013-01-10 14:58:00,
2013-01-10 09:59:00,49.8,47.9,30.43,ENE,65,0.0,5.0,93,0.00,,---,0.00,186.00,VWS V14.01,2013-01-10 14:59:00,
2013-01-10 10:00:00,50.5,47.7,30.43,ENE,63,0.0,0.0,90,0.00,,---,0.00,114.00,VWS V14.01,2013-01-10 15:00:00,
2013-01-10 10:01:00,50.6,47.8,30.43,ENE,61,1.0,4.0,90,0.00,,---,0.00,105.00,VWS V14.01,2013-01-10 15:01:00,
2013-01-10 10:02:00,50.6,47.5,30.43,ENE,61,0.0,4.0,89,0.00,,---,0.00,98.00,VWS V14.01,2013-01-10 15:02:00,
2013-01-10 10:03:00,50.7,47.9,30.42,ENE,61,0.0,4.0,90,0.00,,---,0.00,97.00,VWS V14.01,2013-01-10 15:03:00,
2013-01-10 10:04:00,50.7,47.9,30.42,ENE,61,2.0,4.0,90,0.00,,---,0.00,98.00,VWS V14.01,2013-01-10 15:04:00,
2013-01-10 10:05:00,50.2,47.7,30.43,ENE,63,2.0,5.0,91,0.00,,---,0.00,162.00,VWS V14.01,2013-01-10 15:05:00,
2013-01-10 10:06:00,50.8,48.0,30.43,ENE,61,0.0,4.0,90,0.00,,---,0.00,98.00,VWS V14.01,2013-01-10 15:06:00,
2013-01-10 10:07:00,50.8,47.7,30.43,NE,55,1.0,4.0,89,0.00,,---,0.00,98.00,VWS V14.01,2013-01-10 15:07:00,
2013-01-10 10:08:00,50.8,47.7,30.43,NE,53,2.0,4.0,89,0.00,,---,0.00,100.00,VWS V14.01,2013-01-10 15:08:00,
2013-01-10 10:09:00,50.8,47.4,30.43,NE,53,0.0,4.0,88,0.00,,---,0.00,100.00,VWS V14.01,2013-01-10 15:09:00,
2013-01-10 10:10:00,50.9,47.5,30.43,ENE,59,3.0,3.0,88,0.00,,---,0.00,107.00,VWS V14.01,2013-01-10 15:10:00,
2013-01-10 10:11:00,50.6,47.5,30.43,ENE,61,0.0,4.0,89,0.00,,---,0.00,98.00,VWS V14.01,2013-01-10 15:11:00,
2013-01-10 10:12:00,50.9,47.2,30.43,East,90,1.0,3.0,87,0.00,,---,0.00,109.00,VWS V14.01,2013-01-10 15:12:00,
2013-01-10 10:13:00,50.9,47.2,30.43,ENE,57,0.0,4.0,87,0.00,,---,0.00,111.00,VWS V14.01,2013-01-10 15:13:00,
2013-01-10 10:14:00,50.9,47.2,30.43,ENE,57,1.0,4.0,87,0.00,,---,0.00,113.00,VWS V14.01,2013-01-10 15:14:00,
2013-01-10 10:15:00,50.9,47.2,30.43,ENE,57,0.0,4.0,87,0.00,,---,0.00,114.00,VWS V14.01,2013-01-10 15:15:00,
2013-01-10 10:16:00,50.9,47.2,30.43,ENE,76,1.0,5.0,87,0.00,,---,0.00,118.00,VWS V14.01,2013-01-10 15:16:00,
2013-01-10 10:17:00,50.8,47.7,30.43,NE,55,2.0,4.0,89,0.00,,---,0.00,98.00,VWS V14.01,2013-01-10 15:17:00,
2013-01-10 10:18:00,50.9,46.9,30.43,ENE,62,0.0,5.0,86,0.00,,---,0.00,116.00,VWS V14.01,2013-01-10 15:18:00,
2013-01-10 10:19:00,51.0,47.3,30.43,ENE,62,3.0,5.0,87,0.00,,---,0.00,114.00,VWS V14.01,2013-01-10 15:19:00,
2013-01-10 10:20:00,51.0,47.3,30.43,ENE,62,0.0,1.0,87,0.00,,---,0.00,114.00,VWS V14.01,2013-01-10 15:20:00,
2013-01-10 10:21:00,51.0,47.3,30.43,ENE,62,1.0,3.0,87,0.00,,---,0.00,113.00,VWS V14.01,2013-01-10 15:21:00,
2013-01-10 10:22:00,50.9,47.2,30.43,ENE,57,2.0,4.0,87,0.00,,---,0.00,111.00,VWS V14.01,2013-01-10 15:22:00,
2013-01-10 10:23:00,51.1,47.4,30.43,ENE,62,2.0,3.0,87,0.00,,---,0.00,104.00,VWS V14.01,2013-01-10 15:23:00,
2013-01-10 10:24:00,51.1,47.4,30.43,ENE,61,0.0,3.0,87,0.00,,---,0.00,102.00,VWS V14.01,2013-01-10 15:24:00,
2013-01-10 10:25:00,51.1,47.4,30.43,ENE,60,0.0,5.0,87,0.00,,---,0.00,100.00,VWS V14.01,2013-01-10 15:25:00,
2013-01-10 10:26:00,51.1,47.1,30.42,ENE,60,2.0,5.0,86,0.00,,---,0.00,98.00,VWS V14.01,2013-01-10 15:26:00,
2013-01-10 10:27:00,51.1,47.4,30.42,ENE,60,1.0,5.0,87,0.00,,---,0.00,98.00,VWS V14.01,2013-01-10 15:27:00,
2013-01-10 10:28:00,51.1,47.1,30.42,ENE,60,0.0,5.0,86,0.00,,---,0.00,97.00,VWS V14.01,2013-01-10 15:28:00,
2013-01-10 10:29:00,51.0,47.3,30.43,ENE,62,0.0,5.0,87,0.00,,---,0.00,114.00,VWS V14.01,2013-01-10 15:29:00,
2013-01-10 10:30:00,51.1,47.1,30.42,ENE,60,0.0,0.0,86,0.00,,---,0.00,95.00,VWS V14.01,2013-01-10 15:30:00,
2013-01-10 10:31:00,51.1,47.4,30.42,ENE,60,1.0,1.0,87,0.00,,---,0.00,93.00,VWS V14.01,2013-01-10 15:31:00,
2013-01-10 10:32:00,51.1,47.1,30.42,ENE,60,0.0,2.0,86,0.00,,---,0.00,91.00,VWS V14.01,2013-01-10 15:32:00,
2013-01-10 10:33:00,51.1,47.1,30.42,ENE,59,0.0,2.0,86,0.00,,---,0.00,88.00,VWS V14.01,2013-01-10 15:33:00,
2013-01-10 10:34:00,51.1,47.1,30.42,ENE,62,0.0,3.0,86,0.00,,---,0.00,88.00,VWS V14.01,2013-01-10 15:34:00,
2013-01-10 10:35:00,51.1,47.4,30.43,ENE,60,4.0,5.0,87,0.00,,---,0.00,100.00,VWS V14.01,2013-01-10 15:35:00,
2013-01-10 10:36:00,51.1,47.1,30.42,ENE,62,2.0,3.0,86,0.00,,---,0.00,93.00,VWS V14.01,2013-01-10 15:36:00,
2013-01-10 10:37:00,51.1,47.1,30.42,ENE,62,0.0,3.0,86,0.00,,---,0.00,97.00,VWS V14.01,2013-01-10 15:37:00,
2013-01-10 10:38:00,51.1,47.1,30.42,ENE,62,0.0,3.0,86,0.00,,---,0.00,100.00,VWS V14.01,2013-01-10 15:38:00,
2013-01-10 10:39:00,51.1,47.1,30.43,ENE,60,0.0,5.0,86,0.00,,---,0.00,95.00,VWS V14.01,2013-01-10 15:39:00,
2013-01-10 10:40:00,51.1,47.1,30.42,ENE,62,0.0,0.0,86,0.00,,---,0.00,107.00,VWS V14.01,2013-01-10 15:40:00,
2013-01-10 10:41:00,51.1,47.1,30.42,ENE,62,0.0,2.0,86,0.00,,---,0.00,109.00,VWS V14.01,2013-01-10 15:41:00,
2013-01-10 10:42:00,51.1,46.8,30.42,ENE,62,0.0,2.0,85,0.00,,---,0.00,109.00,VWS V14.01,2013-01-10 15:42:00,
2013-01-10 10:43:00,51.2,46.8,30.42,ENE,62,1.0,2.0,85,0.00,,---,0.00,111.00,VWS V14.01,2013-01-10 15:43:00,
2013-01-10 10:44:00,51.1,46.8,30.42,ENE,62,0.0,2.0,85,0.00,,---,0.00,114.00,VWS V14.01,2013-01-10 15:44:00,
2013-01-10 10:45:00,51.2,46.8,30.42,ENE,62,0.0,2.0,85,0.00,,---,0.00,120.00,VWS V14.01,2013-01-10 15:45:00,
2013-01-10 10:46:00,51.1,47.1,30.42,ENE,62,0.0,3.0,86,0.00,,---,0.00,97.00,VWS V14.01,2013-01-10 15:46:00,
2013-01-10 10:47:00,51.2,47.2,30.42,ENE,62,0.0,2.0,86,0.00,,---,0.00,123.00,VWS V14.01,2013-01-10 15:47:00,
2013-01-10 10:48:00,51.2,46.8,30.42,ENE,62,1.0,2.0,85,0.00,,---,0.00,125.00,VWS V14.01,2013-01-10 15:48:00,
2013-01-10 10:49:00,51.2,46.5,30.42,ENE,62,0.0,2.0,84,0.00,,---,0.00,125.00,VWS V14.01,2013-01-10 15:49:00,
2013-01-10 10:50:00,51.3,46.6,30.42,ENE,60,4.0,5.0,84,0.00,,---,0.00,125.00,VWS V14.01,2013-01-10 15:50:00,
2013-01-10 10:51:00,51.3,46.3,30.42,ENE,57,2.0,5.0,83,0.00,,---,0.00,125.00,VWS V14.01,2013-01-10 15:51:00,
2013-01-10 10:52:00,51.3,46.3,30.42,ENE,57,2.0,5.0,83,0.00,,---,0.00,127.00,VWS V14.01,2013-01-10 15:52:00,
2013-01-10 10:53:00,51.3,46.3,30.42,ENE,74,1.0,5.0,83,0.00,,---,0.00,130.00,VWS V14.01,2013-01-10 15:53:00,
2013-01-10 10:54:00,51.1,46.8,30.42,ENE,62,0.0,2.0,85,0.00,,---,0.00,116.00,VWS V14.01,2013-01-10 15:54:00,
2013-01-10 10:55:00,51.3,46.3,30.42,ENE,61,0.0,5.0,83,0.00,,---,0.00,139.00,VWS V14.01,2013-01-10 15:55:00,
2013-01-10 10:56:00,51.3,46.3,30.42,ENE,61,0.0,5.0,83,0.00,,---,0.00,144.00,VWS V14.01,2013-01-10 15:56:00,
2013-01-10 10:57:00,51.4,46.4,30.42,ENE,61,0.0,5.0,83,0.00,,---,0.00,153.00,VWS V14.01,2013-01-10 15:57:00,
2013-01-10 10:58:00,51.4,46.4,30.42,ENE,61,0.0,5.0,83,0.00,,---,0.00,156.00,VWS V14.01,2013-01-10 15:58:00,
2013-01-10 10:59:00,51.3,46.6,30.42,ENE,60,0.0,3.0,84,0.00,,---,0.00,125.00,VWS V14.01,2013-01-10 15:59:00,
2013-01-10 11:00:00,51.4,46.7,30.42,ENE,61,1.0,1.0,84,0.00,,---,0.00,167.00,VWS V14.01,2013-01-10 16:00:00,
2013-01-10 11:01:00,51.5,46.8,30.42,ENE,57,3.0,3.0,84,0.00,,---,0.00,169.00,VWS V14.01,2013-01-10 16:01:00,
2013-01-10 11:02:00,51.5,46.5,30.41,ENE,57,1.0,4.0,83,0.00,,---,0.00,172.00,VWS V14.01,2013-01-10 16:02:00,
2013-01-10 11:03:00,51.5,46.5,30.41,ENE,57,0.0,4.0,83,0.00,,---,0.00,174.00,VWS V14.01,2013-01-10 16:03:00,
2013-01-10 11:04:00,51.6,46.9,30.42,ENE,61,3.0,4.0,84,0.00,,---,0.00,174.00,VWS V14.01,2013-01-10 16:04:00,
2013-01-10 11:05:00,51.6,46.6,30.42,ENE,60,0.0,4.0,83,0.00,,---,0.00,174.00,VWS V14.01,2013-01-10 16:05:00,
2013-01-10 11:06:00,51.7,46.7,30.42,ENE,60,0.0,4.0,83,0.00,,---,0.00,172.00,VWS V14.01,2013-01-10 16:06:00,
2013-01-10 11:07:00,51.7,46.7,30.42,East,84,0.0,4.0,83,0.00,,---,0.00,171.00,VWS V14.01,2013-01-10 16:07:00,
2013-01-10 11:08:00,51.8,46.8,30.41,East,84,0.0,4.0,83,0.00,,---,0.00,169.00,VWS V14.01,2013-01-10 16:08:00,
2013-01-10 11:09:00,51.4,46.4,30.42,ENE,61,0.0,5.0,83,0.00,,---,0.00,167.00,VWS V14.01,2013-01-10 16:09:00,
2013-01-10 11:10:00,51.9,47.2,30.41,ENE,57,2.0,2.0,84,0.00,,---,0.00,171.00,VWS V14.01,2013-01-10 16:10:00,
2013-01-10 11:11:00,51.9,47.2,30.41,NE,56,0.0,4.0,84,0.00,,---,0.00,171.00,VWS V14.01,2013-01-10 16:11:00,
2013-01-10 11:12:00,52.0,47.0,30.41,NE,56,0.0,4.0,83,0.00,,---,0.00,171.00,VWS V14.01,2013-01-10 16:12:00,
2013-01-10 11:13:00,52.1,47.1,30.41,ENE,57,1.0,4.0,83,0.00,,---,0.00,172.00,VWS V14.01,2013-01-10 16:13:00,
2013-01-10 11:14:00,51.6,46.9,30.42,ENE,60,0.0,4.0,84,0.00,,---,0.00,174.00,VWS V14.01,2013-01-10 16:14:00,
2013-01-10 11:15:00,52.2,47.2,30.41,ENE,59,0.0,4.0,83,0.00,,---,0.00,183.00,VWS V14.01,2013-01-10 16:15:00,
2013-01-10 11:16:00,52.2,47.2,30.40,ENE,60,0.0,4.0,83,0.00,,---,0.00,185.00,VWS V14.01,2013-01-10 16:16:00,
2013-01-10 11:17:00,52.3,47.0,30.41,ENE,60,0.0,4.0,82,0.00,,---,0.00,186.00,VWS V14.01,2013-01-10 16:17:00,
2013-01-10 11:18:00,52.3,47.0,30.40,NE,54,3.0,4.0,82,0.00,,---,0.00,190.00,VWS V14.01,2013-01-10 16:18:00,
2013-01-10 11:19:00,52.4,47.1,30.40,ENE,67,1.0,4.0,82,0.00,,---,0.00,197.00,VWS V14.01,2013-01-10 16:19:00,
2013-01-10 11:20:00,51.9,47.2,30.41,ENE,57,1.0,4.0,84,0.00,,---,0.00,171.00,VWS V14.01,2013-01-10 16:20:00,
2013-01-10 11:21:00,52.5,47.2,30.40,ENE,61,0.0,4.0,82,0.00,,---,0.00,209.00,VWS V14.01,2013-01-10 16:21:00,
2013-01-10 11:22:00,52.6,47.3,30.40,ENE,61,1.0,4.0,82,0.00,,---,0.00,214.00,VWS V14.01,2013-01-10 16:22:00,
2013-01-10 11:23:00,52.7,47.7,30.40,ENE,61,0.0,4.0,83,0.00,,---,0.00,218.00,VWS V14.01,2013-01-10 16:23:00,
2013-01-10 11:24:00,52.7,47.7,30.40,ENE,61,0.0,4.0,83,0.00,,---,0.00,220.00,VWS V14.01,2013-01-10 16:24:00,
2013-01-10 11:25:00,52.2,47.2,30.41,ENE,60,1.0,4.0,83,0.00,,---,0.00,185.00,VWS V14.01,2013-01-10 16:25:00,
2013-01-10 11:26:00,52.9,47.9,30.40,ENE,61,0.0,4.0,83,0.00,,---,0.00,223.00,VWS V14.01,2013-01-10 16:26:00,
2013-01-10 11:27:00,53.0,48.0,30.40,ENE,61,2.0,4.0,83,0.00,,---,0.00,218.00,VWS V14.01,2013-01-10 16:27:00,
2013-01-10 11:28:00,53.0,48.3,30.40,ENE,61,1.0,4.0,84,0.00,,---,0.00,213.00,VWS V14.01,2013-01-10 16:28:00,
2013-01-10 11:29:00,53.1,48.1,30.40,ENE,62,2.0,4.0,83,0.00,,---,0.00,211.00,VWS V14.01,2013-01-10 16:29:00,
2013-01-10 11:30:00,53.2,47.5,30.39,NE,42,0.0,1.0,81,0.00,,---,0.00,207.00,VWS V14.01,2013-01-10 16:30:00,
2013-01-10 11:31:00,53.3,48.0,30.39,NE,49,1.0,2.0,82,0.00,,---,0.00,206.00,VWS V14.01,2013-01-10 16:31:00,
2013-01-10 11:32:00,52.6,47.6,30.40,ENE,61,0.0,4.0,83,0.00,,---,0.00,218.00,VWS V14.01,2013-01-10 16:32:00,
2013-01-10 11:33:00,53.5,47.8,30.39,NE,52,1.0,4.0,81,0.00,,---,0.00,199.00,VWS V14.01,2013-01-10 16:33:00,
2013-01-10 11:34:00,53.5,47.8,30.39,ENE,57,0.0,4.0,81,0.00,,---,0.00,195.00,VWS V14.01,2013-01-10 16:34:00,
2013-01-10 11:35:00,53.6,47.6,30.39,ENE,57,2.0,4.0,80,0.00,,---,0.00,190.00,VWS V14.01,2013-01-10 16:35:00,
2013-01-10 11:36:00,53.6,47.3,30.39,ENE,57,1.0,4.0,79,0.00,,---,0.00,186.00,VWS V14.01,2013-01-10 16:36:00,
2013-01-10 11:37:00,53.7,47.3,30.39,ENE,60,1.0,4.0,79,0.00,,---,0.00,178.00,VWS V14.01,2013-01-10 16:37:00,
2013-01-10 11:38:00,53.7,47.7,30.39,ENE,60,3.0,4.0,80,0.00,,---,0.00,172.00,VWS V14.01,2013-01-10 16:38:00,
2013-01-10 11:39:00,53.2,47.9,30.40,NE,42,1.0,4.0,82,0.00,,---,0.00,207.00,VWS V14.01,2013-01-10 16:39:00,
2013-01-10 11:40:00,53.8,47.5,30.39,ENE,60,0.0,0.0,79,0.00,,---,0.00,167.00,VWS V14.01,2013-01-10 16:40:00,
2013-01-10 11:41:00,53.8,47.8,30.39,ENE,60,1.0,3.0,80,0.00,,---,0.00,165.00,VWS V14.01,2013-01-10 16:41:00,
2013-01-10 11:42:00,53.9,47.9,30.39,ENE,60,2.0,3.0,80,0.00,,---,0.00,167.00,VWS V14.01,2013-01-10 16:42:00,
2013-01-10 11:43:00,53.9,47.9,30.39,ENE,60,0.0,3.0,80,0.00,,---,0.00,172.00,VWS V14.01,2013-01-10 16:43:00,
2013-01-10 11:44:00,53.6,47.6,30.39,ENE,57,1.0,4.0,80,0.00,,---,0.00,190.00,VWS V14.01,2013-01-10 16:44:00,
2013-01-10 11:45:00,54.0,48.6,30.38,ENE,61,0.0,5.0,82,0.00,,---,0.00,178.00,VWS V14.01,2013-01-10 16:45:00,
2013-01-10 11:46:00,54.0,48.0,30.38,ENE,61,0.0,5.0,80,0.00,,---,0.00,181.00,VWS V14.01,2013-01-10 16:46:00,
2013-01-10 11:47:00,54.1,47.7,30.38,ENE,61,1.0,5.0,79,0.00,,---,0.00,185.00,VWS V14.01,2013-01-10 16:47:00,
2013-01-10 11:48:00,54.1,47.7,30.38,ENE,66,1.0,5.0,79,0.00,,---,0.00,190.00,VWS V14.01,2013-01-10 16:48:00,
2013-01-10 11:49:00,53.8,47.5,30.39,ENE,60,0.0,4.0,79,0.00,,---,0.00,167.00,VWS V14.01,2013-01-10 16:49:00,
2013-01-10 11:50:00,54.2,47.8,30.38,ENE,65,0.0,0.0,79,0.00,,---,0.00,193.00,VWS V14.01,2013-01-10 16:50:00,
2013-01-10 11:51:00,54.2,47.8,30.38,ENE,64,4.0,4.0,79,0.00,,---,0.00,195.00,VWS V14.01,2013-01-10 16:51:00,
2013-01-10 11:52:00,54.3,47.9,30.38,ENE,69,0.0,5.0,79,0.00,,---,0.00,199.00,VWS V14.01,2013-01-10 16:52:00,
2013-01-10 11:53:00,54.3,47.6,30.38,ENE,68,2.0,5.0,78,0.00,,---,0.00,202.00,VWS V14.01,2013-01-10 16:53:00,
2013-01-10 11:54:00,54.4,48.0,30.38,ENE,68,0.0,5.0,79,0.00,,---,0.00,206.00,VWS V14.01,2013-01-10 16:54:00,
2013-01-10 11:55:00,54.0,48.0,30.38,ENE,61,1.0,5.0,80,0.00,,---,0.00,181.00,VWS V14.01,2013-01-10 16:55:00,
2013-01-10 11:56:00,54.5,48.1,30.38,NE,47,0.0,5.0,79,0.00,,---,0.00,206.00,VWS V14.01,2013-01-10 16:56:00,
2013-01-10 11:57:00,54.5,48.1,30.38,ENE,58,1.0,5.0,79,0.00,,---,0.00,197.00,VWS V14.01,2013-01-10 16:57:00,
2013-01-10 11:58:00,54.6,47.9,30.38,ENE,65,1.0,5.0,78,0.00,,---,0.00,193.00,VWS V14.01,2013-01-10 16:58:00,
2013-01-10 11:59:00,54.6,47.9,30.38,ENE,65,2.0,5.0,78,0.00,,---,0.00,190.00,VWS V14.01,2013-01-10 16:59:00,
2013-01-10 12:00:00,54.6,47.9,30.37,ENE,65,0.0,2.0,78,0.00,,---,0.00,188.00,VWS V14.01,2013-01-10 17:00:00,
2013-01-10 12:01:00,54.2,47.8,30.38,ENE,63,3.0,3.0,79,0.00,,---,0.00,195.00,VWS V14.01,2013-01-10 17:01:00,
2013-01-10 12:02:00,54.7,47.6,30.37,NE,56,0.0,4.0,77,0.00,,---,0.00,185.00,VWS V14.01,2013-01-10 17:02:00,
2013-01-10 12:03:00,54.8,47.7,30.37,NE,56,1.0,4.0,77,0.00,,---,0.00,188.00,VWS V14.01,2013-01-10 17:03:00,
2013-01-10 12:04:00,54.8,48.1,30.37,NE,51,2.0,4.0,78,0.00,,---,0.00,190.00,VWS V14.01,2013-01-10 17:04:00,
2013-01-10 12:05:00,54.8,48.1,30.37,ENE,58,2.0,4.0,78,0.00,,---,0.00,190.00,VWS V14.01,2013-01-10 17:05:00,
2013-01-10 12:06:00,54.5,48.1,30.38,ENE,58,0.0,5.0,79,0.00,,---,0.00,197.00,VWS V14.01,2013-01-10 17:06:00,
2013-01-10 12:07:00,54.9,48.2,30.37,ENE,58,0.0,4.0,78,0.00,,---,0.00,193.00,VWS V14.01,2013-01-10 17:07:00,
2013-01-10 12:08:00,54.9,48.2,30.37,NE,56,0.0,4.0,78,0.00,,---,0.00,195.00,VWS V14.01,2013-01-10 17:08:00,
2013-01-10 12:09:00,55.0,48.3,30.37,NE,56,0.0,4.0,78,0.00,,---,0.00,199.00,VWS V14.01,2013-01-10 17:09:00,
2013-01-10 12:10:00,55.0,48.3,30.37,NE,56,0.0,1.0,78,0.00,,---,0.00,202.00,VWS V14.01,2013-01-10 17:10:00,
2013-01-10 12:11:00,54.7,47.6,30.37,NE,56,1.0,4.0,77,0.00,,---,0.00,185.00,VWS V14.01,2013-01-10 17:11:00,
2013-01-10 12:12:00,55.1,48.0,30.36,NE,56,1.0,2.0,77,0.00,,---,0.00,204.00,VWS V14.01,2013-01-10 17:12:00,
2013-01-10 12:13:00,55.1,48.0,30.36,NE,54,0.0,5.0,77,0.00,,---,0.00,209.00,VWS V14.01,2013-01-10 17:13:00,
2013-01-10 12:14:00,55.1,47.7,30.36,NE,51,2.0,6.0,76,0.00,,---,0.00,209.00,VWS V14.01,2013-01-10 17:14:00,
2013-01-10 12:15:00,55.1,47.3,30.36,NE,54,2.0,6.0,75,0.00,,---,0.00,209.00,VWS V14.01,2013-01-10 17:15:00,
2013-01-10 12:16:00,55.1,47.3,30.36,NE,49,5.0,6.0,75,0.00,,---,0.00,211.00,VWS V14.01,2013-01-10 17:16:00,
2013-01-10 12:17:00,55.1,47.7,30.36,ENE,59,3.0,6.0,76,0.00,,---,0.00,209.00,VWS V14.01,2013-01-10 17:17:00,
2013-01-10 12:18:00,55.1,47.7,30.36,ENE,65,3.0,6.0,76,0.00,,---,0.00,209.00,VWS V14.01,2013-01-10 17:18:00,
2013-01-10 12:19:00,55.0,48.3,30.37,NE,56,1.0,4.0,78,0.00,,---,0.00,202.00,VWS V14.01,2013-01-10 17:19:00,
2013-01-10 12:20:00,55.1,47.3,30.36,ENE,61,3.0,3.0,75,0.00,,---,0.00,207.00,VWS V14.01,2013-01-10 17:20:00,
2013-01-10 12:21:00,55.1,47.7,30.35,ENE,59,1.0,3.0,76,0.00,,---,0.00,209.00,VWS V14.01,2013-01-10 17:21:00,
2013-01-10 12:22:00,55.1,47.7,30.35,ENE,57,1.0,3.0,76,0.00,,---,0.00,207.00,VWS V14.01,2013-01-10 17:22:00,
2013-01-10 12:23:00,55.1,47.7,30.36,ENE,60,2.0,5.0,76,0.00,,---,0.00,206.00,VWS V14.01,2013-01-10 17:23:00,
2013-01-10 12:24:00,55.1,47.7,30.36,NE,55,4.0,5.0,76,0.00,,---,0.00,202.00,VWS V14.01,2013-01-10 17:24:00,
2013-01-10 12:25:00,55.1,47.3,30.36,ENE,57,5.0,6.0,75,0.00,,---,0.00,209.00,VWS V14.01,2013-01-10 17:25:00,
2013-01-10 12:26:00,55.2,47.8,30.35,ENE,58,0.0,5.0,76,0.00,,---,0.00,202.00,VWS V14.01,2013-01-10 17:26:00,
2013-01-10 12:27:00,55.2,47.8,30.35,NE,51,3.0,5.0,76,0.00,,---,0.00,204.00,VWS V14.01,2013-01-10 17:27:00,
2013-01-10 12:28:00,55.2,47.8,30.35,ENE,65,1.0,5.0,76,0.00,,---,0.00,206.00,VWS V14.01,2013-01-10 17:28:00,
2013-01-10 12:29:00,55.1,47.3,30.36,ENE,61,2.0,6.0,75,0.00,,---,0.00,207.00,VWS V14.01,2013-01-10 17:29:00,
2013-01-10 12:30:00,55.2,47.4,30.35,NE,53,1.0,2.0,75,0.00,,---,0.00,214.00,VWS V14.01,2013-01-10 17:30:00,
2013-01-10 12:31:00,55.3,47.5,30.35,NE,53,0.0,2.0,75,0.00,,---,0.00,220.00,VWS V14.01,2013-01-10 17:31:00,
2013-01-10 12:32:00,55.3,47.9,30.35,NE,53,0.0,2.0,76,0.00,,---,0.00,221.00,VWS V14.01,2013-01-10 17:32:00,
2013-01-10 12:33:00,55.3,48.2,30.35,NE,56,0.0,3.0,77,0.00,,---,0.00,223.00,VWS V14.01,2013-01-10 17:33:00,
2013-01-10 12:34:00,55.4,48.3,30.35,NE,56,0.0,3.0,77,0.00,,---,0.00,225.00,VWS V14.01,2013-01-10 17:34:00,
2013-01-10 12:35:00,55.2,47.8,30.35,ENE,58,3.0,5.0,76,0.00,,---,0.00,202.00,VWS V14.01,2013-01-10 17:35:00,
2013-01-10 12:36:00,55.5,48.1,30.35,NE,46,3.0,3.0,76,0.00,,---,0.00,229.00,VWS V14.01,2013-01-10 17:36:00,
2013-01-10 12:37:00,55.5,48.1,30.34,NE,46,0.0,3.0,76,0.00,,---,0.00,227.00,VWS V14.01,2013-01-10 17:37:00,
2013-01-10 12:38:00,55.5,48.1,30.34,NE,46,0.0,3.0,76,0.00,,---,0.00,225.00,VWS V14.01,2013-01-10 17:38:00,
2013-01-10 12:39:00,55.6,48.5,30.34,NE,51,0.0,3.0,77,0.00,,---,0.00,227.00,VWS V14.01,2013-01-10 17:39:00,
2013-01-10 12:40:00,55.7,48.6,30.34,NE,51,0.0,0.0,77,0.00,,---,0.00,225.00,VWS V14.01,2013-01-10 17:40:00,
2013-01-10 12:41:00,55.7,48.6,30.34,NE,34,2.0,4.0,77,0.00,,---,0.00,227.00,VWS V14.01,2013-01-10 17:41:00,
2013-01-10 12:42:00,55.7,47.9,30.34,NE,44,3.0,4.0,75,0.00,,---,0.00,229.00,VWS V14.01,2013-01-10 17:42:00,
2013-01-10 12:43:00,55.4,48.0,30.35,NE,56,1.0,3.0,76,0.00,,---,0.00,225.00,VWS V14.01,2013-01-10 17:43:00,
2013-01-10 12:44:00,55.8,48.4,30.34,NE,47,0.0,5.0,76,0.00,,---,0.00,250.00,VWS V14.01,2013-01-10 17:44:00,
2013-01-10 12:45:00,55.9,48.5,30.34,NNE,30,0.0,5.0,76,0.00,,---,0.00,250.00,VWS V14.01,2013-01-10 17:45:00,
2013-01-10 12:46:00,55.9,48.8,30.33,NNE,31,1.0,5.0,77,0.00,,---,0.00,251.00,VWS V14.01,2013-01-10 17:46:00,
2013-01-10 12:47:00,56.0,48.9,30.34,NNE,27,0.0,5.0,77,0.00,,---,0.00,251.00,VWS V14.01,2013-01-10 17:47:00,
2013-01-10 12:48:00,56.0,48.9,30.34,NNE,32,0.0,5.0,77,0.00,,---,0.00,248.00,VWS V14.01,2013-01-10 17:48:00,
2013-01-10 12:49:00,55.6,48.5,30.34,NE,51,0.0,3.0,77,0.00,,---,0.00,227.00,VWS V14.01,2013-01-10 17:49:00,
2013-01-10 12:50:00,56.2,48.8,30.34,NNE,31,1.0,2.0,76,0.00,,---,0.00,237.00,VWS V14.01,2013-01-10 17:50:00,
2013-01-10 12:51:00,56.2,48.8,30.33,NE,38,1.0,5.0,76,0.00,,---,0.00,236.00,VWS V14.01,2013-01-10 17:51:00,
2013-01-10 12:52:00,56.3,48.8,30.33,NE,38,1.0,5.0,76,0.00,,---,0.00,236.00,VWS V14.01,2013-01-10 17:52:00,
2013-01-10 12:53:00,56.3,48.8,30.33,NE,38,0.0,5.0,76,0.00,,---,0.00,236.00,VWS V14.01,2013-01-10 17:53:00,
2013-01-10 12:54:00,56.4,49.3,30.33,NE,38,0.0,5.0,77,0.00,,---,0.00,239.00,VWS V14.01,2013-01-10 17:54:00,
2013-01-10 12:55:00,55.9,48.8,30.34,NNE,30,0.0,5.0,77,0.00,,---,0.00,251.00,VWS V14.01,2013-01-10 17:55:00,
2013-01-10 12:56:00,56.4,49.3,30.33,NE,38,1.0,5.0,77,0.00,,---,0.00,237.00,VWS V14.01,2013-01-10 17:56:00,
2013-01-10 12:57:00,56.5,49.4,30.33,NE,38,1.0,5.0,77,0.00,,---,0.00,237.00,VWS V14.01,2013-01-10 17:57:00,
2013-01-10 12:58:00,56.6,49.5,30.33,NE,38,0.0,5.0,77,0.00,,---,0.00,237.00,VWS V14.01,2013-01-10 17:58:00,
2013-01-10 12:59:00,56.6,49.5,30.33,NE,38,1.0,5.0,77,0.00,,---,0.00,239.00,VWS V14.01,2013-01-10 17:59:00,
2013-01-10 13:00:00,56.7,49.2,30.33,NE,39,1.0,1.0,76,0.00,,---,0.00,239.00,VWS V14.01,2013-01-10 18:00:00,
2013-01-10 13:01:00,56.2,48.8,30.33,NE,38,4.0,5.0,76,0.00,,---,0.00,236.00,VWS V14.01,2013-01-10 18:01:00,
2013-01-10 13:02:00,56.8,50.0,30.33,NE,39,4.0,4.0,78,0.00,,---,0.00,243.00,VWS V14.01,2013-01-10 18:02:00,
2013-01-10 13:03:00,56.8,49.0,30.32,NE,40,0.0,4.0,75,0.00,,---,0.00,243.00,VWS V14.01,2013-01-10 18:03:00,
2013-01-10 13:04:00,56.8,49.3,30.33,ENE,63,2.0,4.0,76,0.00,,---,0.00,241.00,VWS V14.01,2013-01-10 18:04:00,
2013-01-10 13:05:00,56.9,49.4,30.32,ENE,63,0.0,4.0,76,0.00,,---,0.00,236.00,VWS V14.01,2013-01-10 18:05:00,
2013-01-10 13:06:00,56.9,49.4,30.32,ENE,63,1.0,4.0,76,0.00,,---,0.00,232.00,VWS V14.01,2013-01-10 18:06:00,
2013-01-10 13:07:00,56.6,49.5,30.33,NE,38,0.0,5.0,77,0.00,,---,0.00,237.00,VWS V14.01,2013-01-10 18:07:00,
2013-01-10 13:08:00,56.9,49.4,30.32,ENE,63,0.0,4.0,76,0.00,,---,0.00,237.00,VWS V14.01,2013-01-10 18:08:00,
2013-01-10 13:09:00,57.0,49.9,30.32,ENE,63,0.0,4.0,77,0.00,,---,0.00,239.00,VWS V14.01,2013-01-10 18:09:00,
2013-01-10 13:10:00,57.1,50.3,30.32,ENE,63,0.0,0.0,78,0.00,,---,0.00,236.00,VWS V14.01,2013-01-10 18:10:00,
2013-01-10 13:11:00,57.1,50.3,30.32,ENE,63,0.0,0.0,78,0.00,,---,0.00,232.00,VWS V14.01,2013-01-10 18:11:00,
2013-01-10 13:12:00,57.1,50.0,30.32,ENE,63,0.0,1.0,77,0.00,,---,0.00,232.00,VWS V14.01,2013-01-10 18:12:00,
2013-01-10 13:13:00,56.8,49.7,30.32,NE,40,0.0,4.0,77,0.00,,---,0.00,243.00,VWS V14.01,2013-01-10 18:13:00,
2013-01-10 13:14:00,57.3,50.5,30.32,ENE,63,0.0,1.0,78,0.00,,---,0.00,225.00,VWS V14.01,2013-01-10 18:14:00,
2013-01-10 13:15:00,57.4,50.6,30.32,ENE,63,1.0,1.0,78,0.00,,---,0.00,223.00,VWS V14.01,2013-01-10 18:15:00,
2013-01-10 13:16:00,57.4,50.6,30.32,ENE,63,0.0,1.0,78,0.00,,---,0.00,225.00,VWS V14.01,2013-01-10 18:16:00,
2013-01-10 13:17:00,57.5,50.4,30.32,ENE,63,0.0,1.0,77,0.00,,---,0.00,223.00,VWS V14.01,2013-01-10 18:17:00,
2013-01-10 13:18:00,57.0,49.5,30.32,ENE,63,1.0,4.0,76,0.00,,---,0.00,239.00,VWS V14.01,2013-01-10 18:18:00,
2013-01-10 13:19:00,57.6,50.5,30.32,ENE,63,0.0,1.0,77,0.00,,---,0.00,225.00,VWS V14.01,2013-01-10 18:19:00,
2013-01-10 13:20:00,57.6,50.5,30.32,ENE,63,0.0,1.0,77,0.00,,---,0.00,220.00,VWS V14.01,2013-01-10 18:20:00,
2013-01-10 13:21:00,57.7,50.5,30.32,ENE,63,0.0,1.0,77,0.00,,---,0.00,220.00,VWS V14.01,2013-01-10 18:21:00,
2013-01-10 13:22:00,57.7,50.5,30.32,ENE,63,1.0,1.0,77,0.00,,---,0.00,218.00,VWS V14.01,2013-01-10 18:22:00,
2013-01-10 13:23:00,57.3,50.5,30.32,ENE,63,0.0,1.0,78,0.00,,---,0.00,225.00,VWS V14.01,2013-01-10 18:23:00,
2013-01-10 13:24:00,57.8,50.3,30.31,ENE,63,0.0,2.0,76,0.00,,---,0.00,221.00,VWS V14.01,2013-01-10 18:24:00,
2013-01-10 13:25:00,57.9,50.4,30.31,ENE,63,1.0,2.0,76,0.00,,---,0.00,221.00,VWS V14.01,2013-01-10 18:25:00,
2013-01-10 13:26:00,57.9,50.0,30.31,ENE,63,0.0,2.0,75,0.00,,---,0.00,225.00,VWS V14.01,2013-01-10 18:26:00,
2013-01-10 13:27:00,57.9,50.0,30.31,ENE,63,0.0,2.0,75,0.00,,---,0.00,214.00,VWS V14.01,2013-01-10 18:27:00,
2013-01-10 13:28:00,57.9,50.0,30.31,ENE,63,0.0,2.0,75,0.00,,---,0.00,202.00,VWS V14.01,2013-01-10 18:28:00,
2013-01-10 13:29:00,57.6,50.5,30.32,ENE,63,1.0,1.0,77,0.00,,---,0.00,220.00,VWS V14.01,2013-01-10 18:29:00,
2013-01-10 13:30:00,58.0,50.5,30.31,ENE,63,0.0,0.0,76,0.00,,---,0.00,188.00,VWS V14.01,2013-01-10 18:30:00,
2013-01-10 13:31:00,58.0,50.5,30.31,ENE,63,0.0,0.0,76,0.00,,---,0.00,183.00,VWS V14.01,2013-01-10 18:31:00,
2013-01-10 13:32:00,58.1,50.9,30.31,ENE,63,0.0,0.0,77,0.00,,---,0.00,174.00,VWS V14.01,2013-01-10 18:32:00,
2013-01-10 13:33:00,58.1,50.6,30.31,ENE,63,0.0,1.0,76,0.00,,---,0.00,169.00,VWS V14.01,2013-01-10 18:33:00,
2013-01-10 13:34:00,58.1,50.6,30.31,ENE,63,1.0,1.0,76,0.00,,---,0.00,163.00,VWS V14.01,2013-01-10 18:34:00,
2013-01-10 13:35:00,58.1,50.6,30.31,ENE,63,0.0,1.0,76,0.00,,---,0.00,156.00,VWS V14.01,2013-01-10 18:35:00,
2013-01-10 13:36:00,58.2,50.7,30.31,ENE,63,0.0,3.0,76,0.00,,---,0.00,155.00,VWS V14.01,2013-01-10 18:36:00,
2013-01-10 13:37:00,57.9,50.0,30.31,ENE,63,0.0,2.0,75,0.00,,---,0.00,202.00,VWS V14.01,2013-01-10 18:37:00,
2013-01-10 13:38:00,58.1,50.6,30.31,ENE,63,1.0,3.0,76,0.00,,---,0.00,151.00,VWS V14.01,2013-01-10 18:38:00,
2013-01-10 13:39:00,58.1,50.2,30.31,ENE,63,0.0,3.0,75,0.00,,---,0.00,151.00,VWS V14.01,2013-01-10 18:39:00,
2013-01-10 13:40:00,58.1,50.9,30.31,ENE,63,0.0,0.0,77,0.00,,---,0.00,151.00,VWS V14.01,2013-01-10 18:40:00,
2013-01-10 13:41:00,58.1,50.2,30.31,ENE,63,0.0,2.0,75,0.00,,---,0.00,151.00,VWS V14.01,2013-01-10 18:41:00,
2013-01-10 13:42:00,58.1,50.2,30.31,ENE,63,3.0,3.0,75,0.00,,---,0.00,149.00,VWS V14.01,2013-01-10 18:42:00,
2013-01-10 13:43:00,58.1,50.2,30.31,ENE,63,0.0,3.0,75,0.00,,---,0.00,149.00,VWS V14.01,2013-01-10 18:43:00,
2013-01-10 13:44:00,58.1,49.9,30.31,ENE,63,0.0,3.0,74,0.00,,---,0.00,148.00,VWS V14.01,2013-01-10 18:44:00,
2013-01-10 13:45:00,58.0,50.1,30.31,ENE,63,0.0,4.0,75,0.00,,---,0.00,146.00,VWS V14.01,2013-01-10 18:45:00,
2013-01-10 13:46:00,58.1,50.6,30.31,ENE,63,1.0,3.0,76,0.00,,---,0.00,153.00,VWS V14.01,2013-01-10 18:46:00,
2013-01-10 13:47:00,58.0,50.5,30.31,ENE,63,0.0,4.0,76,0.00,,---,0.00,141.00,VWS V14.01,2013-01-10 18:47:00,
2013-01-10 13:48:00,58.0,50.1,30.31,NE,44,3.0,4.0,75,0.00,,---,0.00,141.00,VWS V14.01,2013-01-10 18:48:00,
2013-01-10 13:49:00,58.0,50.1,30.31,NE,44,1.0,4.0,75,0.00,,---,0.00,139.00,VWS V14.01,2013-01-10 18:49:00,
2013-01-10 13:50:00,58.0,50.1,30.31,NE,48,0.0,2.0,75,0.00,,---,0.00,137.00,VWS V14.01,2013-01-10 18:50:00,
2013-01-10 13:51:00,58.0,50.5,30.31,NE,51,0.0,4.0,76,0.00,,---,0.00,135.00,VWS V14.01,2013-01-10 18:51:00,
2013-01-10 13:52:00,58.1,50.2,30.31,ENE,63,0.0,2.0,75,0.00,,---,0.00,149.00,VWS V14.01,2013-01-10 18:52:00,
2013-01-10 13:53:00,57.9,50.0,30.30,NE,52,2.0,4.0,75,0.00,,---,0.00,130.00,VWS V14.01,2013-01-10 18:53:00,
2013-01-10 13:54:00,57.9,50.0,30.31,NE,52,0.0,4.0,75,0.00,,---,0.00,127.00,VWS V14.01,2013-01-10 18:54:00,
2013-01-10 13:55:00,57.9,50.0,30.31,NE,53,0.0,4.0,75,0.00,,---,0.00,125.00,VWS V14.01,2013-01-10 18:55:00,
2013-01-10 13:56:00,57.8,50.3,30.31,NE,53,0.0,4.0,76,0.00,,---,0.00,123.00,VWS V14.01,2013-01-10 18:56:00,
2013-01-10 13:57:00,58.0,50.1,30.31,ENE,63,0.0,4.0,75,0.00,,---,0.00,141.00,VWS V14.01,2013-01-10 18:57:00,
2013-01-10 13:58:00,57.9,50.4,30.30,NE,53,1.0,4.0,76,0.00,,---,0.00,120.00,VWS V14.01,2013-01-10 18:58:00,
2013-01-10 13:59:00,57.8,49.9,30.31,NE,53,0.0,4.0,75,0.00,,---,0.00,120.00,VWS V14.01,2013-01-10 18:59:00,
2013-01-10 14:00:00,57.8,50.3,30.30,NE,53,0.0,0.0,76,0.00,,---,0.00,120.00,VWS V14.01,2013-01-10 19:00:00,
2013-01-10 14:01:00,57.9,50.4,30.31,NE,53,0.0,1.0,76,0.00,,---,0.00,118.00,VWS V14.01,2013-01-10 19:01:00,
2013-01-10 14:02:00,57.8,50.3,30.30,NE,53,0.0,1.0,76,0.00,,---,0.00,118.00,VWS V14.01,2013-01-10 19:02:00,
2013-01-10 14:03:00,57.9,50.4,30.30,NE,53,1.0,1.0,76,0.00,,---,0.00,116.00,VWS V14.01,2013-01-10 19:03:00,
2013-01-10 14:04:00,57.9,50.4,30.30,NE,53,0.0,1.0,76,0.00,,---,0.00,114.00,VWS V14.01,2013-01-10 19:04:00,
2013-01-10 14:05:00,57.9,50.4,30.30,NE,53,0.0,1.0,76,0.00,,---,0.00,107.00,VWS V14.01,2013-01-10 19:05:00,
2013-01-10 14:06:00,57.9,50.4,30.31,NE,53,0.0,4.0,76,0.00,,---,0.00,121.00,VWS V14.01,2013-01-10 19:06:00,
2013-01-10 14:07:00,57.9,50.7,30.30,NE,53,0.0,1.0,77,0.00,,---,0.00,100.00,VWS V14.01,2013-01-10 19:07:00,
2013-01-10 14:08:00,58.0,50.8,30.30,NE,53,0.0,1.0,77,0.00,,---,0.00,98.00,VWS V14.01,2013-01-10 19:08:00,
2013-01-10 14:09:00,58.0,50.8,30.30,NE,53,0.0,1.0,77,0.00,,---,0.00,95.00,VWS V14.01,2013-01-10 19:09:00,
2013-01-10 14:10:00,58.0,50.8,30.30,NE,53,0.0,0.0,77,0.00,,---,0.00,91.00,VWS V14.01,2013-01-10 19:10:00,
2013-01-10 14:11:00,58.0,50.8,30.30,NE,53,0.0,2.0,77,0.00,,---,0.00,90.00,VWS V14.01,2013-01-10 19:11:00,
2013-01-10 14:12:00,57.9,50.4,30.30,NE,53,0.0,1.0,76,0.00,,---,0.00,118.00,VWS V14.01,2013-01-10 19:12:00,
2013-01-10 14:13:00,58.0,50.8,30.30,NE,53,0.0,2.0,77,0.00,,---,0.00,84.00,VWS V14.01,2013-01-10 19:13:00,
2013-01-10 14:14:00,58.0,50.8,30.30,NE,54,1.0,3.0,77,0.00,,---,0.00,83.00,VWS V14.01,2013-01-10 19:14:00,
2013-01-10 14:15:00,58.1,50.6,30.30,NE,54,0.0,3.0,76,0.00,,---,0.00,81.00,VWS V14.01,2013-01-10 19:15:00,
2013-01-10 14:16:00,58.0,50.8,30.30,NE,54,0.0,4.0,77,0.00,,---,0.00,76.00,VWS V14.01,2013-01-10 19:16:00,
2013-01-10 14:17:00,58.0,50.5,30.30,NE,54,0.0,4.0,76,0.00,,---,0.00,74.00,VWS V14.01,2013-01-10 19:17:00,
2013-01-10 14:18:00,58.0,50.8,30.30,NE,53,0.0,1.0,77,0.00,,---,0.00,95.00,VWS V14.01,2013-01-10 19:18:00,
2013-01-10 14:19:00,58.0,50.8,30.30,NE,54,0.0,4.0,77,0.00,,---,0.00,72.00,VWS V14.01,2013-01-10 19:19:00,
2013-01-10 14:20:00,58.0,50.8,30.30,NE,54,0.0,0.0,77,0.00,,---,0.00,72.00,VWS V14.01,2013-01-10 19:20:00,
2013-01-10 14:21:00,58.0,50.5,30.30,NE,54,0.0,2.0,76,0.00,,---,0.00,74.00,VWS V14.01,2013-01-10 19:21:00,
2013-01-10 14:22:00,58.0,50.8,30.30,NE,54,0.0,2.0,77,0.00,,---,0.00,74.00,VWS V14.01,2013-01-10 19:22:00,
2013-01-10 14:23:00,58.0,50.8,30.30,NE,54,0.0,2.0,77,0.00,,---,0.00,76.00,VWS V14.01,2013-01-10 19:23:00,
2013-01-10 14:24:00,58.0,50.8,30.30,NE,54,0.0,2.0,77,0.00,,---,0.00,77.00,VWS V14.01,2013-01-10 19:24:00,
2013-01-10 14:25:00,58.0,50.8,30.30,NE,54,0.0,2.0,77,0.00,,---,0.00,79.00,VWS V14.01,2013-01-10 19:25:00,
2013-01-10 14:26:00,58.0,50.8,30.30,NE,54,0.0,2.0,77,0.00,,---,0.00,79.00,VWS V14.01,2013-01-10 19:26:00,
2013-01-10 14:27:00,58.0,51.2,30.30,NE,54,0.0,2.0,78,0.00,,---,0.00,83.00,VWS V14.01,2013-01-10 19:27:00,
2013-01-10 14:28:00,58.0,50.5,30.30,NE,54,0.0,4.0,76,0.00,,---,0.00,72.00,VWS V14.01,2013-01-10 19:28:00,
2013-01-10 14:29:00,58.0,51.2,30.30,NE,54,0.0,2.0,78,0.00,,---,0.00,86.00,VWS V14.01,2013-01-10 19:29:00,
2013-01-10 14:30:00,58.0,51.2,30.30,NE,54,0.0,0.0,78,0.00,,---,0.00,90.00,VWS V14.01,2013-01-10 19:30:00,
2013-01-10 14:31:00,58.0,50.8,30.30,NE,54,0.0,0.0,77,0.00,,---,0.00,90.00,VWS V14.01,2013-01-10 19:31:00,
2013-01-10 14:32:00,58.0,50.8,30.30,NE,54,0.0,0.0,77,0.00,,---,0.00,90.00,VWS V14.01,2013-01-10 19:32:00,
2013-01-10 14:33:00,58.0,50.8,30.30,NE,54,0.0,0.0,77,0.00,,---,0.00,90.00,VWS V14.01,2013-01-10 19:33:00,
2013-01-10 14:34:00,58.0,50.8,30.30,NE,54,0.0,0.0,77,0.00,,---,0.00,90.00,VWS V14.01,2013-01-10 19:34:00,
2013-01-10 14:35:00,58.0,50.8,30.30,NE,54,0.0,2.0,77,0.00,,---,0.00,79.00,VWS V14.01,2013-01-10 19:35:00,
2013-01-10 14:36:00,58.0,50.8,30.30,NE,54,0.0,1.0,77,0.00,,---,0.00,90.00,VWS V14.01,2013-01-10 19:36:00,
2013-01-10 14:37:00,58.0,50.8,30.30,NE,54,0.0,1.0,77,0.00,,---,0.00,91.00,VWS V14.01,2013-01-10 19:37:00,
2013-01-10 14:38:00,58.0,50.8,30.30,NE,54,0.0,1.0,77,0.00,,---,0.00,93.00,VWS V14.01,2013-01-10 19:38:00,
2013-01-10 14:39:00,58.0,50.8,30.30,NE,54,0.0,1.0,77,0.00,,---,0.00,95.00,VWS V14.01,2013-01-10 19:39:00,
2013-01-10 14:40:00,58.0,50.8,30.30,NE,54,0.0,0.0,77,0.00,,---,0.00,100.00,VWS V14.01,2013-01-10 19:40:00,
2013-01-10 14:41:00,58.0,51.2,30.30,NE,54,1.0,2.0,78,0.00,,---,0.00,102.00,VWS V14.01,2013-01-10 19:41:00,
2013-01-10 14:42:00,58.0,50.8,30.30,NE,54,0.0,2.0,77,0.00,,---,0.00,104.00,VWS V14.01,2013-01-10 19:42:00,
2013-01-10 14:43:00,58.0,50.8,30.30,NE,54,0.0,2.0,77,0.00,,---,0.00,105.00,VWS V14.01,2013-01-10 19:43:00,
2013-01-10 14:44:00,58.0,51.2,30.30,NE,54,0.0,0.0,78,0.00,,---,0.00,90.00,VWS V14.01,2013-01-10 19:44:00,
2013-01-10 14:45:00,58.0,51.2,30.30,NE,54,0.0,2.0,78,0.00,,---,0.00,113.00,VWS V14.01,2013-01-10 19:45:00,
2013-01-10 14:46:00,58.1,51.3,30.30,NE,54,0.0,2.0,78,0.00,,---,0.00,120.00,VWS V14.01,2013-01-10 19:46:00,
2013-01-10 14:47:00,58.1,51.3,30.30,NE,54,0.0,2.0,78,0.00,,---,0.00,121.00,VWS V14.01,2013-01-10 19:47:00,
2013-01-10 14:48:00,58.1,51.3,30.30,NE,54,0.0,2.0,78,0.00,,---,0.00,125.00,VWS V14.01,2013-01-10 19:48:00,
2013-01-10 14:49:00,58.0,50.8,30.30,NE,54,1.0,1.0,77,0.00,,---,0.00,98.00,VWS V14.01,2013-01-10 19:49:00,
2013-01-10 14:50:00,58.1,51.3,30.30,NE,54,0.0,0.0,78,0.00,,---,0.00,127.00,VWS V14.01,2013-01-10 19:50:00,
2013-01-10 14:51:00,58.1,51.3,30.30,NE,54,0.0,0.0,78,0.00,,---,0.00,127.00,VWS V14.01,2013-01-10 19:51:00,
2013-01-10 14:52:00,58.2,51.4,30.30,NE,54,0.0,0.0,78,0.00,,---,0.00,125.00,VWS V14.01,2013-01-10 19:52:00,
2013-01-10 14:53:00,58.2,51.4,30.30,NE,54,0.0,0.0,78,0.00,,---,0.00,125.00,VWS V14.01,2013-01-10 19:53:00,
2013-01-10 14:54:00,58.2,51.4,30.30,NE,54,0.0,0.0,78,0.00,,---,0.00,125.00,VWS V14.01,2013-01-10 19:54:00,
2013-01-10 14:55:00,58.2,51.4,30.30,NE,54,0.0,0.0,78,0.00,,---,0.00,125.00,VWS V14.01,2013-01-10 19:55:00,
2013-01-10 14:56:00,58.2,51.0,30.30,NE,54,0.0,1.0,77,0.00,,---,0.00,127.00,VWS V14.01,2013-01-10 19:56:00,
2013-01-10 14:57:00,58.3,51.5,30.30,NE,54,0.0,1.0,78,0.00,,---,0.00,128.00,VWS V14.01,2013-01-10 19:57:00,
2013-01-10 14:58:00,58.3,51.5,30.30,NE,54,0.0,1.0,78,0.00,,---,0.00,130.00,VWS V14.01,2013-01-10 19:58:00,
2013-01-10 14:59:00,58.3,51.1,30.30,NE,54,0.0,1.0,77,0.00,,---,0.00,132.00,VWS V14.01,2013-01-10 19:59:00,
2013-01-10 15:00:00,58.1,51.3,30.30,NE,54,0.0,2.0,78,0.00,,---,0.00,127.00,VWS V14.01,2013-01-10 20:00:00,
2013-01-10 15:01:00,58.4,51.6,30.30,NE,54,0.0,1.0,78,0.00,,---,0.00,137.00,VWS V14.01,2013-01-10 20:01:00,
2013-01-10 15:02:00,58.4,51.6,30.30,NE,54,0.0,1.0,78,0.00,,---,0.00,139.00,VWS V14.01,2013-01-10 20:02:00,
2013-01-10 15:03:00,58.5,51.3,30.30,NE,54,0.0,1.0,77,0.00,,---,0.00,141.00,VWS V14.01,2013-01-10 20:03:00,
2013-01-10 15:04:00,58.5,51.7,30.30,NE,54,0.0,1.0,78,0.00,,---,0.00,141.00,VWS V14.01,2013-01-10 20:04:00,
2013-01-10 15:05:00,58.6,51.8,30.30,NE,54,0.0,1.0,78,0.00,,---,0.00,141.00,VWS V14.01,2013-01-10 20:05:00,
2013-01-10 15:06:00,58.6,51.8,30.30,NE,54,0.0,1.0,78,0.00,,---,0.00,139.00,VWS V14.01,2013-01-10 20:06:00,
2013-01-10 15:07:00,58.6,51.8,30.29,NE,54,0.0,1.0,78,0.00,,---,0.00,139.00,VWS V14.01,2013-01-10 20:07:00,
2013-01-10 15:08:00,58.3,51.1,30.30,NE,54,0.0,1.0,77,0.00,,---,0.00,132.00,VWS V14.01,2013-01-10 20:08:00,
2013-01-10 15:09:00,58.7,51.9,30.30,NE,54,0.0,1.0,78,0.00,,---,0.00,139.00,VWS V14.01,2013-01-10 20:09:00,
2013-01-10 15:10:00,58.7,51.9,30.30,NE,54,0.0,1.0,78,0.00,,---,0.00,139.00,VWS V14.01,2013-01-10 20:10:00,
2013-01-10 15:11:00,58.8,52.0,30.30,NE,54,0.0,1.0,78,0.00,,---,0.00,141.00,VWS V14.01,2013-01-10 20:11:00,
2013-01-10 15:12:00,58.8,51.6,30.29,NE,54,0.0,1.0,77,0.00,,---,0.00,158.00,VWS V14.01,2013-01-10 20:12:00,
2013-01-10 15:13:00,58.8,51.6,30.30,NE,54,0.0,1.0,77,0.00,,---,0.00,158.00,VWS V14.01,2013-01-10 20:13:00,
2013-01-10 15:14:00,58.9,52.1,30.29,NE,54,0.0,1.0,78,0.00,,---,0.00,155.00,VWS V14.01,2013-01-10 20:14:00,
2013-01-10 15:15:00,58.9,52.1,30.30,NE,54,0.0,1.0,78,0.00,,---,0.00,165.00,VWS V14.01,2013-01-10 20:15:00,
2013-01-10 15:16:00,58.6,52.1,30.30,NE,54,0.0,1.0,79,0.00,,---,0.00,139.00,VWS V14.01,2013-01-10 20:16:00,
2013-01-10 15:17:00,59.0,51.8,30.30,NE,54,0.0,1.0,77,0.00,,---,0.00,174.00,VWS V14.01,2013-01-10 20:17:00,
2013-01-10 15:18:00,59.0,51.5,30.30,NE,54,0.0,3.0,76,0.00,,---,0.00,174.00,VWS V14.01,2013-01-10 20:18:00,
2013-01-10 15:19:00,59.0,51.5,30.30,NE,54,0.0,3.0,76,0.00,,---,0.00,174.00,VWS V14.01,2013-01-10 20:19:00,
2013-01-10 15:20:00,59.1,51.5,30.30,NE,54,0.0,1.0,76,0.00,,---,0.00,174.00,VWS V14.01,2013-01-10 20:20:00,
2013-01-10 15:21:00,59.1,51.9,30.30,NE,54,0.0,1.0,77,0.00,,---,0.00,176.00,VWS V14.01,2013-01-10 20:21:00,
2013-01-10 15:22:00,59.1,51.9,30.30,NE,54,0.0,1.0,77,0.00,,---,0.00,178.00,VWS V14.01,2013-01-10 20:22:00,
2013-01-10 15:23:00,59.2,51.7,30.30,NE,54,0.0,1.0,76,0.00,,---,0.00,183.00,VWS V14.01,2013-01-10 20:23:00,
2013-01-10 15:24:00,59.3,51.4,30.30,NE,54,0.0,2.0,75,0.00,,---,0.00,183.00,VWS V14.01,2013-01-10 20:24:00,
2013-01-10 15:25:00,59.3,51.4,30.30,NE,52,0.0,3.0,75,0.00,,---,0.00,178.00,VWS V14.01,2013-01-10 20:25:00,
2013-01-10 15:26:00,59.0,51.8,30.30,NE,54,0.0,1.0,77,0.00,,---,0.00,174.00,VWS V14.01,2013-01-10 20:26:00,
2013-01-10 15:27:00,59.4,51.5,30.30,ENE,57,0.0,3.0,75,0.00,,---,0.00,172.00,VWS V14.01,2013-01-10 20:27:00,
2013-01-10 15:28:00,59.4,51.5,30.30,ENE,58,2.0,3.0,75,0.00,,---,0.00,171.00,VWS V14.01,2013-01-10 20:28:00,
2013-01-10 15:29:00,59.5,51.2,30.30,NE,56,0.0,3.0,74,0.00,,---,0.00,169.00,VWS V14.01,2013-01-10 20:29:00,
2013-01-10 15:30:00,59.5,51.2,30.30,ENE,57,1.0,1.0,74,0.00,,---,0.00,169.00,VWS V14.01,2013-01-10 20:30:00,
2013-01-10 15:31:00,59.5,50.8,30.30,ENE,57,0.0,1.0,73,0.00,,---,0.00,169.00,VWS V14.01,2013-01-10 20:31:00,
2013-01-10 15:32:00,59.2,52.0,30.30,NE,54,1.0,1.0,77,0.00,,---,0.00,185.00,VWS V14.01,2013-01-10 20:32:00,
2013-01-10 15:33:00,59.6,51.3,30.30,ENE,57,0.0,2.0,74,0.00,,---,0.00,167.00,VWS V14.01,2013-01-10 20:33:00,
2013-01-10 15:34:00,59.6,51.3,30.30,ENE,57,1.0,2.0,74,0.00,,---,0.00,165.00,VWS V14.01,2013-01-10 20:34:00,
2013-01-10 15:35:00,59.6,51.3,30.30,ENE,57,1.0,2.0,74,0.00,,---,0.00,167.00,VWS V14.01,2013-01-10 20:35:00,
2013-01-10 15:36:00,59.7,51.4,30.30,ENE,60,0.0,3.0,74,0.00,,---,0.00,178.00,VWS V14.01,2013-01-10 20:36:00,
2013-01-10 15:37:00,59.4,51.5,30.30,ENE,59,0.0,3.0,75,0.00,,---,0.00,171.00,VWS V14.01,2013-01-10 20:37:00,
2013-01-10 15:38:00,59.7,51.4,30.30,ENE,57,0.0,3.0,74,0.00,,---,0.00,165.00,VWS V14.01,2013-01-10 20:38:00,
2013-01-10 15:39:00,59.7,51.4,30.30,ENE,57,0.0,3.0,74,0.00,,---,0.00,162.00,VWS V14.01,2013-01-10 20:39:00,
2013-01-10 15:40:00,59.8,51.5,30.30,ENE,57,0.0,0.0,74,0.00,,---,0.00,163.00,VWS V14.01,2013-01-10 20:40:00,
2013-01-10 15:41:00,59.8,51.5,30.30,ENE,57,1.0,2.0,74,0.00,,---,0.00,186.00,VWS V14.01,2013-01-10 20:41:00,
2013-01-10 15:42:00,59.8,51.1,30.30,ENE,57,0.0,2.0,73,0.00,,---,0.00,223.00,VWS V14.01,2013-01-10 20:42:00,
2013-01-10 15:43:00,59.8,51.1,30.30,ENE,57,0.0,2.0,73,0.00,,---,0.00,186.00,VWS V14.01,2013-01-10 20:43:00,
2013-01-10 15:44:00,59.6,51.3,30.30,ENE,57,0.0,2.0,74,0.00,,---,0.00,167.00,VWS V14.01,2013-01-10 20:44:00,
2013-01-10 15:45:00,59.9,51.6,30.30,ENE,57,0.0,2.0,74,0.00,,---,0.00,178.00,VWS V14.01,2013-01-10 20:45:00,
2013-01-10 15:46:00,59.9,51.6,30.30,ENE,57,1.0,2.0,74,0.00,,---,0.00,195.00,VWS V14.01,2013-01-10 20:46:00,
2013-01-10 15:47:00,60.0,51.7,30.30,ENE,57,1.0,2.0,74,0.00,,---,0.00,207.00,VWS V14.01,2013-01-10 20:47:00,
2013-01-10 15:48:00,60.0,51.3,30.29,ENE,57,2.0,5.0,73,0.00,,---,0.00,202.00,VWS V14.01,2013-01-10 20:48:00,
2013-01-10 15:49:00,59.8,51.5,30.30,ENE,57,0.0,3.0,74,0.00,,---,0.00,163.00,VWS V14.01,2013-01-10 20:49:00,
2013-01-10 15:50:00,60.1,51.8,30.29,ENE,59,2.0,2.0,74,0.00,,---,0.00,160.00,VWS V14.01,2013-01-10 20:50:00,
2013-01-10 15:51:00,60.1,51.4,30.30,ENE,59,0.0,2.0,73,0.00,,---,0.00,155.00,VWS V14.01,2013-01-10 20:51:00,
2013-01-10 15:52:00,60.2,51.5,30.30,ENE,59,0.0,2.0,73,0.00,,---,0.00,151.00,VWS V14.01,2013-01-10 20:52:00,
2013-01-10 15:53:00,60.2,51.5,30.30,ENE,59,1.0,2.0,73,0.00,,---,0.00,146.00,VWS V14.01,2013-01-10 20:53:00,
2013-01-10 15:54:00,60.2,51.5,30.30,ENE,59,0.0,2.0,73,0.00,,---,0.00,142.00,VWS V14.01,2013-01-10 20:54:00,
2013-01-10 15:55:00,59.9,51.6,30.30,ENE,57,0.0,2.0,74,0.00,,---,0.00,178.00,VWS V14.01,2013-01-10 20:55:00,
2013-01-10 15:56:00,60.2,51.5,30.30,ENE,59,0.0,2.0,73,0.00,,---,0.00,142.00,VWS V14.01,2013-01-10 20:56:00,
2013-01-10 15:57:00,60.2,51.5,30.30,ENE,59,0.0,2.0,73,0.00,,---,0.00,141.00,VWS V14.01,2013-01-10 20:57:00,
2013-01-10 15:58:00,60.2,51.9,30.30,ENE,59,0.0,2.0,74,0.00,,---,0.00,137.00,VWS V14.01,2013-01-10 20:58:00,
2013-01-10 15:59:00,60.2,51.5,30.30,ENE,59,0.0,2.0,73,0.00,,---,0.00,137.00,VWS V14.01,2013-01-10 20:59:00,
2013-01-10 16:00:00,60.2,51.9,30.30,ENE,59,0.0,0.0,74,0.00,,---,0.00,134.00,VWS V14.01,2013-01-10 21:00:00,
2013-01-10 16:01:00,60.2,51.9,30.30,ENE,59,0.0,0.0,74,0.00,,---,0.00,130.00,VWS V14.01,2013-01-10 21:01:00,
2013-01-10 16:02:00,60.2,51.9,30.30,ENE,59,0.0,1.0,74,0.00,,---,0.00,128.00,VWS V14.01,2013-01-10 21:02:00,
2013-01-10 16:03:00,60.2,51.5,30.30,ENE,59,0.0,2.0,73,0.00,,---,0.00,142.00,VWS V14.01,2013-01-10 21:03:00,
2013-01-10 16:04:00,60.2,51.5,30.30,ENE,59,0.0,2.0,73,0.00,,---,0.00,130.00,VWS V14.01,2013-01-10 21:04:00,
2013-01-10 16:05:00,60.2,52.3,30.29,ENE,59,0.0,2.0,75,0.00,,---,0.00,165.00,VWS V14.01,2013-01-10 21:05:00,
2013-01-10 16:06:00,60.2,52.3,30.29,ENE,59,0.0,2.0,75,0.00,,---,0.00,167.00,VWS V14.01,2013-01-10 21:06:00,
2013-01-10 16:07:00,60.2,51.9,30.29,ENE,59,0.0,2.0,74,0.00,,---,0.00,167.00,VWS V14.01,2013-01-10 21:07:00,
2013-01-10 16:08:00,60.2,51.9,30.29,ENE,59,0.0,2.0,74,0.00,,---,0.00,183.00,VWS V14.01,2013-01-10 21:08:00,
2013-01-10 16:09:00,60.2,51.9,30.30,ENE,59,0.0,2.0,74,0.00,,---,0.00,134.00,VWS V14.01,2013-01-10 21:09:00,
2013-01-10 16:10:00,60.3,52.0,30.30,ENE,59,0.0,0.0,74,0.00,,---,0.00,153.00,VWS V14.01,2013-01-10 21:10:00,
2013-01-10 16:11:00,60.3,52.0,30.30,ENE,59,0.0,1.0,74,0.00,,---,0.00,127.00,VWS V14.01,2013-01-10 21:11:00,
2013-01-10 16:12:00,60.4,52.1,30.29,ENE,59,0.0,2.0,74,0.00,,---,0.00,141.00,VWS V14.01,2013-01-10 21:12:00,
2013-01-10 16:13:00,60.4,52.1,30.30,ENE,59,0.0,2.0,74,0.00,,---,0.00,186.00,VWS V14.01,2013-01-10 21:13:00,
2013-01-10 16:14:00,60.4,52.5,30.30,ENE,59,0.0,2.0,75,0.00,,---,0.00,171.00,VWS V14.01,2013-01-10 21:14:00,
2013-01-10 16:15:00,60.4,52.1,30.29,ENE,59,2.0,3.0,74,0.00,,---,0.00,146.00,VWS V14.01,2013-01-10 21:15:00,
2013-01-10 16:16:00,60.2,52.3,30.29,ENE,59,0.0,2.0,75,0.00,,---,0.00,165.00,VWS V14.01,2013-01-10 21:16:00,
2013-01-10 16:17:00,60.5,52.2,30.29,ENE,59,0.0,3.0,74,0.00,,---,0.00,202.00,VWS V14.01,2013-01-10 21:17:00,
2013-01-10 16:18:00,60.5,51.8,30.29,ENE,59,0.0,3.0,73,0.00,,---,0.00,176.00,VWS V14.01,2013-01-10 21:18:00,
2013-01-10 16:19:00,60.5,52.2,30.30,ENE,59,0.0,3.0,74,0.00,,---,0.00,188.00,VWS V14.01,2013-01-10 21:19:00,
2013-01-10 16:20:00,60.6,52.3,30.30,ENE,59,0.0,0.0,74,0.00,,---,0.00,156.00,VWS V14.01,2013-01-10 21:20:00,
2013-01-10 16:21:00,60.4,52.1,30.29,ENE,59,0.0,2.0,74,0.00,,---,0.00,151.00,VWS V14.01,2013-01-10 21:21:00,
2013-01-10 16:22:00,60.7,52.0,30.29,ENE,59,0.0,1.0,73,0.00,,---,0.00,134.00,VWS V14.01,2013-01-10 21:22:00,
2013-01-10 16:23:00,60.7,52.4,30.29,ENE,59,0.0,1.0,74,0.00,,---,0.00,135.00,VWS V14.01,2013-01-10 21:23:00,
2013-01-10 16:24:00,60.7,52.4,30.29,ENE,59,0.0,1.0,74,0.00,,---,0.00,127.00,VWS V14.01,2013-01-10 21:24:00,
2013-01-10 16:25:00,60.8,52.5,30.29,ENE,59,0.0,2.0,74,0.00,,---,0.00,121.00,VWS V14.01,2013-01-10 21:25:00,
2013-01-10 16:26:00,60.8,52.1,30.29,ENE,59,0.0,2.0,73,0.00,,---,0.00,116.00,VWS V14.01,2013-01-10 21:26:00,
2013-01-10 16:27:00,60.8,52.1,30.29,ENE,59,0.0,2.0,73,0.00,,---,0.00,114.00,VWS V14.01,2013-01-10 21:27:00,
2013-01-10 16:28:00,60.8,51.7,30.29,ENE,59,0.0,2.0,72,0.00,,---,0.00,113.00,VWS V14.01,2013-01-10 21:28:00,
2013-01-10 16:29:00,60.8,51.7,30.29,ENE,59,0.0,2.0,72,0.00,,---,0.00,109.00,VWS V14.01,2013-01-10 21:29:00,
2013-01-10 16:30:00,60.6,52.3,30.30,ENE,59,0.0,1.0,74,0.00,,---,0.00,135.00,VWS V14.01,2013-01-10 21:30:00,
2013-01-10 16:31:00,60.7,51.6,30.29,ENE,59,0.0,3.0,72,0.00,,---,0.00,98.00,VWS V14.01,2013-01-10 21:31:00,
2013-01-10 16:32:00,60.7,51.6,30.29,ENE,59,0.0,3.0,72,0.00,,---,0.00,95.00,VWS V14.01,2013-01-10 21:32:00,
2013-01-10 16:33:00,60.7,52.0,30.30,ENE,59,0.0,3.0,73,0.00,,---,0.00,93.00,VWS V14.01,2013-01-10 21:33:00,
2013-01-10 16:34:00,60.7,52.0,30.29,ENE,59,0.0,3.0,73,0.00,,---,0.00,91.00,VWS V14.01,2013-01-10 21:34:00,
2013-01-10 16:35:00,60.7,52.0,30.29,ENE,59,0.0,3.0,73,0.00,,---,0.00,90.00,VWS V14.01,2013-01-10 21:35:00,
2013-01-10 16:36:00,60.7,52.0,30.30,ENE,59,0.0,3.0,73,0.00,,---,0.00,88.00,VWS V14.01,2013-01-10 21:36:00,
2013-01-10 16:37:00,60.8,51.7,30.29,ENE,59,0.0,2.0,72,0.00,,---,0.00,113.00,VWS V14.01,2013-01-10 21:37:00,
2013-01-10 16:38:00,60.7,52.4,30.29,ENE,59,0.0,3.0,74,0.00,,---,0.00,81.00,VWS V14.01,2013-01-10 21:38:00,
2013-01-10 16:39:00,60.7,52.4,30.29,ENE,59,0.0,3.0,74,0.00,,---,0.00,77.00,VWS V14.01,2013-01-10 21:39:00,
2013-01-10 16:40:00,60.6,52.6,30.29,ENE,59,0.0,0.0,75,0.00,,---,0.00,72.00,VWS V14.01,2013-01-10 21:40:00,
2013-01-10 16:41:00,60.6,52.6,30.29,ENE,59,0.0,0.0,75,0.00,,---,0.00,69.00,VWS V14.01,2013-01-10 21:41:00,
2013-01-10 16:42:00,60.6,52.6,30.29,ENE,59,0.0,0.0,75,0.00,,---,0.00,65.00,VWS V14.01,2013-01-10 21:42:00,
2013-01-10 16:43:00,60.6,52.6,30.29,ENE,59,0.0,0.0,75,0.00,,---,0.00,65.00,VWS V14.01,2013-01-10 21:43:00,
2013-01-10 16:44:00,60.5,52.5,30.29,ENE,59,0.0,1.0,75,0.00,,---,0.00,63.00,VWS V14.01,2013-01-10 21:44:00,
2013-01-10 16:45:00,60.5,52.2,30.29,ENE,59,0.0,1.0,74,0.00,,---,0.00,62.00,VWS V14.01,2013-01-10 21:45:00,
2013-01-10 16:46:00,60.4,52.5,30.29,ENE,59,0.0,1.0,75,0.00,,---,0.00,58.00,VWS V14.01,2013-01-10 21:46:00,
2013-01-10 16:47:00,60.7,52.4,30.30,ENE,59,0.0,3.0,74,0.00,,---,0.00,81.00,VWS V14.01,2013-01-10 21:47:00,
2013-01-10 16:48:00,60.3,52.3,30.29,ENE,59,0.0,1.0,75,0.00,,---,0.00,49.00,VWS V14.01,2013-01-10 21:48:00,
2013-01-10 16:49:00,60.2,52.3,30.29,ENE,59,0.0,1.0,75,0.00,,---,0.00,47.00,VWS V14.01,2013-01-10 21:49:00,
2013-01-10 16:50:00,60.1,52.2,30.29,ENE,59,0.0,0.0,75,0.00,,---,0.00,44.00,VWS V14.01,2013-01-10 21:50:00,
2013-01-10 16:51:00,60.0,51.7,30.29,ENE,59,0.0,0.0,74,0.00,,---,0.00,40.00,VWS V14.01,2013-01-10 21:51:00,
2013-01-10 16:52:00,60.6,52.6,30.29,ENE,59,0.0,0.0,75,0.00,,---,0.00,65.00,VWS V14.01,2013-01-10 21:52:00,
2013-01-10 16:53:00,59.9,51.6,30.29,ENE,59,0.0,2.0,74,0.00,,---,0.00,35.00,VWS V14.01,2013-01-10 21:53:00,
2013-01-10 16:54:00,59.8,51.5,30.29,ENE,59,0.0,2.0,74,0.00,,---,0.00,33.00,VWS V14.01,2013-01-10 21:54:00,
2013-01-10 16:55:00,59.6,51.3,30.29,ENE,59,0.0,2.0,74,0.00,,---,0.00,30.00,VWS V14.01,2013-01-10 21:55:00,
2013-01-10 16:56:00,59.5,51.2,30.29,ENE,59,0.0,2.0,74,0.00,,---,0.00,28.00,VWS V14.01,2013-01-10 21:56:00,
2013-01-10 16:57:00,59.5,51.6,30.29,ENE,59,0.0,2.0,75,0.00,,---,0.00,26.00,VWS V14.01,2013-01-10 21:57:00,
2013-01-10 16:58:00,59.4,51.5,30.29,ENE,59,0.0,2.0,75,0.00,,---,0.00,25.00,VWS V14.01,2013-01-10 21:58:00,
2013-01-10 16:59:00,60.2,52.3,30.29,ENE,59,0.0,1.0,75,0.00,,---,0.00,44.00,VWS V14.01,2013-01-10 21:59:00,
2013-01-10 17:00:00,59.2,51.3,30.29,ENE,59,0.0,0.0,75,0.00,,---,0.00,19.00,VWS V14.01,2013-01-10 22:00:00,
2013-01-10 17:01:00,59.1,51.2,30.29,ENE,59,0.0,0.0,75,0.00,,---,0.00,18.00,VWS V14.01,2013-01-10 22:01:00,
2013-01-10 17:02:00,59.0,51.1,30.29,ENE,59,0.0,0.0,75,0.00,,---,0.00,16.00,VWS V14.01,2013-01-10 22:02:00,
2013-01-10 17:03:00,59.0,51.5,30.29,ENE,59,1.0,1.0,76,0.00,,---,0.00,14.00,VWS V14.01,2013-01-10 22:03:00,
2013-01-10 17:04:00,58.9,51.0,30.29,ENE,59,0.0,1.0,75,0.00,,---,0.00,14.00,VWS V14.01,2013-01-10 22:04:00,
2013-01-10 17:05:00,58.9,51.0,30.29,ENE,59,0.0,1.0,75,0.00,,---,0.00,12.00,VWS V14.01,2013-01-10 22:05:00,
2013-01-10 17:06:00,59.5,51.2,30.29,ENE,59,0.0,2.0,74,0.00,,---,0.00,26.00,VWS V14.01,2013-01-10 22:06:00,
2013-01-10 17:07:00,58.7,51.2,30.29,ENE,59,0.0,1.0,76,0.00,,---,0.00,9.00,VWS V14.01,2013-01-10 22:07:00,
2013-01-10 17:08:00,58.7,51.2,30.29,ENE,59,0.0,1.0,76,0.00,,---,0.00,9.00,VWS V14.01,2013-01-10 22:08:00,
2013-01-10 17:09:00,58.7,51.2,30.29,ENE,59,0.0,1.0,76,0.00,,---,0.00,7.00,VWS V14.01,2013-01-10 22:09:00,
2013-01-10 17:10:00,58.6,51.1,30.29,ENE,59,0.0,0.0,76,0.00,,---,0.00,7.00,VWS V14.01,2013-01-10 22:10:00,
2013-01-10 17:11:00,58.6,51.1,30.29,ENE,59,0.0,0.0,76,0.00,,---,0.00,7.00,VWS V14.01,2013-01-10 22:11:00,
2013-01-10 17:12:00,59.0,51.1,30.29,ENE,59,0.0,0.0,75,0.00,,---,0.00,14.00,VWS V14.01,2013-01-10 22:12:00,
2013-01-10 17:13:00,58.6,51.1,30.29,ENE,59,0.0,0.0,76,0.00,,---,0.00,5.00,VWS V14.01,2013-01-10 22:13:00,
2013-01-10 17:14:00,58.6,51.1,30.28,ENE,59,0.0,0.0,76,0.00,,---,0.00,5.00,VWS V14.01,2013-01-10 22:14:00,
2013-01-10 17:15:00,58.6,51.1,30.29,ENE,59,0.0,0.0,76,0.00,,---,0.00,5.00,VWS V14.01,2013-01-10 22:15:00,
2013-01-10 17:16:00,58.5,51.3,30.29,ENE,59,0.0,0.0,77,0.00,,---,0.00,5.00,VWS V14.01,2013-01-10 22:16:00,
2013-01-10 17:17:00,58.5,51.3,30.28,ENE,59,0.0,0.0,77,0.00,,---,0.00,5.00,VWS V14.01,2013-01-10 22:17:00,
2013-01-10 17:18:00,58.4,51.2,30.28,ENE,59,0.0,0.0,77,0.00,,---,0.00,5.00,VWS V14.01,2013-01-10 22:18:00,
2013-01-10 17:19:00,58.7,51.2,30.29,ENE,59,0.0,1.0,76,0.00,,---,0.00,7.00,VWS V14.01,2013-01-10 22:19:00,
2013-01-10 17:20:00,58.3,51.1,30.29,ENE,59,0.0,0.0,77,0.00,,---,0.00,0.00,VWS V14.01,2013-01-10 22:20:00,
2013-01-10 17:21:00,58.3,51.1,30.28,ENE,59,0.0,0.0,77,0.00,,---,0.00,0.00,VWS V14.01,2013-01-10 22:21:00,
2013-01-10 17:22:00,58.2,51.0,30.28,ENE,59,0.0,0.0,77,0.00,,---,0.00,0.00,VWS V14.01,2013-01-10 22:22:00,
2013-01-10 17:23:00,58.2,51.0,30.28,ENE,59,0.0,0.0,77,0.00,,---,0.00,0.00,VWS V14.01,2013-01-10 22:23:00,
2013-01-10 17:24:00,58.6,51.1,30.28,ENE,59,0.0,0.0,76,0.00,,---,0.00,5.00,VWS V14.01,2013-01-10 22:24:00,
2013-01-10 17:25:00,58.2,51.0,30.28,ENE,59,0.0,0.0,77,0.00,,---,0.00,0.00,VWS V14.01,2013-01-10 22:25:00,
2013-01-10 17:26:00,58.2,51.0,30.28,ENE,59,0.0,0.0,77,0.00,,---,0.00,0.00,VWS V14.01,2013-01-10 22:26:00,
2013-01-10 17:27:00,58.1,50.9,30.28,ENE,59,0.0,0.0,77,0.00,,---,0.00,0.00,VWS V14.01,2013-01-10 22:27:00,
2013-01-10 17:28:00,58.1,50.9,30.28,ENE,59,0.0,0.0,77,0.00,,---,0.00,0.00,VWS V14.01,2013-01-10 22:28:00,
2013-01-10 17:29:00,58.3,51.1,30.29,ENE,59,0.0,0.0,77,0.00,,---,0.00,0.00,VWS V14.01,2013-01-10 22:29:00,
2013-01-10 17:30:00,58.0,50.8,30.28,ENE,59,0.0,0.0,77,0.00,,---,0.00,0.00,VWS V14.01,2013-01-10 22:30:00,
2013-01-10 17:31:00,58.0,51.2,30.28,ENE,59,0.0,0.0,78,0.00,,---,0.00,0.00,VWS V14.01,2013-01-10 22:31:00,
2013-01-10 17:32:00,57.9,51.1,30.28,ENE,59,0.0,0.0,78,0.00,,---,0.00,0.00,VWS V14.01,2013-01-10 22:32:00,
2013-01-10 17:33:00,57.9,51.1,30.28,ENE,59,0.0,0.0,78,0.00,,---,0.00,0.00,VWS V14.01,2013-01-10 22:33:00,
2013-01-10 17:34:00,57.8,51.0,30.28,ENE,59,0.0,0.0,78,0.00,,---,0.00,0.00,VWS V14.01,2013-01-10 22:34:00,
2013-01-10 17:35:00,58.2,51.0,30.28,ENE,59,0.0,0.0,77,0.00,,---,0.00,0.00,VWS V14.01,2013-01-10 22:35:00,
2013-01-10 17:36:00,57.7,50.9,30.28,ENE,59,0.0,0.0,78,0.00,,---,0.00,0.00,VWS V14.01,2013-01-10 22:36:00,
2013-01-10 17:37:00,57.6,50.8,30.28,ENE,59,0.0,0.0,78,0.00,,---,0.00,0.00,VWS V14.01,2013-01-10 22:37:00,
2013-01-10 17:38:00,57.6,50.8,30.28,ENE,59,0.0,0.0,78,0.00,,---,0.00,0.00,VWS V14.01,2013-01-10 22:38:00,
2013-01-10 17:39:00,57.5,50.7,30.28,ENE,59,0.0,0.0,78,0.00,,---,0.00,0.00,VWS V14.01,2013-01-10 22:39:00,
2013-01-10 17:40:00,57.4,51.0,30.28,ENE,59,0.0,0.0,79,0.00,,---,0.00,0.00,VWS V14.01,2013-01-10 22:40:00,
2013-01-10 17:41:00,57.9,51.1,30.28,ENE,59,0.0,0.0,78,0.00,,---,0.00,0.00,VWS V14.01,2013-01-10 22:41:00,
2013-01-10 17:42:00,57.3,50.8,30.28,ENE,59,0.0,0.0,79,0.00,,---,0.00,0.00,VWS V14.01,2013-01-10 22:42:00,
2013-01-10 17:43:00,57.3,50.8,30.28,ENE,59,0.0,0.0,79,0.00,,---,0.00,0.00,VWS V14.01,2013-01-10 22:43:00,
2013-01-10 17:44:00,57.3,50.8,30.28,ENE,59,0.0,0.0,79,0.00,,---,0.00,0.00,VWS V14.01,2013-01-10 22:44:00,
2013-01-10 17:45:00,57.2,50.8,30.28,ENE,59,0.0,0.0,79,0.00,,---,0.00,0.00,VWS V14.01,2013-01-10 22:45:00,
2013-01-10 17:46:00,57.7,50.9,30.28,ENE,59,0.0,0.0,78,0.00,,---,0.00,0.00,VWS V14.01,2013-01-10 22:46:00,
2013-01-10 17:47:00,57.2,50.8,30.28,ENE,59,0.0,0.0,79,0.00,,---,0.00,0.00,VWS V14.01,2013-01-10 22:47:00,
2013-01-10 17:48:00,57.1,50.7,30.28,ENE,59,0.0,0.0,79,0.00,,---,0.00,0.00,VWS V14.01,2013-01-10 22:48:00,
2013-01-10 17:49:00,57.1,50.7,30.28,ENE,59,0.0,0.0,79,0.00,,---,0.00,0.00,VWS V14.01,2013-01-10 22:49:00,
2013-01-10 17:50:00,57.1,51.0,30.28,ENE,59,0.0,0.0,80,0.00,,---,0.00,0.00,VWS V14.01,2013-01-10 22:50:00,
2013-01-10 17:51:00,57.0,50.9,30.28,ENE,59,0.0,0.0,80,0.00,,---,0.00,0.00,VWS V14.01,2013-01-10 22:51:00,
2013-01-10 17:52:00,57.0,50.9,30.28,ENE,59,0.0,0.0,80,0.00,,---,0.00,0.00,VWS V14.01,2013-01-10 22:52:00,
2013-01-10 17:53:00,57.3,50.8,30.28,ENE,59,0.0,0.0,79,0.00,,---,0.00,0.00,VWS V14.01,2013-01-10 22:53:00,
2013-01-10 17:54:00,56.9,50.8,30.28,ENE,59,0.0,0.0,80,0.00,,---,0.00,0.00,VWS V14.01,2013-01-10 22:54:00,
2013-01-10 17:55:00,56.9,50.8,30.28,ENE,59,0.0,0.0,80,0.00,,---,0.00,0.00,VWS V14.01,2013-01-10 22:55:00,
2013-01-10 17:56:00,56.9,50.8,30.28,ENE,59,0.0,0.0,80,0.00,,---,0.00,0.00,VWS V14.01,2013-01-10 22:56:00,
2013-01-10 17:57:00,56.9,50.8,30.28,ENE,59,0.0,0.0,80,0.00,,---,0.00,0.00,VWS V14.01,2013-01-10 22:57:00,
2013-01-10 17:58:00,56.8,50.7,30.28,ENE,59,0.0,0.0,80,0.00,,---,0.00,0.00,VWS V14.01,2013-01-10 22:58:00,
2013-01-10 17:59:00,57.1,51.0,30.28,ENE,59,0.0,0.0,80,0.00,,---,0.00,0.00,VWS V14.01,2013-01-10 22:59:00,
2013-01-10 18:00:00,56.7,50.3,30.28,ENE,59,0.0,0.0,79,0.00,,---,0.00,0.00,VWS V14.01,2013-01-10 23:00:00,
2013-01-10 18:01:00,56.7,50.3,30.28,ENE,59,0.0,0.0,79,0.00,,---,0.00,0.00,VWS V14.01,2013-01-10 23:01:00,
2013-01-10 18:02:00,56.6,50.2,30.28,ENE,59,0.0,0.0,79,0.00,,---,0.00,0.00,VWS V14.01,2013-01-10 23:02:00,
2013-01-10 18:03:00,56.6,50.5,30.28,ENE,59,0.0,0.0,80,0.00,,---,0.00,0.00,VWS V14.01,2013-01-10 23:03:00,
2013-01-10 18:04:00,56.9,50.8,30.28,ENE,59,0.0,0.0,80,0.00,,---,0.00,0.00,VWS V14.01,2013-01-10 23:04:00,
2013-01-10 18:05:00,56.4,50.3,30.28,ENE,59,0.0,0.0,80,0.00,,---,0.00,0.00,VWS V14.01,2013-01-10 23:05:00,
2013-01-10 18:06:00,56.3,50.2,30.28,ENE,59,0.0,0.0,80,0.00,,---,0.00,0.00,VWS V14.01,2013-01-10 23:06:00,
2013-01-10 18:07:00,56.2,50.1,30.28,ENE,59,0.0,0.0,80,0.00,,---,0.00,0.00,VWS V14.01,2013-01-10 23:07:00,
2013-01-10 18:08:00,56.2,50.5,30.28,ENE,59,0.0,0.0,81,0.00,,---,0.00,0.00,VWS V14.01,2013-01-10 23:08:00,
2013-01-10 18:09:00,56.8,50.4,30.28,ENE,59,0.0,0.0,79,0.00,,---,0.00,0.00,VWS V14.01,2013-01-10 23:09:00,
2013-01-10 18:10:00,56.1,50.4,30.28,ENE,59,0.0,0.0,81,0.00,,---,0.00,0.00,VWS V14.01,2013-01-10 23:10:00,
2013-01-10 18:11:00,56.1,50.4,30.28,ENE,59,0.0,0.0,81,0.00,,---,0.00,0.00,VWS V14.01,2013-01-10 23:11:00,
2013-01-10 18:12:00,56.0,50.6,30.28,ENE,59,0.0,0.0,82,0.00,,---,0.00,0.00,VWS V14.01,2013-01-10 23:12:00,
2013-01-10 18:13:00,56.0,50.3,30.27,ENE,59,0.0,0.0,81,0.00,,---,0.00,0.00,VWS V14.01,2013-01-10 23:13:00,
2013-01-10 18:14:00,56.0,50.3,30.27,ENE,59,0.0,0.0,81,0.00,,---,0.00,0.00,VWS V14.01,2013-01-10 23:14:00,
2013-01-10 18:15:00,56.4,50.3,30.28,ENE,59,0.0,0.0,80,0.00,,---,0.00,0.00,VWS V14.01,2013-01-10 23:15:00,
2013-01-10 18:16:00,55.9,50.2,30.27,ENE,59,0.0,0.0,81,0.00,,---,0.00,0.00,VWS V14.01,2013-01-10 23:16:00,
2013-01-10 18:17:00,55.9,50.2,30.27,ENE,59,0.0,0.0,81,0.00,,---,0.00,0.00,VWS V14.01,2013-01-10 23:17:00,
2013-01-10 18:18:00,55.8,50.4,30.27,ENE,59,0.0,0.0,82,0.00,,---,0.00,0.00,VWS V14.01,2013-01-10 23:18:00,
2013-01-10 18:19:00,55.8,50.4,30.27,ENE,59,0.0,0.0,82,0.00,,---,0.00,0.00,VWS V14.01,2013-01-10 23:19:00,
2013-01-10 18:20:00,55.8,50.4,30.27,ENE,59,0.0,0.0,82,0.00,,---,0.00,0.00,VWS V14.01,2013-01-10 23:20:00,
2013-01-10 18:21:00,56.1,50.7,30.28,ENE,59,0.0,0.0,82,0.00,,---,0.00,0.00,VWS V14.01,2013-01-10 23:21:00,
2013-01-10 18:22:00,55.7,50.3,30.27,ENE,59,0.0,0.0,82,0.00,,---,0.00,0.00,VWS V14.01,2013-01-10 23:22:00,
2013-01-10 18:23:00,55.6,50.2,30.27,ENE,59,0.0,0.0,82,0.00,,---,0.00,0.00,VWS V14.01,2013-01-10 23:23:00,
2013-01-10 18:24:00,55.6,50.5,30.27,ENE,59,0.0,0.0,83,0.00,,---,0.00,0.00,VWS V14.01,2013-01-10 23:24:00,
2013-01-10 18:25:00,55.5,50.4,30.27,ENE,59,0.0,0.0,83,0.00,,---,0.00,0.00,VWS V14.01,2013-01-10 23:25:00,
2013-01-10 18:26:00,55.5,50.8,30.27,ENE,59,0.0,0.0,84,0.00,,---,0.00,0.00,VWS V14.01,2013-01-10 23:26:00,
2013-01-10 18:27:00,55.5,50.4,30.27,ENE,59,0.0,0.0,83,0.00,,---,0.00,0.00,VWS V14.01,2013-01-10 23:27:00,
2013-01-10 18:28:00,55.5,50.4,30.27,ENE,59,0.0,0.0,83,0.00,,---,0.00,0.00,VWS V14.01,2013-01-10 23:28:00,
2013-01-10 18:29:00,55.8,50.4,30.27,ENE,59,0.0,0.0,82,0.00,,---,0.00,0.00,VWS V14.01,2013-01-10 23:29:00,
2013-01-10 18:30:00,55.6,50.8,30.27,ENE,59,0.0,0.0,84,0.00,,---,0.00,0.00,VWS V14.01,2013-01-10 23:30:00,
2013-01-10 18:31:00,55.6,50.8,30.27,ENE,59,0.0,0.0,84,0.00,,---,0.00,0.00,VWS V14.01,2013-01-10 23:31:00,
2013-01-10 18:32:00,55.7,51.0,30.27,ENE,59,0.0,0.0,84,0.00,,---,0.00,0.00,VWS V14.01,2013-01-10 23:32:00,
2013-01-10 18:33:00,55.7,51.0,30.27,ENE,59,0.0,0.0,84,0.00,,---,0.00,0.00,VWS V14.01,2013-01-10 23:33:00,
2013-01-10 18:34:00,55.7,50.6,30.26,ENE,59,0.0,0.0,83,0.00,,---,0.00,0.00,VWS V14.01,2013-01-10 23:34:00,
2013-01-10 18:35:00,55.8,51.0,30.26,ENE,59,0.0,0.0,84,0.00,,---,0.00,0.00,VWS V14.01,2013-01-10 23:35:00,
2013-01-10 18:36:00,55.9,51.1,30.26,ENE,59,0.0,0.0,84,0.00,,---,0.00,0.00,VWS V14.01,2013-01-10 23:36:00,
2013-01-10 18:37:00,55.9,51.1,30.26,ENE,59,0.0,0.0,84,0.00,,---,0.00,0.00,VWS V14.01,2013-01-10 23:37:00,
2013-01-10 18:38:00,55.9,51.1,30.26,ENE,59,0.0,0.0,84,0.00,,---,0.00,0.00,VWS V14.01,2013-01-10 23:38:00,
2013-01-10 18:39:00,55.5,50.8,30.27,ENE,59,0.0,0.0,84,0.00,,---,0.00,0.00,VWS V14.01,2013-01-10 23:39:00,
2013-01-10 18:40:00,55.9,50.8,30.26,ENE,59,0.0,0.0,83,0.00,,---,0.00,0.00,VWS V14.01,2013-01-10 23:40:00,
2013-01-10 18:41:00,55.9,50.8,30.26,ENE,59,0.0,0.0,83,0.00,,---,0.00,0.00,VWS V14.01,2013-01-10 23:41:00,
2013-01-10 18:42:00,55.9,50.8,30.26,ENE,59,0.0,0.0,83,0.00,,---,0.00,0.00,VWS V14.01,2013-01-10 23:42:00,
2013-01-10 18:43:00,55.8,51.0,30.26,ENE,59,0.0,0.0,84,0.00,,---,0.00,0.00,VWS V14.01,2013-01-10 23:43:00,
2013-01-10 18:44:00,55.8,51.0,30.26,ENE,59,0.0,0.0,84,0.00,,---,0.00,0.00,VWS V14.01,2013-01-10 23:44:00,
2013-01-10 18:45:00,55.9,51.1,30.26,ENE,59,1.0,1.0,84,0.00,,---,0.00,0.00,VWS V14.01,2013-01-10 23:45:00,
2013-01-10 18:46:00,55.9,51.1,30.26,ENE,59,0.0,1.0,84,0.00,,---,0.00,0.00,VWS V14.01,2013-01-10 23:46:00,
2013-01-10 18:47:00,55.9,51.1,30.26,ENE,59,0.0,1.0,84,0.00,,---,0.00,0.00,VWS V14.01,2013-01-10 23:47:00,
2013-01-10 18:48:00,55.9,50.8,30.26,ENE,59,0.0,1.0,83,0.00,,---,0.00,0.00,VWS V14.01,2013-01-10 23:48:00,
2013-01-10 18:49:00,55.9,50.8,30.26,ENE,59,0.0,1.0,83,0.00,,---,0.00,0.00,VWS V14.01,2013-01-10 23:49:00,
2013-01-10 18:50:00,55.9,50.8,30.26,ENE,59,0.0,0.0,83,0.00,,---,0.00,0.00,VWS V14.01,2013-01-10 23:50:00,
2013-01-10 18:51:00,55.7,50.6,30.27,ENE,59,0.0,0.0,83,0.00,,---,0.00,0.00,VWS V14.01,2013-01-10 23:51:00,
2013-01-10 18:52:00,55.7,51.0,30.26,ENE,59,0.0,0.0,84,0.00,,---,0.00,0.00,VWS V14.01,2013-01-10 23:52:00,
2013-01-10 18:53:00,55.7,51.0,30.27,ENE,59,0.0,0.0,84,0.00,,---,0.00,0.00,VWS V14.01,2013-01-10 23:53:00,
2013-01-10 18:54:00,55.7,51.3,30.27,ENE,59,0.0,0.0,85,0.00,,---,0.00,0.00,VWS V14.01,2013-01-10 23:54:00,
2013-01-10 18:55:00,55.8,51.4,30.27,ENE,59,1.0,2.0,85,0.00,,---,0.00,0.00,VWS V14.01,2013-01-10 23:55:00,
2013-01-10 18:56:00,55.9,51.1,30.26,ENE,59,0.0,1.0,84,0.00,,---,0.00,0.00,VWS V14.01,2013-01-10 23:56:00,
2013-01-10 18:57:00,55.8,51.4,30.27,ENE,59,0.0,2.0,85,0.00,,---,0.00,0.00,VWS V14.01,2013-01-10 23:57:00,
2013-01-10 18:58:00,55.9,51.5,30.27,ENE,59,0.0,2.0,85,0.00,,---,0.00,0.00,VWS V14.01,2013-01-10 23:58:00,
2013-01-10 18:59:00,56.0,51.6,30.27,ENE,59,0.0,2.0,85,0.00,,---,0.00,0.00,VWS V14.01,2013-01-10 23:59:00,
2013-01-10 19:00:00,56.0,51.6,30.27,ENE,59,0.0,0.0,85,0.00,,---,0.00,0.00,VWS V14.01,2013-01-11 00:00:00,
2013-01-10 19:01:00,56.0,51.2,30.27,ENE,59,0.0,0.0,84,0.00,,---,0.00,0.00,VWS V14.01,2013-01-11 00:01:00,
2013-01-10 19:02:00,55.7,51.0,30.27,ENE,59,0.0,0.0,84,0.00,,---,0.00,0.00,VWS V14.01,2013-01-11 00:02:00,
2013-01-10 19:03:00,56.0,50.9,30.27,ENE,59,0.0,0.0,83,0.00,,---,0.00,0.00,VWS V14.01,2013-01-11 00:03:00,
2013-01-10 19:04:00,56.0,50.9,30.27,ENE,59,0.0,0.0,83,0.00,,---,0.00,0.00,VWS V14.01,2013-01-11 00:04:00,
2013-01-10 19:05:00,56.0,51.2,30.27,ENE,59,0.0,0.0,84,0.00,,---,0.00,0.00,VWS V14.01,2013-01-11 00:05:00,
2013-01-10 19:06:00,56.0,51.2,30.27,ENE,59,0.0,0.0,84,0.00,,---,0.00,0.00,VWS V14.01,2013-01-11 00:06:00,
2013-01-10 19:07:00,56.0,51.2,30.27,ENE,59,0.0,0.0,84,0.00,,---,0.00,0.00,VWS V14.01,2013-01-11 00:07:00,
2013-01-10 19:08:00,56.0,51.2,30.27,ENE,59,0.0,0.0,84,0.00,,---,0.00,0.00,VWS V14.01,2013-01-11 00:08:00,
2013-01-10 19:09:00,56.0,51.6,30.27,ENE,59,0.0,2.0,85,0.00,,---,0.00,0.00,VWS V14.01,2013-01-11 00:09:00,
2013-01-10 19:10:00,55.9,51.1,30.27,ENE,59,0.0,0.0,84,0.00,,---,0.00,0.00,VWS V14.01,2013-01-11 00:10:00,
2013-01-10 19:11:00,55.9,51.1,30.27,ENE,59,0.0,0.0,84,0.00,,---,0.00,0.00,VWS V14.01,2013-01-11 00:11:00,
2013-01-10 19:12:00,55.9,51.1,30.27,ENE,59,0.0,0.0,84,0.00,,---,0.00,0.00,VWS V14.01,2013-01-11 00:12:00,
2013-01-10 19:13:00,55.9,51.1,30.27,ENE,59,0.0,0.0,84,0.00,,---,0.00,0.00,VWS V14.01,2013-01-11 00:13:00,
2013-01-10 19:14:00,56.0,51.2,30.27,ENE,59,0.0,0.0,84,0.00,,---,0.00,0.00,VWS V14.01,2013-01-11 00:14:00,
2013-01-10 19:15:00,55.8,51.0,30.27,ENE,59,0.0,0.0,84,0.00,,---,0.00,0.00,VWS V14.01,2013-01-11 00:15:00,
2013-01-10 19:16:00,55.8,51.4,30.27,ENE,59,0.0,0.0,85,0.00,,---,0.00,0.00,VWS V14.01,2013-01-11 00:16:00,
2013-01-10 19:17:00,55.8,51.4,30.27,ENE,59,0.0,0.0,85,0.00,,---,0.00,0.00,VWS V14.01,2013-01-11 00:17:00,
2013-01-10 19:18:00,55.8,51.4,30.27,ENE,59,0.0,1.0,85,0.00,,---,0.00,0.00,VWS V14.01,2013-01-11 00:18:00,
2013-01-10 19:19:00,55.8,51.4,30.27,ENE,59,0.0,1.0,85,0.00,,---,0.00,0.00,VWS V14.01,2013-01-11 00:19:00,
2013-01-10 19:20:00,55.9,51.1,30.27,ENE,59,0.0,0.0,84,0.00,,---,0.00,0.00,VWS V14.01,2013-01-11 00:20:00,
2013-01-10 19:21:00,55.9,51.1,30.27,ENE,59,0.0,1.0,84,0.00,,---,0.00,0.00,VWS V14.01,2013-01-11 00:21:00,
2013-01-10 19:22:00,55.9,51.1,30.27,ENE,59,0.0,2.0,84,0.00,,---,0.00,0.00,VWS V14.01,2013-01-11 00:22:00,
2013-01-10 19:23:00,55.9,51.1,30.27,ENE,59,0.0,2.0,84,0.00,,---,0.00,0.00,VWS V14.01,2013-01-11 00:23:00,
2013-01-10 19:24:00,55.8,51.0,30.27,ENE,59,0.0,0.0,84,0.00,,---,0.00,0.00,VWS V14.01,2013-01-11 00:24:00,
2013-01-10 19:25:00,56.0,51.2,30.27,ENE,59,0.0,2.0,84,0.00,,---,0.00,0.00,VWS V14.01,2013-01-11 00:25:00,
2013-01-10 19:26:00,56.0,51.2,30.27,NNE,25,0.0,5.0,84,0.00,,---,0.00,0.00,VWS V14.01,2013-01-11 00:26:00,
2013-01-10 19:27:00,56.1,51.7,30.27,NNE,26,0.0,5.0,85,0.00,,---,0.00,0.00,VWS V14.01,2013-01-11 00:27:00,
2013-01-10 19:28:00,56.1,51.3,30.27,NNE,26,0.0,5.0,84,0.00,,---,0.00,0.00,VWS V14.01,2013-01-11 00:28:00,
2013-01-10 19:29:00,56.2,51.4,30.26,NNE,26,0.0,5.0,84,0.00,,---,0.00,0.00,VWS V14.01,2013-01-11 00:29:00,
2013-01-10 19:30:00,55.8,51.0,30.27,ENE,59,0.0,1.0,84,0.00,,---,0.00,0.00,VWS V14.01,2013-01-11 00:30:00,
2013-01-10 19:31:00,56.3,51.5,30.26,NNE,26,0.0,1.0,84,0.00,,---,0.00,0.00,VWS V14.01,2013-01-11 00:31:00,
2013-01-10 19:32:00,56.3,51.5,30.26,NNE,26,0.0,1.0,84,0.00,,---,0.00,0.00,VWS V14.01,2013-01-11 00:32:00,
2013-01-10 19:33:00,56.3,51.5,30.26,NNE,26,0.0,1.0,84,0.00,,---,0.00,0.00,VWS V14.01,2013-01-11 00:33:00,
2013-01-10 19:34:00,56.4,51.6,30.26,NNE,26,0.0,1.0,84,0.00,,---,0.00,0.00,VWS V14.01,2013-01-11 00:34:00,
2013-01-10 19:35:00,56.4,51.6,30.26,NNE,26,0.0,1.0,84,0.00,,---,0.00,0.00,VWS V14.01,2013-01-11 00:35:00,
2013-01-10 19:36:00,56.1,51.7,30.27,NNE,26,0.0,5.0,85,0.00,,---,0.00,0.00,VWS V14.01,2013-01-11 00:36:00,
2013-01-10 19:37:00,56.5,51.4,30.26,NNE,26,0.0,1.0,83,0.00,,---,0.00,0.00,VWS V14.01,2013-01-11 00:37:00,
2013-01-10 19:38:00,56.5,51.4,30.26,NNE,26,0.0,1.0,83,0.00,,---,0.00,0.00,VWS V14.01,2013-01-11 00:38:00,
2013-01-10 19:39:00,56.5,51.4,30.26,NNE,26,0.0,1.0,83,0.00,,---,0.00,0.00,VWS V14.01,2013-01-11 00:39:00,
2013-01-10 19:40:00,56.5,51.4,30.26,NNE,26,0.0,0.0,83,0.00,,---,0.00,0.00,VWS V14.01,2013-01-11 00:40:00,
2013-01-10 19:41:00,56.3,51.5,30.26,NNE,26,0.0,1.0,84,0.00,,---,0.00,0.00,VWS V14.01,2013-01-11 00:41:00,
2013-01-10 19:43:00,56.4,51.3,30.26,NNE,26,0.0,1.0,83,0.00,,---,0.00,0.00,VWS V14.01,2013-01-11 00:43:00,
2013-01-10 19:44:00,56.4,51.3,30.26,NNE,26,0.0,1.0,83,0.00,,---,0.00,0.00,VWS V14.01,2013-01-11 00:44:00,
2013-01-10 19:45:00,56.4,51.3,30.25,NNE,26,1.0,2.0,83,0.00,,---,0.00,0.00,VWS V14.01,2013-01-11 00:45:00,
2013-01-10 19:46:00,56.4,51.3,30.26,NNE,26,0.0,2.0,83,0.00,,---,0.00,0.00,VWS V14.01,2013-01-11 00:46:00,
2013-01-10 19:47:00,56.3,51.2,30.26,NNE,26,0.0,2.0,83,0.00,,---,0.00,0.00,VWS V14.01,2013-01-11 00:47:00,
2013-01-10 19:48:00,56.3,51.2,30.25,NNE,26,1.0,2.0,83,0.00,,---,0.00,0.00,VWS V14.01,2013-01-11 00:48:00,
2013-01-10 19:49:00,56.5,51.4,30.26,NNE,26,0.0,1.0,83,0.00,,---,0.00,0.00,VWS V14.01,2013-01-11 00:49:00,
2013-01-10 19:50:00,56.3,51.2,30.26,NNE,26,0.0,0.0,83,0.00,,---,0.00,0.00,VWS V14.01,2013-01-11 00:50:00,
2013-01-10 19:51:00,56.2,51.1,30.26,NNE,26,0.0,0.0,83,0.00,,---,0.00,0.00,VWS V14.01,2013-01-11 00:51:00,
2013-01-10 19:52:00,56.2,51.4,30.26,NNE,26,0.0,0.0,84,0.00,,---,0.00,0.00,VWS V14.01,2013-01-11 00:52:00,
2013-01-10 19:53:00,56.2,51.4,30.26,NNE,26,0.0,1.0,84,0.00,,---,0.00,0.00,VWS V14.01,2013-01-11 00:53:00,
2013-01-10 19:54:00,56.4,51.3,30.26,NNE,26,1.0,1.0,83,0.00,,---,0.00,0.00,VWS V14.01,2013-01-11 00:54:00,
2013-01-10 19:55:00,56.3,51.5,30.26,NNE,26,0.0,1.0,84,0.00,,---,0.00,0.00,VWS V14.01,2013-01-11 00:55:00,
2013-01-10 19:56:00,56.4,51.6,30.25,NNE,26,0.0,1.0,84,0.00,,---,0.00,0.00,VWS V14.01,2013-01-11 00:56:00,
2013-01-10 19:57:00,56.4,51.3,30.25,NNE,26,0.0,1.0,83,0.00,,---,0.00,0.00,VWS V14.01,2013-01-11 00:57:00,
2013-01-10 19:58:00,56.4,51.3,30.25,NNE,26,0.0,1.0,83,0.00,,---,0.00,0.00,VWS V14.01,2013-01-11 00:58:00,
2013-01-10 19:59:00,56.4,51.3,30.26,NNE,26,1.0,1.0,83,0.00,,---,0.00,0.00,VWS V14.01,2013-01-11 00:59:00,
2013-01-10 20:00:00,56.3,51.2,30.25,NNE,26,0.0,2.0,83,0.00,,---,0.00,0.00,VWS V14.01,2013-01-11 01:00:00,
2013-01-10 20:01:00,56.4,51.3,30.26,NNE,26,0.0,0.0,83,0.00,,---,0.00,0.00,VWS V14.01,2013-01-11 01:01:00,
2013-01-10 20:02:00,56.3,51.2,30.26,NNE,26,0.0,0.0,83,0.00,,---,0.00,0.00,VWS V14.01,2013-01-11 01:02:00,
2013-01-10 20:03:00,56.4,51.3,30.26,NNE,26,0.0,1.0,83,0.00,,---,0.00,0.00,VWS V14.01,2013-01-11 01:03:00,
2013-01-10 20:04:00,56.4,51.6,30.26,NNE,26,0.0,1.0,84,0.00,,---,0.00,0.00,VWS V14.01,2013-01-11 01:04:00,
2013-01-10 20:05:00,56.3,51.5,30.26,NNE,26,0.0,1.0,84,0.00,,---,0.00,0.00,VWS V14.01,2013-01-11 01:05:00,
2013-01-10 20:06:00,56.4,51.3,30.26,NNE,26,0.0,1.0,83,0.00,,---,0.00,0.00,VWS V14.01,2013-01-11 01:06:00,
2013-01-10 20:07:00,56.4,51.6,30.26,NNE,26,0.0,1.0,84,0.00,,---,0.00,0.00,VWS V14.01,2013-01-11 01:07:00,
2013-01-10 20:08:00,56.4,51.3,30.26,NNE,26,0.0,1.0,83,0.00,,---,0.00,0.00,VWS V14.01,2013-01-11 01:08:00,
2013-01-10 20:09:00,56.4,51.3,30.26,NNE,26,0.0,1.0,83,0.00,,---,0.00,0.00,VWS V14.01,2013-01-11 01:09:00,
2013-01-10 20:10:00,56.4,51.3,30.26,NNE,26,0.0,1.0,83,0.00,,---,0.00,0.00,VWS V14.01,2013-01-11 01:10:00,
2013-01-10 20:11:00,56.4,51.3,30.26,NNE,26,0.0,0.0,83,0.00,,---,0.00,0.00,VWS V14.01,2013-01-11 01:11:00,
2013-01-10 20:12:00,56.3,51.2,30.26,NNE,26,0.0,1.0,83,0.00,,---,0.00,0.00,VWS V14.01,2013-01-11 01:12:00,
2013-01-10 20:13:00,56.3,51.2,30.25,NNE,26,0.0,1.0,83,0.00,,---,0.00,0.00,VWS V14.01,2013-01-11 01:13:00,
2013-01-10 20:14:00,56.3,51.2,30.25,NNE,26,0.0,1.0,83,0.00,,---,0.00,0.00,VWS V14.01,2013-01-11 01:14:00,
2013-01-10 20:15:00,56.3,51.2,30.25,NNE,26,0.0,1.0,83,0.00,,---,0.00,0.00,VWS V14.01,2013-01-11 01:15:00,
2013-01-10 20:16:00,56.3,51.2,30.25,NNE,26,0.0,1.0,83,0.00,,---,0.00,0.00,VWS V14.01,2013-01-11 01:16:00,
2013-01-10 20:17:00,56.4,51.3,30.26,NNE,26,0.0,1.0,83,0.00,,---,0.00,0.00,VWS V14.01,2013-01-11 01:17:00,
2013-01-10 20:18:00,56.2,51.1,30.25,NNE,26,0.0,1.0,83,0.00,,---,0.00,0.00,VWS V14.01,2013-01-11 01:18:00,
2013-01-10 20:19:00,56.2,51.1,30.25,NNE,26,0.0,1.0,83,0.00,,---,0.00,0.00,VWS V14.01,2013-01-11 01:19:00,
2013-01-10 20:20:00,56.1,51.0,30.25,NNE,26,0.0,0.0,83,0.00,,---,0.00,0.00,VWS V14.01,2013-01-11 01:20:00,
2013-01-10 20:21:00,56.1,51.0,30.25,NNE,26,0.0,0.0,83,0.00,,---,0.00,0.00,VWS V14.01,2013-01-11 01:21:00,
2013-01-10 20:22:00,56.0,50.9,30.25,NNE,26,0.0,0.0,83,0.00,,---,0.00,0.00,VWS V14.01,2013-01-11 01:22:00,
2013-01-10 20:23:00,56.0,50.9,30.25,NNE,26,0.0,0.0,83,0.00,,---,0.00,0.00,VWS V14.01,2013-01-11 01:23:00,
2013-01-10 20:24:00,56.0,51.2,30.25,NNE,26,1.0,2.0,84,0.00,,---,0.00,0.00,VWS V14.01,2013-01-11 01:24:00,
2013-01-10 20:25:00,56.3,51.2,30.25,NNE,26,0.0,1.0,83,0.00,,---,0.00,0.00,VWS V14.01,2013-01-11 01:25:00,
2013-01-10 20:26:00,55.9,50.8,30.25,NNE,26,0.0,2.0,83,0.00,,---,0.00,0.00,VWS V14.01,2013-01-11 01:26:00,
2013-01-10 20:27:00,55.9,50.8,30.25,NNE,26,0.0,2.0,83,0.00,,---,0.00,0.00,VWS V14.01,2013-01-11 01:27:00,
2013-01-10 20:28:00,55.8,50.7,30.25,NNE,26,0.0,2.0,83,0.00,,---,0.00,0.00,VWS V14.01,2013-01-11 01:28:00,
2013-01-10 20:29:00,55.8,50.7,30.25,NNE,26,0.0,2.0,83,0.00,,---,0.00,0.00,VWS V14.01,2013-01-11 01:29:00,
2013-01-10 20:30:00,56.1,51.0,30.25,NNE,26,0.0,0.0,83,0.00,,---,0.00,0.00,VWS V14.01,2013-01-11 01:30:00,
2013-01-10 20:31:00,55.7,50.6,30.25,NNE,26,0.0,1.0,83,0.00,,---,0.00,0.00,VWS V14.01,2013-01-11 01:31:00,
2013-01-10 20:32:00,55.6,50.5,30.25,NNE,27,0.0,2.0,83,0.00,,---,0.00,0.00,VWS V14.01,2013-01-11 01:32:00,
2013-01-10 20:33:00,55.6,50.8,30.25,NNE,27,0.0,2.0,84,0.00,,---,0.00,0.00,VWS V14.01,2013-01-11 01:33:00,
2013-01-10 20:34:00,55.6,50.8,30.25,NNE,27,1.0,2.0,84,0.00,,---,0.00,0.00,VWS V14.01,2013-01-11 01:34:00,
2013-01-10 20:35:00,55.9,50.8,30.25,NNE,26,0.0,2.0,83,0.00,,---,0.00,0.00,VWS V14.01,2013-01-11 01:35:00,
2013-01-10 20:36:00,55.6,50.8,30.25,NNE,27,0.0,2.0,84,0.00,,---,0.00,0.00,VWS V14.01,2013-01-11 01:36:00,
2013-01-10 20:37:00,55.6,50.8,30.24,NNE,27,0.0,2.0,84,0.00,,---,0.00,0.00,VWS V14.01,2013-01-11 01:37:00,
2013-01-10 20:38:00,55.6,50.8,30.24,NNE,27,0.0,2.0,84,0.00,,---,0.00,0.00,VWS V14.01,2013-01-11 01:38:00,
2013-01-10 20:39:00,55.6,50.8,30.24,NNE,24,2.0,4.0,84,0.00,,---,0.00,0.00,VWS V14.01,2013-01-11 01:39:00,
2013-01-10 20:40:00,55.7,51.0,30.24,NNE,24,0.0,0.0,84,0.00,,---,0.00,0.00,VWS V14.01,2013-01-11 01:40:00,
2013-01-10 20:41:00,55.6,50.5,30.25,NNE,27,0.0,2.0,83,0.00,,---,0.00,0.00,VWS V14.01,2013-01-11 01:41:00,
2013-01-10 20:42:00,55.7,51.0,30.24,NNE,25,0.0,1.0,84,0.00,,---,0.00,0.00,VWS V14.01,2013-01-11 01:42:00,
2013-01-10 20:43:00,55.8,51.0,30.24,NNE,29,1.0,1.0,84,0.00,,---,0.00,0.00,VWS V14.01,2013-01-11 01:43:00,
2013-01-10 20:44:00,55.8,51.0,30.24,SE,143,1.0,3.0,84,0.00,,---,0.00,0.00,VWS V14.01,2013-01-11 01:44:00,
2013-01-10 20:45:00,55.8,51.0,30.24,SE,143,0.0,3.0,84,0.00,,---,0.00,0.00,VWS V14.01,2013-01-11 01:45:00,
2013-01-10 20:46:00,55.8,50.7,30.24,SE,143,0.0,3.0,83,0.00,,---,0.00,0.00,VWS V14.01,2013-01-11 01:46:00,
2013-01-10 20:47:00,55.9,50.8,30.24,SE,143,0.0,3.0,83,0.00,,---,0.00,0.00,VWS V14.01,2013-01-11 01:47:00,
2013-01-10 20:48:00,55.6,50.8,30.24,NW,312,3.0,4.0,84,0.00,,---,0.00,0.00,VWS V14.01,2013-01-11 01:48:00,
2013-01-10 20:49:00,55.8,50.7,30.24,SE,143,1.0,3.0,83,0.00,,---,0.00,0.00,VWS V14.01,2013-01-11 01:49:00,
2013-01-10 20:50:00,55.7,50.6,30.24,SE,143,0.0,1.0,83,0.00,,---,0.00,0.00,VWS V14.01,2013-01-11 01:50:00,
2013-01-10 20:51:00,55.7,50.6,30.24,SE,143,0.0,1.0,83,0.00,,---,0.00,0.00,VWS V14.01,2013-01-11 01:51:00,
2013-01-10 20:52:00,55.7,51.0,30.24,SE,146,0.0,2.0,84,0.00,,---,0.00,0.00,VWS V14.01,2013-01-11 01:52:00,
2013-01-10 20:53:00,55.7,51.0,30.24,SE,146,0.0,2.0,84,0.00,,---,0.00,0.00,VWS V14.01,2013-01-11 01:53:00,
2013-01-10 20:54:00,55.7,50.6,30.24,SE,146,0.0,2.0,83,0.00,,---,0.00,0.00,VWS V14.01,2013-01-11 01:54:00,
2013-01-10 20:55:00,55.7,50.6,30.23,SE,146,1.0,2.0,83,0.00,,---,0.00,0.00,VWS V14.01,2013-01-11 01:55:00,
2013-01-10 20:56:00,55.7,50.6,30.23,SE,146,0.0,2.0,83,0.00,,---,0.00,0.00,VWS V14.01,2013-01-11 01:56:00,
2013-01-10 20:57:00,55.6,50.5,30.23,SE,146,0.0,2.0,83,0.00,,---,0.00,0.00,VWS V14.01,2013-01-11 01:57:00,
2013-01-10 20:58:00,55.6,50.8,30.23,SE,146,2.0,3.0,84,0.00,,---,0.00,0.00,VWS V14.01,2013-01-11 01:58:00,
2013-01-10 20:59:00,55.6,50.5,30.24,SE,146,0.0,3.0,83,0.00,,---,0.00,0.00,VWS V14.01,2013-01-11 01:59:00,
2013-01-10 21:00:00,55.8,50.7,30.24,SE,143,0.0,3.0,83,0.00,,---,0.00,0.00,VWS V14.01,2013-01-11 02:00:00,
2013-01-10 21:01:00,55.6,50.5,30.24,SE,146,0.0,1.0,83,0.00,,---,0.00,0.00,VWS V14.01,2013-01-11 02:01:00,
2013-01-10 21:02:00,55.5,50.4,30.24,East,96,0.0,1.0,83,0.00,,---,0.00,0.00,VWS V14.01,2013-01-11 02:02:00,
2013-01-10 21:03:00,55.5,50.4,30.23,East,96,0.0,1.0,83,0.00,,---,0.00,0.00,VWS V14.01,2013-01-11 02:03:00,
2013-01-10 21:04:00,55.5,50.4,30.24,East,96,0.0,1.0,83,0.00,,---,0.00,0.00,VWS V14.01,2013-01-11 02:04:00,
2013-01-10 21:05:00,55.5,50.8,30.23,East,96,0.0,1.0,84,0.00,,---,0.00,0.00,VWS V14.01,2013-01-11 02:05:00,
2013-01-10 21:06:00,55.7,50.6,30.23,SE,146,0.0,2.0,83,0.00,,---,0.00,0.00,VWS V14.01,2013-01-11 02:06:00,
2013-01-10 21:07:00,55.4,50.7,30.23,SSE,163,0.0,3.0,84,0.00,,---,0.00,0.00,VWS V14.01,2013-01-11 02:07:00,
2013-01-10 21:08:00,55.4,50.7,30.23,NNE,20,0.0,3.0,84,0.00,,---,0.00,0.00,VWS V14.01,2013-01-11 02:08:00,
2013-01-10 21:09:00,55.5,50.8,30.23,NNE,20,0.0,3.0,84,0.00,,---,0.00,0.00,VWS V14.01,2013-01-11 02:09:00,
2013-01-10 21:10:00,55.5,50.4,30.23,NNE,20,0.0,0.0,83,0.00,,---,0.00,0.00,VWS V14.01,2013-01-11 02:10:00,
2013-01-10 21:11:00,55.5,50.4,30.23,NNE,20,0.0,0.0,83,0.00,,---,0.00,0.00,VWS V14.01,2013-01-11 02:11:00,
2013-01-10 21:12:00,55.5,50.4,30.24,East,96,0.0,1.0,83,0.00,,---,0.00,0.00,VWS V14.01,2013-01-11 02:12:00,
2013-01-10 21:13:00,55.5,50.4,30.23,NNE,28,0.0,2.0,83,0.00,,---,0.00,0.00,VWS V14.01,2013-01-11 02:13:00,
2013-01-10 21:14:00,55.5,50.8,30.23,NNE,28,0.0,2.0,84,0.00,,---,0.00,0.00,VWS V14.01,2013-01-11 02:14:00,
2013-01-10 21:15:00,55.5,50.8,30.23,NNE,27,1.0,2.0,84,0.00,,---,0.00,0.00,VWS V14.01,2013-01-11 02:15:00,
2013-01-10 21:16:00,55.5,50.4,30.23,NNE,29,0.0,2.0,83,0.00,,---,0.00,0.00,VWS V14.01,2013-01-11 02:16:00,
2013-01-10 21:17:00,55.6,50.5,30.23,NNE,29,0.0,2.0,83,0.00,,---,0.00,0.00,VWS V14.01,2013-01-11 02:17:00,
2013-01-10 21:18:00,55.6,50.5,30.23,NNE,29,0.0,2.0,83,0.00,,---,0.00,0.00,VWS V14.01,2013-01-11 02:18:00,
2013-01-10 21:19:00,55.5,50.4,30.23,NNE,20,0.0,3.0,83,0.00,,---,0.00,0.00,VWS V14.01,2013-01-11 02:19:00,
2013-01-10 21:20:00,55.5,50.1,30.23,NNE,29,0.0,0.0,82,0.00,,---,0.00,0.00,VWS V14.01,2013-01-11 02:20:00,
2013-01-10 21:21:00,55.5,50.1,30.23,NNE,29,0.0,0.0,82,0.00,,---,0.00,0.00,VWS V14.01,2013-01-11 02:21:00,
2013-01-10 21:22:00,55.4,50.3,30.23,NNE,29,0.0,0.0,83,0.00,,---,0.00,0.00,VWS V14.01,2013-01-11 02:22:00,
2013-01-10 21:23:00,55.4,50.3,30.23,NNE,29,0.0,0.0,83,0.00,,---,0.00,0.00,VWS V14.01,2013-01-11 02:23:00,
2013-01-10 21:24:00,55.4,50.3,30.23,NNE,29,0.0,0.0,83,0.00,,---,0.00,0.00,VWS V14.01,2013-01-11 02:24:00,
2013-01-10 21:25:00,55.4,50.3,30.23,NNE,29,0.0,0.0,83,0.00,,---,0.00,0.00,VWS V14.01,2013-01-11 02:25:00,
2013-01-10 21:26:00,55.6,50.5,30.23,NNE,29,0.0,2.0,83,0.00,,---,0.00,0.00,VWS V14.01,2013-01-11 02:26:00,
2013-01-10 21:27:00,55.4,50.3,30.23,NNE,30,0.0,2.0,83,0.00,,---,0.00,0.00,VWS V14.01,2013-01-11 02:27:00,
2013-01-10 21:28:00,55.3,50.2,30.23,NNE,30,1.0,2.0,83,0.00,,---,0.00,0.00,VWS V14.01,2013-01-11 02:28:00,
2013-01-10 21:29:00,55.3,50.2,30.23,NNE,30,0.0,2.0,83,0.00,,---,0.00,0.00,VWS V14.01,2013-01-11 02:29:00,
2013-01-10 21:30:00,55.3,50.2,30.22,NNE,30,0.0,0.0,83,0.00,,---,0.00,0.00,VWS V14.01,2013-01-11 02:30:00,
2013-01-10 21:31:00,55.3,50.2,30.22,NNE,30,0.0,1.0,83,0.00,,---,0.00,0.00,VWS V14.01,2013-01-11 02:31:00,
2013-01-10 21:32:00,55.4,50.3,30.23,NNE,29,0.0,0.0,83,0.00,,---,0.00,0.00,VWS V14.01,2013-01-11 02:32:00,
2013-01-10 21:33:00,55.3,50.2,30.22,NNE,29,0.0,2.0,83,0.00,,---,0.00,0.00,VWS V14.01,2013-01-11 02:33:00,
2013-01-10 21:34:00,55.3,49.9,30.22,NNE,29,0.0,2.0,82,0.00,,---,0.00,0.00,VWS V14.01,2013-01-11 02:34:00,
2013-01-10 21:35:00,55.3,49.9,30.22,NNE,29,0.0,2.0,82,0.00,,---,0.00,0.00,VWS V14.01,2013-01-11 02:35:00,
2013-01-10 21:36:00,55.3,49.9,30.22,NNE,29,1.0,2.0,82,0.00,,---,0.00,0.00,VWS V14.01,2013-01-11 02:36:00,
2013-01-10 21:37:00,55.3,49.9,30.22,NNE,29,2.0,2.0,82,0.00,,---,0.00,0.00,VWS V14.01,2013-01-11 02:37:00,
2013-01-10 21:38:00,55.3,50.2,30.23,NNE,30,1.0,2.0,83,0.00,,---,0.00,0.00,VWS V14.01,2013-01-11 02:38:00,
2013-01-10 21:39:00,55.2,49.8,30.22,NNE,32,2.0,2.0,82,0.00,,---,0.00,0.00,VWS V14.01,2013-01-11 02:39:00,
2013-01-10 21:40:00,55.2,49.8,30.22,NNE,32,0.0,0.0,82,0.00,,---,0.00,0.00,VWS V14.01,2013-01-11 02:40:00,
2013-01-10 21:41:00,55.2,49.8,30.22,NNE,32,1.0,2.0,82,0.00,,---,0.00,0.00,VWS V14.01,2013-01-11 02:41:00,
2013-01-10 21:42:00,55.1,49.7,30.22,NNE,32,1.0,2.0,82,0.00,,---,0.00,0.00,VWS V14.01,2013-01-11 02:42:00,
2013-01-10 21:43:00,55.1,49.7,30.22,NNE,32,0.0,2.0,82,0.00,,---,0.00,0.00,VWS V14.01,2013-01-11 02:43:00,
2013-01-10 21:44:00,55.3,49.9,30.22,NNE,29,1.0,2.0,82,0.00,,---,0.00,0.00,VWS V14.01,2013-01-11 02:44:00,
2013-01-10 21:45:00,55.1,49.7,30.22,NNE,32,0.0,2.0,82,0.00,,---,0.00,0.00,VWS V14.01,2013-01-11 02:45:00,
2013-01-10 21:46:00,55.0,49.6,30.22,NNE,31,0.0,2.0,82,0.00,,---,0.00,0.00,VWS V14.01,2013-01-11 02:46:00,
2013-01-10 21:47:00,55.0,49.6,30.22,NNE,31,0.0,2.0,82,0.00,,---,0.00,0.00,VWS V14.01,2013-01-11 02:47:00,
2013-01-10 21:48:00,55.0,49.6,30.22,NNE,32,0.0,2.0,82,0.00,,---,0.00,0.00,VWS V14.01,2013-01-11 02:48:00,
2013-01-10 21:49:00,55.2,49.8,30.22,NNE,32,0.0,2.0,82,0.00,,---,0.00,0.00,VWS V14.01,2013-01-11 02:49:00,
2013-01-10 21:50:00,54.9,49.5,30.22,NNE,32,0.0,0.0,82,0.00,,---,0.00,0.00,VWS V14.01,2013-01-11 02:50:00,
2013-01-10 21:51:00,54.9,49.5,30.22,NNE,32,0.0,0.0,82,0.00,,---,0.00,0.00,VWS V14.01,2013-01-11 02:51:00,
2013-01-10 21:52:00,54.9,49.5,30.22,NNE,32,0.0,0.0,82,0.00,,---,0.00,0.00,VWS V14.01,2013-01-11 02:52:00,
2013-01-10 21:53:00,54.9,49.5,30.22,NNE,32,0.0,1.0,82,0.00,,---,0.00,0.00,VWS V14.01,2013-01-11 02:53:00,
2013-01-10 21:54:00,54.9,49.5,30.22,NNE,32,0.0,1.0,82,0.00,,---,0.00,0.00,VWS V14.01,2013-01-11 02:54:00,
2013-01-10 21:55:00,54.8,49.4,30.22,NNE,32,0.0,1.0,82,0.00,,---,0.00,0.00,VWS V14.01,2013-01-11 02:55:00,
2013-01-10 21:56:00,54.9,49.5,30.22,NNE,32,0.0,1.0,82,0.00,,---,0.00,0.00,VWS V14.01,2013-01-11 02:56:00,
2013-01-10 21:57:00,54.9,49.5,30.22,NNE,32,0.0,1.0,82,0.00,,---,0.00,0.00,VWS V14.01,2013-01-11 02:57:00,
2013-01-10 21:58:00,54.9,49.5,30.21,NNE,32,0.0,1.0,82,0.00,,---,0.00,0.00,VWS V14.01,2013-01-11 02:58:00,
2013-01-10 21:59:00,55.0,49.6,30.22,NNE,32,0.0,2.0,82,0.00,,---,0.00,0.00,VWS V14.01,2013-01-11 02:59:00,
2013-01-10 22:00:00,54.9,49.5,30.21,NNE,32,0.0,0.0,82,0.00,,---,0.00,0.00,VWS V14.01,2013-01-11 03:00:00,
2013-01-10 22:01:00,55.0,49.6,30.21,NNE,32,0.0,0.0,82,0.00,,---,0.00,0.00,VWS V14.01,2013-01-11 03:01:00,
2013-01-10 22:02:00,54.9,49.5,30.21,NNE,32,0.0,0.0,82,0.00,,---,0.00,0.00,VWS V14.01,2013-01-11 03:02:00,
2013-01-10 22:03:00,54.9,49.5,30.21,NNE,32,0.0,1.0,82,0.00,,---,0.00,0.00,VWS V14.01,2013-01-11 03:03:00,
2013-01-10 22:04:00,54.9,49.5,30.21,NNE,32,1.0,1.0,82,0.00,,---,0.00,0.00,VWS V14.01,2013-01-11 03:04:00,
2013-01-10 22:05:00,54.9,49.5,30.21,NNE,32,1.0,3.0,82,0.00,,---,0.00,0.00,VWS V14.01,2013-01-11 03:05:00,
2013-01-10 22:06:00,54.9,49.5,30.21,NNE,32,0.0,3.0,82,0.00,,---,0.00,0.00,VWS V14.01,2013-01-11 03:06:00,
2013-01-10 22:07:00,54.9,49.5,30.21,NNE,33,0.0,3.0,82,0.00,,---,0.00,0.00,VWS V14.01,2013-01-11 03:07:00,
2013-01-10 22:08:00,54.9,49.5,30.21,NNE,32,0.0,1.0,82,0.00,,---,0.00,0.00,VWS V14.01,2013-01-11 03:08:00,
2013-01-10 22:09:00,54.9,49.2,30.21,SE,137,0.0,4.0,81,0.00,,---,0.00,0.00,VWS V14.01,2013-01-11 03:09:00,
2013-01-10 22:10:00,55.0,49.3,30.21,SE,137,0.0,0.0,81,0.00,,---,0.00,0.00,VWS V14.01,2013-01-11 03:10:00,
2013-01-10 22:11:00,55.0,49.3,30.21,SE,137,0.0,0.0,81,0.00,,---,0.00,0.00,VWS V14.01,2013-01-11 03:11:00,
2013-01-10 22:12:00,55.0,49.3,30.21,SE,137,0.0,1.0,81,0.00,,---,0.00,0.00,VWS V14.01,2013-01-11 03:12:00,
2013-01-10 22:13:00,55.0,49.3,30.21,SE,137,0.0,1.0,81,0.00,,---,0.00,0.00,VWS V14.01,2013-01-11 03:13:00,
2013-01-10 22:14:00,55.0,49.3,30.21,SE,137,0.0,2.0,81,0.00,,---,0.00,0.00,VWS V14.01,2013-01-11 03:14:00,
2013-01-10 22:15:00,55.0,49.3,30.21,SE,129,0.0,2.0,81,0.00,,---,0.00,0.00,VWS V14.01,2013-01-11 03:15:00,
2013-01-10 22:16:00,55.1,49.4,30.20,SE,128,0.0,2.0,81,0.00,,---,0.00,0.00,VWS V14.01,2013-01-11 03:16:00,
2013-01-10 22:17:00,54.9,49.5,30.21,NNE,33,0.0,3.0,82,0.00,,---,0.00,0.00,VWS V14.01,2013-01-11 03:17:00,
2013-01-10 22:18:00,55.2,49.5,30.20,West,279,0.0,3.0,81,0.00,,---,0.00,0.00,VWS V14.01,2013-01-11 03:18:00,
2013-01-10 22:19:00,55.3,49.2,30.20,NW,310,0.0,3.0,80,0.00,,---,0.00,0.00,VWS V14.01,2013-01-11 03:19:00,
2013-01-10 22:20:00,55.4,49.3,30.20,NW,310,0.0,0.0,80,0.00,,---,0.00,0.00,VWS V14.01,2013-01-11 03:20:00,
2013-01-10 22:21:00,55.4,49.3,30.20,NW,310,0.0,1.0,80,0.00,,---,0.00,0.00,VWS V14.01,2013-01-11 03:21:00,
2013-01-10 22:22:00,55.5,49.4,30.20,NW,309,0.0,1.0,80,0.00,,---,0.00,0.00,VWS V14.01,2013-01-11 03:22:00,
2013-01-10 22:23:00,55.5,49.4,30.20,NW,321,2.0,3.0,80,0.00,,---,0.00,0.00,VWS V14.01,2013-01-11 03:23:00,
2013-01-10 22:24:00,55.0,49.3,30.21,SE,128,0.0,2.0,81,0.00,,---,0.00,0.00,VWS V14.01,2013-01-11 03:24:00,
2013-01-10 22:25:00,55.6,49.5,30.20,NNE,31,1.0,3.0,80,0.00,,---,0.00,0.00,VWS V14.01,2013-01-11 03:25:00,
2013-01-10 22:26:00,55.7,49.6,30.20,NNE,32,0.0,3.0,80,0.00,,---,0.00,0.00,VWS V14.01,2013-01-11 03:26:00,
2013-01-10 22:27:00,55.7,49.6,30.20,NNE,32,0.0,3.0,80,0.00,,---,0.00,0.00,VWS V14.01,2013-01-11 03:27:00,
2013-01-10 22:28:00,55.8,49.4,30.20,West,261,2.0,4.0,79,0.00,,---,0.00,0.00,VWS V14.01,2013-01-11 03:28:00,
2013-01-10 22:29:00,55.4,49.3,30.20,NW,310,0.0,3.0,80,0.00,,---,0.00,0.00,VWS V14.01,2013-01-11 03:29:00,
2013-01-10 22:30:00,55.9,49.5,30.20,WSW,252,0.0,0.0,79,0.00,,---,0.00,0.00,VWS V14.01,2013-01-11 03:30:00,
2013-01-10 22:31:00,56.0,49.6,30.20,WSW,252,0.0,0.0,79,0.00,,---,0.00,0.00,VWS V14.01,2013-01-11 03:31:00,
2013-01-10 22:32:00,56.0,49.6,30.20,West,263,0.0,0.0,79,0.00,,---,0.00,0.00,VWS V14.01,2013-01-11 03:32:00,
2013-01-10 22:33:00,56.1,49.7,30.20,East,97,2.0,3.0,79,0.00,,---,0.00,0.00,VWS V14.01,2013-01-11 03:33:00,
2013-01-10 22:34:00,56.1,49.3,30.20,East,97,0.0,3.0,78,0.00,,---,0.00,0.00,VWS V14.01,2013-01-11 03:34:00,
2013-01-10 22:35:00,56.1,49.7,30.20,NE,34,1.0,3.0,79,0.00,,---,0.00,0.00,VWS V14.01,2013-01-11 03:35:00,
2013-01-10 22:36:00,56.2,49.4,30.20,NE,36,1.0,3.0,78,0.00,,---,0.00,0.00,VWS V14.01,2013-01-11 03:36:00,
2013-01-10 22:37:00,55.8,49.4,30.20,NW,305,2.0,4.0,79,0.00,,---,0.00,0.00,VWS V14.01,2013-01-11 03:37:00,
2013-01-10 22:38:00,56.2,49.4,30.20,NE,34,0.0,4.0,78,0.00,,---,0.00,0.00,VWS V14.01,2013-01-11 03:38:00,
2013-01-10 22:39:00,56.2,49.4,30.20,NE,34,0.0,4.0,78,0.00,,---,0.00,0.00,VWS V14.01,2013-01-11 03:39:00,
2013-01-10 22:40:00,56.3,49.5,30.20,NE,34,0.0,0.0,78,0.00,,---,0.00,0.00,VWS V14.01,2013-01-11 03:40:00,
2013-01-10 22:41:00,56.3,49.5,30.20,NE,34,0.0,2.0,78,0.00,,---,0.00,0.00,VWS V14.01,2013-01-11 03:41:00,
2013-01-10 22:42:00,56.3,49.2,30.20,NE,35,0.0,2.0,77,0.00,,---,0.00,0.00,VWS V14.01,2013-01-11 03:42:00,
2013-01-10 22:43:00,56.1,49.3,30.20,East,97,0.0,3.0,78,0.00,,---,0.00,0.00,VWS V14.01,2013-01-11 03:43:00,
2013-01-10 22:44:00,56.3,49.2,30.20,NE,34,0.0,2.0,77,0.00,,---,0.00,0.00,VWS V14.01,2013-01-11 03:44:00,
2013-01-10 22:45:00,56.3,49.2,30.20,NE,36,1.0,2.0,77,0.00,,---,0.00,0.00,VWS V14.01,2013-01-11 03:45:00,
2013-01-10 22:46:00,56.2,49.1,30.20,NE,53,0.0,4.0,77,0.00,,---,0.00,0.00,VWS V14.01,2013-01-11 03:46:00,
2013-01-10 22:47:00,56.2,49.1,30.20,NNE,19,1.0,4.0,77,0.00,,---,0.00,0.00,VWS V14.01,2013-01-11 03:47:00,
2013-01-10 22:48:00,56.2,49.1,30.20,NNE,19,0.0,4.0,77,0.00,,---,0.00,0.00,VWS V14.01,2013-01-11 03:48:00,
2013-01-10 22:49:00,56.3,49.5,30.20,NE,34,0.0,4.0,78,0.00,,---,0.00,0.00,VWS V14.01,2013-01-11 03:49:00,
2013-01-10 22:50:00,56.2,49.1,30.20,NNE,19,0.0,0.0,77,0.00,,---,0.00,0.00,VWS V14.01,2013-01-11 03:50:00,
2013-01-10 22:51:00,56.2,49.1,30.20,NNE,18,0.0,2.0,77,0.00,,---,0.00,0.00,VWS V14.01,2013-01-11 03:51:00,
2013-01-10 22:52:00,56.2,49.1,30.20,NNE,18,0.0,2.0,77,0.00,,---,0.00,0.00,VWS V14.01,2013-01-11 03:52:00,
2013-01-10 22:53:00,56.2,49.1,30.20,NNE,18,0.0,2.0,77,0.00,,---,0.00,0.00,VWS V14.01,2013-01-11 03:53:00,
2013-01-10 22:54:00,56.2,49.1,30.20,NNE,18,0.0,2.0,77,0.00,,---,0.00,0.00,VWS V14.01,2013-01-11 03:54:00,
2013-01-10 22:55:00,56.2,49.1,30.20,NNE,18,1.0,2.0,77,0.00,,---,0.00,0.00,VWS V14.01,2013-01-11 03:55:00,
2013-01-10 22:56:00,56.2,49.1,30.20,NNE,18,0.0,2.0,77,0.00,,---,0.00,0.00,VWS V14.01,2013-01-11 03:56:00,
2013-01-10 22:57:00,56.2,49.1,30.20,NNE,18,0.0,2.0,77,0.00,,---,0.00,0.00,VWS V14.01,2013-01-11 03:57:00,
2013-01-10 22:58:00,56.2,49.1,30.19,ENE,77,1.0,2.0,77,0.00,,---,0.00,0.00,VWS V14.01,2013-01-11 03:58:00,
2013-01-10 22:59:00,56.2,49.1,30.20,NNE,19,0.0,4.0,77,0.00,,---,0.00,0.00,VWS V14.01,2013-01-11 03:59:00,
2013-01-10 23:00:00,56.1,48.7,30.19,NE,46,0.0,1.0,76,0.00,,---,0.00,0.00,VWS V14.01,2013-01-11 04:00:00,
2013-01-10 23:01:00,56.0,48.9,30.19,NE,49,0.0,2.0,77,0.00,,---,0.00,0.00,VWS V14.01,2013-01-11 04:01:00,
2013-01-10 23:02:00,56.0,48.9,30.19,NE,49,1.0,2.0,77,0.00,,---,0.00,0.00,VWS V14.01,2013-01-11 04:02:00,
2013-01-10 23:03:00,56.0,48.9,30.19,North,5,1.0,3.0,77,0.00,,---,0.00,0.00,VWS V14.01,2013-01-11 04:03:00,
2013-01-10 23:04:00,55.9,48.8,30.19,North,5,0.0,3.0,77,0.00,,---,0.00,0.00,VWS V14.01,2013-01-11 04:04:00,
2013-01-10 23:05:00,55.9,48.8,30.19,NNE,19,2.0,3.0,77,0.00,,---,0.00,0.00,VWS V14.01,2013-01-11 04:05:00,
2013-01-10 23:06:00,55.9,48.8,30.19,ENE,71,2.0,6.0,77,0.00,,---,0.00,0.00,VWS V14.01,2013-01-11 04:06:00,
2013-01-10 23:07:00,55.9,48.8,30.19,ESE,123,3.0,6.0,77,0.00,,---,0.00,0.00,VWS V14.01,2013-01-11 04:07:00,
2013-01-10 23:08:00,55.9,48.8,30.19,SE,131,0.0,6.0,77,0.00,,---,0.00,0.00,VWS V14.01,2013-01-11 04:08:00,
2013-01-10 23:09:00,56.1,48.7,30.19,NE,46,1.0,3.0,76,0.00,,---,0.00,0.00,VWS V14.01,2013-01-11 04:09:00,
2013-01-10 23:10:00,55.8,48.7,30.19,SE,134,2.0,3.0,77,0.00,,---,0.00,0.00,VWS V14.01,2013-01-11 04:10:00,
2013-01-10 23:11:00,55.8,48.7,30.19,SE,137,0.0,3.0,77,0.00,,---,0.00,0.00,VWS V14.01,2013-01-11 04:11:00,
2013-01-10 23:12:00,55.9,48.8,30.19,SE,137,1.0,3.0,77,0.00,,---,0.00,0.00,VWS V14.01,2013-01-11 04:12:00,
2013-01-10 23:13:00,55.8,48.7,30.19,SE,137,0.0,3.0,77,0.00,,---,0.00,0.00,VWS V14.01,2013-01-11 04:13:00,
2013-01-10 23:14:00,55.9,48.8,30.19,SE,140,1.0,3.0,77,0.00,,---,0.00,0.00,VWS V14.01,2013-01-11 04:14:00,
2013-01-10 23:15:00,55.8,48.7,30.19,SE,141,0.0,3.0,77,0.00,,---,0.00,0.00,VWS V14.01,2013-01-11 04:15:00,
2013-01-10 23:16:00,55.8,48.7,30.19,ENE,57,1.0,3.0,77,0.00,,---,0.00,0.00,VWS V14.01,2013-01-11 04:16:00,
2013-01-10 23:17:00,55.8,48.7,30.19,ENE,62,1.0,3.0,77,0.00,,---,0.00,0.00,VWS V14.01,2013-01-11 04:17:00,
2013-01-10 23:18:00,55.8,48.7,30.19,SE,131,0.0,6.0,77,0.00,,---,0.00,0.00,VWS V14.01,2013-01-11 04:18:00,
2013-01-10 23:19:00,55.9,48.5,30.19,ENE,63,0.0,3.0,76,0.00,,---,0.00,0.00,VWS V14.01,2013-01-11 04:19:00,
2013-01-10 23:20:00,55.9,48.5,30.19,NW,325,0.0,0.0,76,0.00,,---,0.00,0.00,VWS V14.01,2013-01-11 04:20:00,
2013-01-10 23:21:00,55.9,48.5,30.19,SSE,168,1.0,3.0,76,0.00,,---,0.00,0.00,VWS V14.01,2013-01-11 04:21:00,
2013-01-10 23:22:00,55.9,48.5,30.19,South,177,2.0,3.0,76,0.00,,---,0.00,0.00,VWS V14.01,2013-01-11 04:22:00,
2013-01-10 23:23:00,55.9,48.5,30.19,South,175,1.0,3.0,76,0.00,,---,0.00,0.00,VWS V14.01,2013-01-11 04:23:00,
2013-01-10 23:24:00,55.9,48.5,30.19,NE,53,4.0,4.0,76,0.00,,---,0.00,0.00,VWS V14.01,2013-01-11 04:24:00,
2013-01-10 23:25:00,55.9,48.5,30.18,NE,55,0.0,4.0,76,0.00,,---,0.00,0.00,VWS V14.01,2013-01-11 04:25:00,
2013-01-10 23:26:00,55.8,48.7,30.19,ENE,62,0.0,3.0,77,0.00,,---,0.00,0.00,VWS V14.01,2013-01-11 04:26:00,
2013-01-10 23:27:00,55.8,48.4,30.19,ESE,118,1.0,4.0,76,0.00,,---,0.00,0.00,VWS V14.01,2013-01-11 04:27:00,
2013-01-10 23:28:00,55.9,48.5,30.19,NW,311,0.0,4.0,76,0.00,,---,0.00,0.00,VWS V14.01,2013-01-11 04:28:00,
2013-01-10 23:29:00,55.9,48.5,30.19,NW,325,1.0,4.0,76,0.00,,---,0.00,0.00,VWS V14.01,2013-01-11 04:29:00,
2013-01-10 23:30:00,55.9,48.5,30.18,WNW,297,0.0,0.0,76,0.00,,---,0.00,0.00,VWS V14.01,2013-01-11 04:30:00,
2013-01-10 23:31:00,55.9,48.5,30.18,WNW,297,0.0,0.0,76,0.00,,---,0.00,0.00,VWS V14.01,2013-01-11 04:31:00,
2013-01-10 23:32:00,55.9,48.5,30.19,South,176,1.0,3.0,76,0.00,,---,0.00,0.00,VWS V14.01,2013-01-11 04:32:00,
2013-01-10 23:33:00,55.9,48.5,30.19,ENE,59,0.0,3.0,76,0.00,,---,0.00,0.00,VWS V14.01,2013-01-11 04:33:00,
2013-01-10 23:34:00,56.0,48.5,30.19,NE,43,2.0,3.0,76,0.00,,---,0.00,0.00,VWS V14.01,2013-01-11 04:34:00,
2013-01-10 23:35:00,56.0,48.5,30.19,NE,41,1.0,3.0,76,0.00,,---,0.00,0.00,VWS V14.01,2013-01-11 04:35:00,
2013-01-10 23:36:00,56.0,48.5,30.19,NE,55,3.0,4.0,76,0.00,,---,0.00,0.00,VWS V14.01,2013-01-11 04:36:00,
2013-01-10 23:37:00,56.0,48.5,30.18,ENE,65,0.0,4.0,76,0.00,,---,0.00,0.00,VWS V14.01,2013-01-11 04:37:00,
2013-01-10 23:38:00,56.0,48.5,30.19,ESE,115,0.0,4.0,76,0.00,,---,0.00,0.00,VWS V14.01,2013-01-11 04:38:00,
2013-01-10 23:39:00,55.9,48.5,30.19,WNW,297,0.0,4.0,76,0.00,,---,0.00,0.00,VWS V14.01,2013-01-11 04:39:00,
2013-01-10 23:40:00,56.0,48.5,30.19,NNE,19,2.0,3.0,76,0.00,,---,0.00,0.00,VWS V14.01,2013-01-11 04:40:00,
2013-01-10 23:41:00,56.0,48.5,30.18,SE,140,3.0,3.0,76,0.00,,---,0.00,0.00,VWS V14.01,2013-01-11 04:41:00,
2013-01-10 23:42:00,55.9,48.5,30.18,West,267,4.0,7.0,76,0.00,,---,0.00,0.00,VWS V14.01,2013-01-11 04:42:00,
2013-01-10 23:43:00,55.9,48.5,30.18,NW,306,0.0,7.0,76,0.00,,---,0.00,0.00,VWS V14.01,2013-01-11 04:43:00,
2013-01-10 23:44:00,56.0,48.5,30.18,NW,310,1.0,7.0,76,0.00,,---,0.00,0.00,VWS V14.01,2013-01-11 04:44:00,
2013-01-10 23:45:00,55.9,48.5,30.19,WNW,299,0.0,7.0,76,0.00,,---,0.00,0.00,VWS V14.01,2013-01-11 04:45:00,
2013-01-10 23:46:00,56.0,48.5,30.19,ENE,65,1.0,4.0,76,0.00,,---,0.00,0.00,VWS V14.01,2013-01-11 04:46:00,
2013-01-10 23:47:00,55.9,48.5,30.18,ESE,109,0.0,7.0,76,0.00,,---,0.00,0.00,VWS V14.01,2013-01-11 04:47:00,
2013-01-10 23:48:00,55.8,48.4,30.18,ESE,109,0.0,7.0,76,0.00,,---,0.00,0.00,VWS V14.01,2013-01-11 04:48:00,
2013-01-10 23:49:00,55.8,48.4,30.18,ESE,111,0.0,7.0,76,0.00,,---,0.00,0.00,VWS V14.01,2013-01-11 04:49:00,
2013-01-10 23:51:00,55.9,48.5,30.18,North,9,4.0,7.0,76,0.00,,---,0.00,0.00,VWS V14.01,2013-01-11 04:51:00,
2013-01-10 23:53:00,55.6,48.2,30.18,ESE,111,0.0,1.0,76,0.00,,---,0.00,0.00,VWS V14.01,2013-01-11 04:53:00,
2013-01-10 23:54:00,55.5,48.1,30.17,ESE,114,0.0,2.0,76,0.00,,---,0.00,0.00,VWS V14.01,2013-01-11 04:54:00,
2013-01-10 23:55:00,55.5,48.1,30.17,East,83,0.0,2.0,76,0.00,,---,0.00,0.00,VWS V14.01,2013-01-11 04:55:00,
2013-01-10 23:56:00,55.4,48.0,30.17,East,90,3.0,3.0,76,0.00,,---,0.00,0.00,VWS V14.01,2013-01-11 04:56:00,
2013-01-10 23:57:00,55.3,47.9,30.17,East,92,1.0,3.0,76,0.00,,---,0.00,0.00,VWS V14.01,2013-01-11 04:57:00,
2013-01-10 23:58:00,55.2,47.8,30.17,SSW,204,0.0,3.0,76,0.00,,---,0.00,0.00,VWS V14.01,2013-01-11 04:58:00,
2013-01-10 23:59:00,55.8,48.4,30.18,ESE,111,0.0,7.0,76,0.00,,---,0.00,0.00,VWS V14.01,2013-01-11 04:59:00,